ftp/pub/palmer/observations_modified/2019/August/AR190821_BASE.txt

Download

Sample DateTime	Unit Id	WS Avg 2min	WD Avg 2min	WGS 10min	WGD 10min	Air Temp	Rel Humidity	Dew Point	Pyranometer	Quantum	Air Pressure	Snow Level	Rainfall	PW Current	Visibility	CBase 1	CBase 2	CBase 3	Vert Vis
2019/08/21  00:00:00  BASE  1.47588  289  2.69304  277  -3.0  100   -3.0  0     0     1014.1   NA       0.0000   9999     300   0     0    
2019/08/21  00:01:00  BASE  1.86396  280  2.69304  269  -3.0  100   -3.0  0     0     1014.2   NA       0.0000   9999     300   0     0    
2019/08/21  00:02:00  BASE  1.76988  269  2.69304  269  -3.0  100   -3.0  0     0     1014.2   NA       0.0000   9999     0     0     0    
2019/08/21  00:03:00  BASE  1.01136  276  2.69304  269  -3.0  100   -3.0  0     0     1014.2   NA       0.0000   9999     0     0     0    
2019/08/21  00:04:00  BASE  0.72912  292  2.69304  269  -3.0  100   -3.0  0     0     1014.2   NA       0.0000   9999     200   0     0    
2019/08/21  00:05:00  BASE  0.78204  296  2.69304  269  -3.1  100   -3.1  0     0     1014.2   NA       0.0000   9999     200   0     0    
2019/08/21  00:06:00  BASE  0.42336  306  2.69304  269  -3.1  100   -3.1  0     0     1014.2   NA       0.0000   9999     160   0     0    
2019/08/21  00:07:00  BASE  0.02352  296  2.69304  269  -3.1  100   -3.1  0     0     1014.2   NA       0.0000   9999     200   0     0    
2019/08/21  00:08:00  BASE  0        259  2.69304  269  -3.1  100   -3.1  0     0     1014.2   NA       0.0000   9999     230   0     0    
2019/08/21  00:09:00  BASE  0        246  2.69304  269  -3.1  100   -3.1  0     0     1014.2   NA       0.0000   9999     300   0     0    
2019/08/21  00:10:00  BASE  0        246  2.69304  269  -3.1  100   -3.1  0     0     1014.2   NA       0.0000   9999     300   0     0    
2019/08/21  00:11:00  BASE  0        250  1.96392  268  -3.1  100   -3.1  0     0     1014.2   NA       0.0000   9999     230   0     0    
2019/08/21  00:12:00  BASE  0        267  1.1466   281  -3.1  100   -3.1  0     0     1014.2   NA       0.0000   9999     200   0     0    
2019/08/21  00:13:00  BASE  0        285  1.1466   281  -3.1  100   -3.1  0     0     1014.2   NA       0.0000   9999     230   0     0    
2019/08/21  00:14:00  BASE  0        294  1.1466   281  -3.1  100   -3.1  0     0     1014.2   NA       0.0000   9999     230   0     0    
2019/08/21  00:15:00  BASE  0        300  0.60564  300  -3.1  100   -3.1  0     0     1014.2   NA       0.0000   9999     260   0     0    
2019/08/21  00:16:00  BASE  0.72324  304  1.69344  314  -3.1  100   -3.1  0     0     1014.3   NA       0.0000   9999     0     0     0    
2019/08/21  00:17:00  BASE  1.47     306  1.69344  314  -3.1  100   -3.1  0     0     1014.4   NA       0.0000   9999     0     0     0    
2019/08/21  00:18:00  BASE  1.54056  314  1.69344  329  -3.1  100   -3.1  0     0     1014.3   NA       0.0000   9999     0     0     0    
2019/08/21  00:19:00  BASE  1.75224  324  2.1168   322  -3.1  100   -3.1  0     0     1014.2   NA       0.0000   9999     0     0     0    
2019/08/21  00:20:00  BASE  1.84044  325  2.1168   322  -3.2  100   -3.2  0     0     1014.2   NA       0.0000   9999     0     0     0    
2019/08/21  00:21:00  BASE  1.91688  323  2.1462   312  -3.2  100   -3.2  0     0     1014.2   NA       0.0000   9999     0     0     0    
2019/08/21  00:22:00  BASE  2.08152  323  2.24028  322  -3.2  100   -3.2  0     0     1014.2   NA       0.0000   8000     0     0     0    
2019/08/21  00:23:00  BASE  2.18148  322  2.66364  322  -3.2  100   -3.2  0     0     1014.2   NA       0.0000   7000     0     0     0    
2019/08/21  00:24:00  BASE  2.19912  319  2.66364  322  -3.2  100   -3.2  0     0     1014.2   NA       0.0000   7000     0     0     0    
2019/08/21  00:25:00  BASE  2.06976  323  2.66364  322  -3.2  100   -3.2  0     0     1014.3   NA       0.0000   9000     0     0     0    
2019/08/21  00:26:00  BASE  2.00508  322  2.66364  322  -3.2  100   -3.2  0     0     1014.2   NA       0.0000   9999     0     0     0    
2019/08/21  00:27:00  BASE  1.95216  322  2.66364  322  -3.2  100   -3.2  0     0     1014.3   NA       0.0000   9999     0     0     0    
2019/08/21  00:28:00  BASE  1.88748  327  2.66364  322  -3.2  100   -3.2  0     0     1014.3   NA       0.0000   BR       6000  0     0    
2019/08/21  00:29:00  BASE  1.8522   328  2.66364  322  -3.2  100   -3.2  0     0     1014.4   NA       0.0000   BR       4100  0     0    
2019/08/21  00:30:00  BASE  1.83456  328  2.66364  322  -3.2  100   -3.2  0     0     1014.3   NA       0.0000   BR       6000  0     0    
2019/08/21  00:31:00  BASE  2.01684  330  2.66364  322  -3.2  100   -3.2  0     0     1014.3   NA       0.0000   BR       4200  0     0    
2019/08/21  00:32:00  BASE  2.1756   337  2.66364  322  -3.2  100   -3.2  0     0     1014.3   NA       0.0000   BR       3000  0     0    
2019/08/21  00:33:00  BASE  2.19912  337  2.51076  328  -3.2  100   -3.2  0     0     1014.3   NA       0.0000   BR       2800  0     0    
2019/08/21  00:34:00  BASE  2.19324  334  2.51076  328  -3.2  100   -3.2  0     0     1014.2   NA       0.0000   BR       2400  0     0    
2019/08/21  00:35:00  BASE  2.39316  339  2.93412  334  -3.2  100   -3.2  0     0     1014.2   NA       0.0000   BR       2100  0     0    
2019/08/21  00:36:00  BASE  2.68128  332  2.93412  326  -3.2  100   -3.2  0     0     1014.3   NA       0.0000   BR       2200  0     0    
2019/08/21  00:37:00  BASE  2.44608  329  2.93412  326  -3.2  100   -3.2  0     0     1014.4   NA       0.0000   BR       1700  0     0    
2019/08/21  00:38:00  BASE  2.32848  336  2.93412  326  -3.2  100   -3.2  0     0     1014.4   NA       0.0000   BR       1600  0     0    
2019/08/21  00:39:00  BASE  2.36964  340  2.93412  326  -3.2  100   -3.2  0     0     1014.3   NA       0.0000   BR       1900  0     0    
2019/08/21  00:40:00  BASE  2.49312  333  2.93412  326  -3.2  100   -3.2  0     0     1014.2   NA       0.0000   BR       1900  0     0    
2019/08/21  00:41:00  BASE  2.59896  329  2.93412  326  -3.2  100   -3.2  0     0     1014.2   NA       0.0000   BR       1700  0     0    
2019/08/21  00:42:00  BASE  2.56956  336  2.93412  326  -3.2  100   -3.2  0     0     1014.2   NA       0.0000   BR       1600  0     0    
2019/08/21  00:43:00  BASE  2.48136  341  2.93412  326  -3.3  100   -3.3  0     0     1014.2   NA       0.0000   BR       1600  0     0    
2019/08/21  00:44:00  BASE  2.45784  342  2.93412  326  -3.3  100   -3.3  0     0     1014.2   NA       0.0000   BR       1700  0     0    
2019/08/21  00:45:00  BASE  2.38728  346  2.93412  326  -3.3  100   -3.3  0     0     1014.2   NA       0.0000   BR       1600  0     0    
2019/08/21  00:46:00  BASE  1.94628  347  2.87532  326  -3.3  100   -3.3  0     0     1014.2   NA       0.0000   BR       1400  0     0    
2019/08/21  00:47:00  BASE  1.81104  347  2.87532  326  -3.3  100   -3.3  0     0     1014.2   NA       0.0000   BR       1400  0     0    
2019/08/21  00:48:00  BASE  2.02272  356  2.87532  326  -3.3  100   -3.3  0     0     1014.2   NA       0.0000   BR       1600  0     0    
2019/08/21  00:49:00  BASE  2.26968  353  3.02232  353  -3.3  100   -3.3  0     0     1014.2   NA       0.0000   BR       2000  0     0    
2019/08/21  00:50:00  BASE  2.36964  347  3.02232  353  -3.3  100   -3.3  0     0     1014.2   NA       0.0000   BR       3000  0     0    
2019/08/21  00:51:00  BASE  2.48136  350  3.35748  2    -3.3  100   -3.3  0     0     1014.2   NA       0.0000   BR       2500  0     0    
2019/08/21  00:52:00  BASE  2.54016  352  3.35748  2    -3.3  100   -3.3  0     0     1014.2   NA       0.0000   BR       2000  0     0    
2019/08/21  00:53:00  BASE  2.61072  352  3.35748  2    -3.3  100   -3.3  0     0     1014.2   NA       0.0000   BR       2000  0     0    
2019/08/21  00:54:00  BASE  2.48724  350  3.35748  2    -3.3  100   -3.3  0     0     1014.3   NA       0.0000   BR       2400  0     0    
2019/08/21  00:55:00  BASE  2.12856  351  3.35748  2    -3.3  100   -3.3  0     0     1014.3   NA       0.0000   BR       2700  0     0    
2019/08/21  00:56:00  BASE  2.01684  357  3.35748  2    -3.3  100   -3.3  0     0     1014.3   NA       0.0000   BR       2900  0     0    
2019/08/21  00:57:00  BASE  1.9698   1    3.35748  2    -3.2  100   -3.2  0     0     1014.3   NA       0.0000   BR       3300  0     0    
2019/08/21  00:58:00  BASE  1.8816   358  3.35748  2    -3.2  100   -3.2  0     0     1014.3   NA       0.0000   BR       4800  0     0    
2019/08/21  00:59:00  BASE  1.68756  358  3.35748  2    -3.2  100   -3.2  0     0     1014.4   NA       0.0000   BR       4800  0     0    
2019/08/21  01:00:00  BASE  1.64052  353  3.35748  2    -3.2  100   -3.2  0     0     1014.3   NA       0.0000   BR       3700  0     0    
2019/08/21  01:01:00  BASE  1.48176  352  3.1458   354  -3.2  100   -3.2  0     0     1014.4   NA       0.0000   BR       6000  0     0    
2019/08/21  01:02:00  BASE  1.34652  16   3.1458   354  -3.2  100   -3.2  0     0     1014.4   NA       0.0000   BR       7000  0     0    
2019/08/21  01:03:00  BASE  1.44648  35   2.59896  354  -3.2  100   -3.2  0     0     1014.3   NA       0.0000   BR       6000  0     0    
2019/08/21  01:04:00  BASE  1.6464   52   2.24028  75   -3.2  100   -3.2  0     0     1014.2   NA       0.0000   BR       4200  0     0    
2019/08/21  01:05:00  BASE  2.01684  76   2.63424  72   -3.2  100   -3.2  0     0     1014.2   NA       0.0000   BR       4700  0     0    
2019/08/21  01:06:00  BASE  1.77576  85   2.63424  72   -3.2  100   -3.2  0     0     1014.2   NA       0.0000   BR       3500  0     0    
2019/08/21  01:07:00  BASE  1.65816  72   2.63424  72   -3.2  100   -3.2  0     0     1014.2   NA       0.0000   BR       2300  0     0    
2019/08/21  01:08:00  BASE  1.84044  68   2.63424  72   -3.2  100   -3.2  0     0     1014.2   NA       0.0000   BR       2900  0     0    
2019/08/21  01:09:00  BASE  1.66992  73   2.63424  72   -3.2  100   -3.2  0     0     1014.2   NA       0.0000   BR       5000  0     0    
2019/08/21  01:10:00  BASE  1.51116  92   2.63424  72   -3.2  100   -3.2  0     0     1014.2   NA       0.0000   BR       9999  0     0    
2019/08/21  01:11:00  BASE  1.28772  119  2.63424  72   -3.2  100   -3.2  0     0     1014.2   NA       0.0000   BR       9999  0     0    
2019/08/21  01:12:00  BASE  1.01724  103  2.63424  72   -3.2  100   -3.2  0     0     1014.2   NA       0.0000   BR       9999  160   0    
2019/08/21  01:13:00  BASE  0.80556  84   2.63424  72   -3.2  100   -3.2  0     0     1014.3   NA       0.0000   BR       9999  0     0    
2019/08/21  01:14:00  BASE  0.84084  65   2.63424  72   -3.1  100   -3.1  0     0     1014.4   NA       0.0000   BR       9000  160   0    
2019/08/21  01:15:00  BASE  0.89376  42   2.1462   74   -3.1  100   -3.1  0     0     1014.4   NA       0.0000   BR       9999  160   0    
2019/08/21  01:16:00  BASE  0.45276  40   2.1462   74   -3.1  100   -3.1  0     0     1014.4   NA       0.0000   BR       9999  200   0    
2019/08/21  01:17:00  BASE  0.0294   58   2.1462   74   -3.1  100   -3.1  0     0     1014.3   NA       0.0000   BR       9999  200   0    
2019/08/21  01:18:00  BASE  0        79   1.81692  69   -3.1  100   -3.1  0     0     1014.2   NA       0.0000   9999     160   0     0    
2019/08/21  01:19:00  BASE  0        104  1.72284  55   -3.1  100   -3.1  0     0     1014.2   NA       0.0000   9999     0     0     0    
2019/08/21  01:20:00  BASE  0        116  1.45236  105  -3.1  100   -3.1  0     0     1014.2   NA       0.0000   9999     0     0     0    
2019/08/21  01:21:00  BASE  0        95   1.39356  60   -3.1  100   -3.1  0     0     1014.3   NA       0.0000   9999     200   0     0    
2019/08/21  01:22:00  BASE  0        78   1.39356  60   -3.1  100   -3.1  0     0     1014.4   NA       0.0000   9999     200   0     0    
2019/08/21  01:23:00  BASE  0        88   1.39356  60   -3.1  100   -3.1  0     0     1014.4   NA       0.0000   9999     200   0     0    
2019/08/21  01:24:00  BASE  0        75   1.029    49   -3.1  100   -3.1  0     0     1014.4   NA       0.0000   9999     200   0     0    
2019/08/21  01:25:00  BASE  0        39   0.63504  25   -3.1  100   -3.1  0     0     1014.4   NA       0.0000   9999     160   0     0    
2019/08/21  01:26:00  BASE  0        16   0        M    -3.1  100   -3.1  0     0     1014.4   NA       0.0000   9999     200   0     0    
2019/08/21  01:27:00  BASE  0        6    0        M    -3.1  100   -3.1  0     0     1014.4   NA       0.0000   9999     230   0     0    
2019/08/21  01:28:00  BASE  0        357  0        M    -3.1  100   -3.1  0     0     1014.4   NA       0.0000   9999     330   0     0    
2019/08/21  01:29:00  BASE  0        312  0        M    -3.1  100   -3.1  0     0     1014.5   NA       0.0000   9999     330   0     0    
2019/08/21  01:30:00  BASE  0        259  0        M    -3.0  100   -3.0  0     0     1014.4   NA       0.0000   9999     260   0     0    
2019/08/21  01:31:00  BASE  0        285  0        M    -3.0  100   -3.0  0     0     1014.4   NA       0.0000   9999     230   0     0    
2019/08/21  01:32:00  BASE  0        332  0        M    -3.0  100   -3.0  0     0     1014.5   NA       0.0000   9999     200   0     0    
2019/08/21  01:33:00  BASE  0        337  0        M    -3.0  100   -3.0  0     0     1014.5   NA       0.0000   9999     230   0     0    
2019/08/21  01:34:00  BASE  0        357  0        M    -3.0  100   -3.0  0     0     1014.5   NA       0.0000   9999     200   0     0    
2019/08/21  01:35:00  BASE  0.22344  13   1.90512  15   -3.0  100   -3.0  0     0     1014.4   NA       0.0000   9999     260   0     0    
2019/08/21  01:36:00  BASE  1.08192  17   1.90512  15   -3.0  100   -3.0  0     0     1014.5   NA       0.0000   9999     260   0     0    
2019/08/21  01:37:00  BASE  1.62288  17   1.90512  15   -3.0  100   -3.0  0     0     1014.5   NA       0.0000   9999     300   0     0    
2019/08/21  01:38:00  BASE  1.4994   15   1.90512  15   -3.0  100   -3.0  0     0     1014.5   NA       0.0000   9999     300   0     0    
2019/08/21  01:39:00  BASE  1.45236  16   1.90512  15   -3.0  100   -3.0  0     0     1014.5   NA       0.0000   9999     300   0     0    
2019/08/21  01:40:00  BASE  1.42884  16   1.90512  15   -3.1  100   -3.1  0     0     1014.5   NA       0.0000   9999     300   0     0    
2019/08/21  01:41:00  BASE  1.25244  9    1.90512  15   -3.1  100   -3.1  0     0     1014.5   NA       0.0000   9999     300   0     0    
2019/08/21  01:42:00  BASE  0.9408   11   1.90512  15   -3.0  100   -3.0  0     0     1014.5   NA       0.0000   9999     300   0     0    
2019/08/21  01:43:00  BASE  0.81144  16   1.90512  15   -3.0  100   -3.0  0     0     1014.6   NA       0.0000   9999     300   0     0    
2019/08/21  01:44:00  BASE  0.95844  16   1.90512  15   -3.0  100   -3.0  0     0     1014.5   NA       0.0000   9999     300   0     0    
2019/08/21  01:45:00  BASE  1.31124  22   1.90512  15   -3.0  100   -3.0  0     0     1014.5   NA       0.0000   9999     300   0     0    
2019/08/21  01:46:00  BASE  1.43472  31   1.69344  19   -3.0  100   -3.0  0     0     1014.5   NA       0.0000   9999     300   0     0    
2019/08/21  01:47:00  BASE  1.47     40   1.96392  45   -3.0  100   -3.0  0     0     1014.5   NA       0.0000   9999     330   0     0    
2019/08/21  01:48:00  BASE  1.60524  42   1.96392  45   -3.0  100   -3.0  0     0     1014.5   NA       0.0000   9999     330   0     0    
2019/08/21  01:49:00  BASE  1.4994   40   1.96392  45   -3.0  100   -3.0  0     0     1014.5   NA       0.0000   9999     330   0     0    
2019/08/21  01:50:00  BASE  1.2936   51   1.96392  45   -3.0  100   -3.0  0     0     1014.5   NA       0.0000   9999     330   0     0    
2019/08/21  01:51:00  BASE  1.11132  59   1.96392  45   -3.0  100   -3.0  0     0     1014.4   NA       0.0000   9999     360   0     0    
2019/08/21  01:52:00  BASE  1.12308  57   1.96392  45   -3.0  100   -3.0  0     0     1014.4   NA       0.0000   9999     330   0     0    
2019/08/21  01:53:00  BASE  1.05252  45   1.96392  45   -3.0  100   -3.0  0     0     1014.5   NA       0.0000   9999     360   0     0    
2019/08/21  01:54:00  BASE  0.80556  32   1.96392  45   -3.0  100   -3.0  0     0     1014.5   NA       0.0000   9999     360   0     0    
2019/08/21  01:55:00  BASE  0.87024  26   1.96392  45   -3.0  100   -3.0  0     0     1014.4   NA       0.0000   9999     300   0     0    
2019/08/21  01:56:00  BASE  1.19952  25   1.96392  45   -3.0  100   -3.0  0     0     1014.4   NA       0.0000   9999     390   0     0    
2019/08/21  01:57:00  BASE  1.24068  36   1.96392  45   -3.0  100   -3.0  0     0     1014.4   NA       0.0000   9999     430   0     0    
2019/08/21  01:58:00  BASE  1.06428  61   1.63464  29   -3.0  100   -3.0  0     0     1014.4   NA       0.0000   9999     430   0     0    
2019/08/21  01:59:00  BASE  1.15836  64   1.81692  19   -3.0  100   -3.0  0     0     1014.4   NA       0.0000   9999     430   0     0    
2019/08/21  02:00:00  BASE  1.39356  40   1.9992   4    -3.0  100   -3.0  0     0     1014.4   NA       0.0000   9999     590   0     0    
2019/08/21  02:01:00  BASE  0.81144  43   1.9992   4    -3.0  100   -3.0  0     0     1014.4   NA       0.0000   9999     660   0     0    
2019/08/21  02:02:00  BASE  0.0588   63   1.9992   4    -3.0  100   -3.0  0     0     1014.4   NA       0.0000   9999     660   0     0    
2019/08/21  02:03:00  BASE  0        50   1.9992   4    -3.0  100   -3.0  0     0     1014.4   NA       0.0000   9999     690   0     0    
2019/08/21  02:04:00  BASE  0        10   1.9992   4    -2.9  100   -2.9  0     0     1014.4   NA       0.0000   9999     590   0     0    
2019/08/21  02:05:00  BASE  0        8    1.9992   4    -2.9  100   -2.9  0     0     1014.4   NA       0.0000   9999     590   0     0    
2019/08/21  02:06:00  BASE  0.12936  19   1.9992   4    -2.9  100   -2.9  0     0     1014.5   NA       0.0000   9999     590   0     0    
2019/08/21  02:07:00  BASE  0.12936  16   1.9992   4    -2.9  100   -2.9  0     0     1014.5   NA       0.0000   9999     620   0     0    
2019/08/21  02:08:00  BASE  0        17   1.9992   4    -2.9  100   -2.9  0     0     1014.4   NA       0.0000   9999     560   0     0    
2019/08/21  02:09:00  BASE  0        355  1.9992   4    -2.9  100   -2.9  0     0     1014.4   NA       0.0000   9999     590   0     0    
2019/08/21  02:10:00  BASE  0        339  0.81732  5    -2.9  100   -2.9  0     0     1014.4   NA       0.0000   9999     660   0     0    
2019/08/21  02:11:00  BASE  0        357  0.81732  5    -2.9  100   -2.9  0     0     1014.4   NA       0.0000   9999     690   0     0    
2019/08/21  02:12:00  BASE  0        41   0.81732  5    -2.9  100   -2.9  0     0     1014.4   NA       0.0000   9999     690   0     0    
2019/08/21  02:13:00  BASE  0        105  0.81732  5    -2.9  100   -2.9  0     0     1014.4   NA       0.0000   9999     660   0     0    
2019/08/21  02:14:00  BASE  0        160  0.81732  5    -2.9  100   -2.9  0     0     1014.5   NA       0.0000   9999     660   0     0    
2019/08/21  02:15:00  BASE  0        173  0.81732  5    -2.9  100   -2.9  0     0     1014.5   NA       0.0000   9999     660   0     0    
2019/08/21  02:16:00  BASE  0        152  0        M    -2.8  100   -2.8  0     0     1014.5   NA       0.0000   9999     690   0     0    
2019/08/21  02:17:00  BASE  0        155  0        M    -2.8  100   -2.8  0     0     1014.5   NA       0.0000   9999     660   0     0    
2019/08/21  02:18:00  BASE  0        177  0        M    -2.8  100   -2.8  0     0     1014.5   NA       0.0000   9999     690   0     0    
2019/08/21  02:19:00  BASE  0        208  0        M    -2.8  100   -2.8  0     0     1014.4   NA       0.0000   9999     660   0     0    
2019/08/21  02:20:00  BASE  0        253  0        M    -2.9  100   -2.9  0     0     1014.5   NA       0.0000   9999     620   0     0    
2019/08/21  02:21:00  BASE  0        301  0        M    -2.9  100   -2.9  0     0     1014.5   NA       0.0000   9999     660   0     0    
2019/08/21  02:22:00  BASE  0        288  0        M    -2.9  100   -2.9  0     0     1014.5   NA       0.0000   9999     690   0     0    
2019/08/21  02:23:00  BASE  0.28812  279  1.29948  293  -2.9  100   -2.9  0     0     1014.5   NA       0.0000   9999     620   0     0    
2019/08/21  02:24:00  BASE  0.69972  276  1.29948  293  -2.9  100   -2.9  0     0     1014.5   NA       0.0000   9999     560   0     0    
2019/08/21  02:25:00  BASE  0.8232   266  1.29948  293  -2.9  100   -2.9  0     0     1014.4   NA       0.0000   9999     590   0     0    
2019/08/21  02:26:00  BASE  0.95256  247  1.29948  293  -2.9  100   -2.9  0     0     1014.4   NA       0.0000   9999     620   0     0    
2019/08/21  02:27:00  BASE  0.95844  241  1.29948  293  -2.9  100   -2.9  0     0     1014.4   NA       0.0000   9999     590   0     0    
2019/08/21  02:28:00  BASE  0.81732  233  1.29948  293  -2.9  100   -2.9  0     0     1014.4   NA       0.0000   9999     620   0     0    
2019/08/21  02:29:00  BASE  0.78204  210  1.29948  293  -2.9  100   -2.9  0     0     1014.4   NA       0.0000   9999     590   0     0    
2019/08/21  02:30:00  BASE  0.56448  190  1.29948  293  -2.9  100   -2.9  0     0     1014.4   NA       0.0000   9999     590   0     0    
2019/08/21  02:31:00  BASE  0.18228  190  1.29948  293  -2.9  100   -2.9  0     0     1014.5   NA       0.0000   9999     620   0     0    
2019/08/21  02:32:00  BASE  0        207  1.29948  293  -2.9  100   -2.9  0     0     1014.5   NA       0.0000   9999     620   0     0    
2019/08/21  02:33:00  BASE  0        207  1.18188  237  -2.9  100   -2.9  0     0     1014.4   NA       0.0000   9999     590   0     0    
2019/08/21  02:34:00  BASE  0        201  1.18188  237  -2.9  100   -2.9  0     0     1014.4   NA       0.0000   9999     590   0     0    
2019/08/21  02:35:00  BASE  0        222  1.18188  237  -2.9  100   -2.9  0     0     1014.4   NA       0.0000   9999     590   0     0    
2019/08/21  02:36:00  BASE  0        248  1.0584   239  -2.9  100   -2.9  0     0     1014.5   NA       0.0000   9999     590   0     0    
2019/08/21  02:37:00  BASE  0        263  0.93492  224  -2.9  100   -2.9  0     0     1014.5   NA       0.0000   9999     520   0     0    
2019/08/21  02:38:00  BASE  0        275  0.84672  187  -2.9  100   -2.9  0     0     1014.4   NA       0.0000   9999     490   0     0    
2019/08/21  02:39:00  BASE  0        282  0.84672  187  -2.9  100   -2.9  0     0     1014.4   NA       0.0000   9999     460   0     0    
2019/08/21  02:40:00  BASE  0        283  0        M    -2.9  100   -2.9  0     0     1014.4   NA       0.0000   9999     430   0     0    
2019/08/21  02:41:00  BASE  0        282  0        M    -2.9  100   -2.9  0     0     1014.5   NA       0.0000   9999     390   0     0    
2019/08/21  02:42:00  BASE  0        285  0        M    -2.9  100   -2.9  0     0     1014.4   NA       0.0000   9999     390   0     0    
2019/08/21  02:43:00  BASE  0        297  0        M    -2.9  100   -2.9  0     0     1014.4   NA       0.0000   9999     300   0     0    
2019/08/21  02:44:00  BASE  0        308  0        M    -2.9  100   -2.9  0     0     1014.4   NA       0.0000   UP       9999  360   0    
2019/08/21  02:45:00  BASE  0        310  0        M    -2.9  100   -2.9  0     0     1014.4   NA       0.0000   UP       9999  360   0    
2019/08/21  02:46:00  BASE  0        310  0        M    -2.9  100   -2.9  0     0     1014.4   NA       0.0000   UP       9999  330   0    
2019/08/21  02:47:00  BASE  0        308  0        M    -2.9  100   -2.9  0     0     1014.4   NA       0.0000   UP       9999  360   0    
2019/08/21  02:48:00  BASE  0        270  0        M    -2.9  100   -2.9  0     0     1014.4   NA       0.0000   UP       9999  490   0    
2019/08/21  02:49:00  BASE  0        220  0        M    -2.9  100   -2.9  0     0     1014.4   NA       0.0000   UP       9999  520   0    
2019/08/21  02:50:00  BASE  0        208  0        M    -2.9  100   -2.9  0     0     1014.4   NA       0.0000   UP       9999  590   0    
2019/08/21  02:51:00  BASE  0        203  0        M    -2.9  100   -2.9  0     0     1014.4   NA       0.0000   UP       9999  390   0    
2019/08/21  02:52:00  BASE  0        198  0        M    -2.9  100   -2.9  0     0     1014.4   NA       0.0000   UP       9999  330   0    
2019/08/21  02:53:00  BASE  0        185  0        M    -2.9  100   -2.9  0     0     1014.4   NA       0.0000   UP       9999  300   0    
2019/08/21  02:54:00  BASE  0        169  0        M    -2.9  100   -2.9  0     0     1014.4   NA       0.0000   UP       9000  260   0    
2019/08/21  02:55:00  BASE  0        190  0        M    -2.9  100   -2.9  0     0     1014.5   NA       0.0000   UP       7000  230   0    
2019/08/21  02:56:00  BASE  0        270  0        M    -2.9  100   -2.9  0     0     1014.5   NA       0.0000   UP       BR    6000  260  
2019/08/21  02:57:00  BASE  0        290  0        M    -2.9  100   -2.9  0     0     1014.5   NA       0.0000   UP       BR    5000  260  
2019/08/21  02:58:00  BASE  0        324  0        M    -2.9  100   -2.9  0     0     1014.5   NA       0.0000   UP       BR    4300  0    
2019/08/21  02:59:00  BASE  0        25   0        M    -2.9  100   -2.9  0     0     1014.5   NA       0.0000   UP       BR    4500  0    
2019/08/21  03:00:00  BASE  0        60   0        M    -2.9  100   -2.9  0     0     1014.5   NA       0.0000   UP       BR    4100  0    
2019/08/21  03:01:00  BASE  0        89   0        M    -2.9  100   -2.9  0     0     1014.5   NA       0.0000   UP       BR    4400  260  
2019/08/21  03:02:00  BASE  0        102  0        M    -2.9  100   -2.9  0     0     1014.5   NA       0.0000   UP       BR    4600  0    
2019/08/21  03:03:00  BASE  0        83   0        M    -2.9  100   -2.9  0     0     1014.5   NA       0.0000   UP       BR    5000  230  
2019/08/21  03:04:00  BASE  0        85   0        M    -2.9  100   -2.9  0     0     1014.5   NA       0.0000   UP       BR    6000  230  
2019/08/21  03:05:00  BASE  0        126  0        M    -2.9  100   -2.9  0     0     1014.4   NA       0.0000   UP       BR    5000  200  
2019/08/21  03:06:00  BASE  0        138  0        M    -2.9  100   -2.9  0     0     1014.4   NA       0.0000   UP       BR    4200  0    
2019/08/21  03:07:00  BASE  0        129  0        M    -2.9  100   -2.9  0     0     1014.4   NA       0.0000   UP       BR    5000  230  
2019/08/21  03:08:00  BASE  0        144  0        M    -2.9  100   -2.9  0     0     1014.4   NA       0.0000   UP       BR    5000  230  
2019/08/21  03:09:00  BASE  0        157  0        M    -2.9  100   -2.9  0     0     1014.4   NA       0.0000   UP       BR    5000  260  
2019/08/21  03:10:00  BASE  0.21756  165  1.96392  180  -2.9  100   -2.9  0     0     1014.4   NA       0.0000   UP       BR    5000  300  
2019/08/21  03:11:00  BASE  0.92316  173  1.96392  180  -2.9  100   -2.9  0     0     1014.4   NA       0.0000   UP       BR    4300  260  
2019/08/21  03:12:00  BASE  1.16424  167  1.96392  180  -2.9  100   -2.9  0     0     1014.4   NA       0.0000   UP       BR    3400  0    
2019/08/21  03:13:00  BASE  0.50568  153  1.96392  180  -2.9  100   -2.9  0     0     1014.4   NA       0.0000   UP       BR    3500  0    
2019/08/21  03:14:00  BASE  0.19992  150  1.96392  180  -2.9  100   -2.9  0     0     1014.4   NA       0.0000   UP       BR    3700  0    
2019/08/21  03:15:00  BASE  0.50568  156  1.96392  180  -2.9  100   -2.9  0     0     1014.5   NA       0.0000   -SN      BR    3900  0    
2019/08/21  03:16:00  BASE  0.75852  154  1.96392  180  -2.9  100   -2.9  0     0     1014.5   NA       0.0000   -SN      BR    4300  300  
2019/08/21  03:17:00  BASE  0.88788  154  1.96392  180  -2.9  100   -2.9  0     0     1014.5   NA       0.0000   -SN      BR    5000  0    
2019/08/21  03:18:00  BASE  0.98784  150  1.96392  180  -2.9  100   -2.9  0     0     1014.4   NA       0.0000   -SN      BR    8000  390  
2019/08/21  03:19:00  BASE  0.98784  148  1.96392  180  -2.9  100   -2.9  0     0     1014.4   NA       0.0000   -SN      BR    9999  560  
2019/08/21  03:20:00  BASE  0.91728  146  1.96392  180  -2.9  100   -2.9  0     0     1014.4   NA       0.0000   -SN      BR    9000  460  
2019/08/21  03:21:00  BASE  0.91728  135  1.27008  171  -2.9  100   -2.9  0     0     1014.4   NA       0.0000   -SN      BR    9000  390  
2019/08/21  03:22:00  BASE  0.9702   140  1.42296  164  -2.9  100   -2.9  0     0     1014.4   NA       0.0000   -SN      BR    9000  360  
2019/08/21  03:23:00  BASE  1.01136  153  1.48176  164  -2.9  100   -2.9  0     0     1014.4   NA       0.0000   -SN      BR    8000  300  
2019/08/21  03:24:00  BASE  1.18776  170  1.54056  186  -2.9  100   -2.9  0     0     1014.4   NA       0.0000   -SN      BR    6000  230  
2019/08/21  03:25:00  BASE  0.9408   202  1.54056  186  -2.9  100   -2.9  0     0     1014.4   NA       0.0000   -SN      BR    4000  0    
2019/08/21  03:26:00  BASE  0.28812  263  1.54056  186  -2.9  100   -2.9  0     0     1014.4   NA       0.0000   -SN      BR    3600  0    
2019/08/21  03:27:00  BASE  0        335  1.54056  186  -2.9  100   -2.9  0     0     1014.4   NA       0.0000   -SN      BR    5000  330  
2019/08/21  03:28:00  BASE  0        30   1.54056  186  -2.8  100   -2.8  0     0     1014.4   NA       0.0000   -SN      BR    9999  560  
2019/08/21  03:29:00  BASE  0        149  1.54056  186  -2.8  100   -2.8  0     0     1014.4   NA       0.0000   -SN      BR    9999  520  
2019/08/21  03:30:00  BASE  0        173  1.54056  186  -2.9  100   -2.9  0     0     1014.4   NA       0.0000   -SN      BR    9999  590  
2019/08/21  03:31:00  BASE  0        174  1.54056  186  -2.8  100   -2.8  0     0     1014.4   NA       0.0000   -SN      BR    9999  560  
2019/08/21  03:32:00  BASE  0        170  1.54056  186  -2.8  100   -2.8  0     0     1014.4   NA       0.0000   -SN      BR    9999  720  
2019/08/21  03:33:00  BASE  0        164  1.54056  186  -2.8  100   -2.8  0     0     1014.4   NA       0.0000   -SN      BR    9999  750  
2019/08/21  03:34:00  BASE  0        158  1.51116  204  -2.9  100   -2.9  0     0     1014.4   NA       0.0000   -SN      BR    9999  620  
2019/08/21  03:35:00  BASE  0        156  0        M    -2.9  100   -2.9  0     0     1014.4   NA       0.0000   -SN      BR    9999  620  
2019/08/21  03:36:00  BASE  0.25872  168  2.1168   171  -2.9  100   -2.9  0     0     1014.3   NA       0.0000   -SN      9999  620   0    
2019/08/21  03:37:00  BASE  1.28184  184  2.26968  195  -2.9  100   -2.9  0     0     1014.3   NA       0.0000   -SN      9999  590   0    
2019/08/21  03:38:00  BASE  2.37552  192  3.48096  200  -2.9  100   -2.9  0     0     1014.2   NA       0.0000   9999     660   0     0    
2019/08/21  03:39:00  BASE  2.87532  202  3.48096  200  -2.8  100   -2.8  0     0     1014.2   NA       0.0000   9999     720   0     0    
2019/08/21  03:40:00  BASE  3.13404  210  3.81024  217  -2.8  100   -2.8  0     0     1014.2   NA       0.0000   9999     690   0     0    
2019/08/21  03:41:00  BASE  3.24576  216  3.81024  217  -2.8  100   -2.8  0     0     1014.3   NA       0.0000   9999     690   0     0    
2019/08/21  03:42:00  BASE  3.22812  220  3.81024  217  -2.8  100   -2.8  0     0     1014.4   NA       0.0000   9999     660   0     0    
2019/08/21  03:43:00  BASE  3.13992  225  3.81024  217  -2.8  100   -2.8  0     0     1014.4   NA       0.0000   9999     590   0     0    
2019/08/21  03:44:00  BASE  3.2046   227  3.81024  217  -2.8  100   -2.8  0     0     1014.4   NA       0.0000   9999     660   0     0    
2019/08/21  03:45:00  BASE  3.41628  228  3.99252  227  -2.8  100   -2.8  0     0     1014.4   NA       0.0000   9999     690   0     0    
2019/08/21  03:46:00  BASE  3.7044   231  4.59816  235  -2.8  100   -2.8  0     0     1014.4   NA       0.0000   9999     690   0     0    
2019/08/21  03:47:00  BASE  3.94548  233  4.59816  235  -2.8  100   -2.8  0     0     1014.4   NA       0.0000   9999     660   0     0    
2019/08/21  03:48:00  BASE  3.81612  229  4.59816  235  -2.8  100   -2.8  0     0     1014.4   NA       0.0000   9999     560   0     0    
2019/08/21  03:49:00  BASE  3.55152  225  4.59816  235  -2.9  100   -2.9  0     0     1014.4   NA       0.0000   9999     690   0     0    
2019/08/21  03:50:00  BASE  3.45156  222  4.59816  235  -2.9  100   -2.9  0     0     1014.4   NA       0.0000   9999     390   0     0    
2019/08/21  03:51:00  BASE  3.22224  219  4.59816  235  -2.9  100   -2.9  0     0     1014.4   NA       0.0000   9999     390   0     0    
2019/08/21  03:52:00  BASE  2.78124  225  4.59816  235  -2.9  100   -2.9  0     0     1014.4   NA       0.0000   9999     690   0     0    
2019/08/21  03:53:00  BASE  2.78712  230  4.59816  235  -2.9  100   -2.9  0     0     1014.4   NA       0.0000   9999     890   0     0    
2019/08/21  03:54:00  BASE  3.32808  230  4.59816  235  -2.9  100   -2.9  0     0     1014.4   NA       0.0000   9999     720   0     0    
2019/08/21  03:55:00  BASE  3.65736  227  4.59816  235  -2.9  100   -2.9  0     0     1014.4   NA       0.0000   9999     690   0     0    
2019/08/21  03:56:00  BASE  3.72792  225  4.41588  229  -2.9  100   -2.9  0     0     1014.4   NA       0.0000   9999     660   0     0    
2019/08/21  03:57:00  BASE  3.71028  223  4.35708  228  -2.9  100   -2.9  0     0     1014.4   NA       0.0000   9999     520   0     0    
2019/08/21  03:58:00  BASE  3.48684  220  4.35708  228  -2.9  100   -2.9  0     0     1014.4   NA       0.0000   9999     660   0     0    
2019/08/21  03:59:00  BASE  3.66912  216  4.65696  208  -2.9  100   -2.9  0     0     1014.3   NA       0.0000   9999     620   0     0    
2019/08/21  04:00:00  BASE  4.21596  212  5.1744   214  -2.9  100   -2.9  0     0     1014.3   NA       0.0000   9999     460   0     0    
2019/08/21  04:01:00  BASE  4.78632  207  5.47428  211  -2.9  100   -2.9  0     0     1014.2   NA       0.0000   9999     390   0     0    
2019/08/21  04:03:00  BASE  4.69812  206  5.47428  211  -2.9  100   -2.9  0     0     1014.2   NA       0.0000   UP       9999  460   0    
2019/08/21  04:04:00  BASE  4.13364  208  5.47428  211  -2.9  100   -2.9  0     0     1014.2   NA       0.0000   UP       9999  520   0    
2019/08/21  04:05:00  BASE  3.94548  208  5.47428  211  -2.9  100   -2.9  0     0     1014.3   NA       0.0000   UP       8000  360   0    
2019/08/21  04:06:00  BASE  3.56328  206  5.47428  211  -2.9  100   -2.9  0     0     1014.4   NA       0.0000   UP       8000  430   0    
2019/08/21  04:07:00  BASE  3.25752  206  5.47428  211  -2.9  100   -2.9  0     0     1014.4   NA       0.0000   UP       7000  360   0    
2019/08/21  04:08:00  BASE  3.50448  207  5.47428  211  -2.9  100   -2.9  0     0     1014.4   NA       0.0000   UP       BR    5000  330  
2019/08/21  04:09:00  BASE  3.42216  207  5.47428  211  -2.9  100   -2.9  0     0     1014.4   NA       0.0000   UP       BR    5000  300  
2019/08/21  04:10:00  BASE  3.00468  207  5.47428  211  -2.9  100   -2.9  0     0     1014.4   NA       0.0000   UP       BR    8000  660  
2019/08/21  04:11:00  BASE  2.76948  212  5.47428  211  -2.9  100   -2.9  0     0     1014.4   NA       0.0000   UP       BR    8000  620  
2019/08/21  04:12:00  BASE  2.48724  222  4.65696  202  -2.9  100   -2.9  0     0     1014.4   NA       0.0000   UP       BR    9999  690  
2019/08/21  04:13:00  BASE  2.32848  229  4.35708  208  -2.9  100   -2.9  0     0     1014.4   NA       0.0000   UP       BR    9999  790  
2019/08/21  04:14:00  BASE  2.19324  229  4.2042   202  -2.9  100   -2.9  0     0     1014.4   NA       0.0000   UP       BR    9999  850  
2019/08/21  04:15:00  BASE  2.08152  229  4.1454   208  -2.9  100   -2.9  0     0     1014.4   NA       0.0000   UP       BR    9999  360  
2019/08/21  04:16:00  BASE  1.78164  234  4.1454   208  -2.9  100   -2.9  0     0     1014.3   NA       0.0000   UP       BR    9999  1020 
2019/08/21  04:17:00  BASE  1.62876  237  4.1454   208  -2.9  100   -2.9  0     0     1014.2   NA       0.0000   UP       BR    9999  750  
2019/08/21  04:18:00  BASE  1.8816   232  3.41628  210  -2.9  100   -2.9  0     0     1014.2   NA       0.0000   UP       9999  820   0    
2019/08/21  04:19:00  BASE  1.764    228  3.26928  205  -2.9  100   -2.9  0     0     1014.2   NA       0.0000   9999     890   0     0    
2019/08/21  04:20:00  BASE  1.35828  225  3.087    207  -2.9  100   -2.9  0     0     1014.2   NA       0.0000   9999     850   0     0    
2019/08/21  04:21:00  BASE  1.15836  222  2.75184  231  -2.9  100   -2.9  0     0     1014.2   NA       0.0000   9999     850   0     0    
2019/08/21  04:22:00  BASE  1.21128  218  2.54016  232  -2.9  100   -2.9  0     0     1014.2   NA       0.0000   9999     590   0     0    
2019/08/21  04:23:00  BASE  1.39356  209  2.24028  227  -2.9  100   -2.9  0     0     1014.2   NA       0.0000   9999     360   1350  0    
2019/08/21  04:24:00  BASE  1.34064  208  2.24028  227  -2.9  100   -2.9  0     0     1014.2   NA       0.0000   9000     300   0     0    
2019/08/21  04:25:00  BASE  1.17012  210  2.1756   227  -2.9  100   -2.9  0     0     1014.2   NA       0.0000   UP       5000  300   0    
2019/08/21  04:26:00  BASE  0.95844  206  2.1756   227  -2.9  100   -2.9  0     0     1014.2   NA       0.0000   UP       5000  360   1350 
2019/08/21  04:27:00  BASE  0.92316  203  2.1756   227  -2.9  100   -2.9  0     0     1014.2   NA       0.0000   UP       9000  1150  0    
2019/08/21  04:28:00  BASE  0.98784  207  1.90512  224  -2.9  100   -2.9  0     0     1014.2   NA       0.0000   UP       BR    9000  1180 
2019/08/21  04:29:00  BASE  0.96432  213  1.72284  208  -2.9  100   -2.9  0     0     1014.2   NA       0.0000   UP       BR    9999  850  
2019/08/21  04:30:00  BASE  0.90552  212  1.72284  208  -2.9  100   -2.9  0     0     1014.2   NA       0.0000   UP       BR    9999  460  
2019/08/21  04:31:00  BASE  0.87612  210  1.72284  208  -2.9  100   -2.9  0     0     1014.2   NA       0.0000   UP       BR    9999  430  
2019/08/21  04:32:00  BASE  0.6174   210  1.72284  208  -2.9  100   -2.9  0     0     1014.2   NA       0.0000   UP       BR    9000  720  
2019/08/21  04:33:00  BASE  0.12348  211  1.48176  213  -2.9  100   -2.9  0     0     1014.2   NA       0.0000   UP       BR    9000  980  
2019/08/21  04:34:00  BASE  0        210  1.32888  198  -2.9  100   -2.9  0     0     1014.2   NA       0.0000   UP       BR    9000  850  
2019/08/21  04:35:00  BASE  0        192  1.29948  212  -2.9  100   -2.9  0     0     1014.2   NA       0.0000   UP       BR    9000  820  
2019/08/21  04:36:00  BASE  0.22344  176  1.54056  176  -2.9  100   -2.9  0     0     1014.2   NA       0.0000   UP       BR    9000  390  
2019/08/21  04:37:00  BASE  1.13484  193  2.1756   197  -2.9  100   -2.9  0     0     1014.2   NA       0.0000   BR       9000  200   0    
2019/08/21  04:38:00  BASE  1.79928  204  2.48136  207  -2.9  100   -2.9  0     0     1014.1   NA       0.0000   BR       6000  300   1410 
2019/08/21  04:39:00  BASE  1.77576  211  2.48136  207  -2.9  100   -2.9  0     0     1014.1   NA       0.0000   UP       BR    4800  260  
2019/08/21  04:40:00  BASE  1.85808  213  2.48136  207  -2.8  100   -2.8  0     0     1014.1   NA       0.0000   UP       BR    5000  300  
2019/08/21  04:41:00  BASE  1.68168  200  2.48136  207  -2.8  100   -2.8  0     0     1014.1   NA       0.0000   UP       BR    4400  300  
2019/08/21  04:42:00  BASE  1.71108  197  2.81064  210  -2.8  100   -2.8  0     0     1014.1   NA       0.0000   UP       BR    2700  0    
2019/08/21  04:43:00  BASE  2.06976  198  2.81064  210  -2.8  100   -2.8  0     0     1014.2   NA       0.0000   UP       BR    2800  0    
2019/08/21  04:44:00  BASE  2.09916  197  2.81064  210  -2.8  100   -2.8  0     0     1014.2   NA       0.0000   UP       BR    3200  660  
2019/08/21  04:45:00  BASE  2.05212  202  2.81064  210  -2.8  100   -2.8  0     0     1014.2   NA       0.0000   UP       BR    3200  490  
2019/08/21  04:46:00  BASE  1.911    213  2.81064  210  -2.8  100   -2.8  0     0     1014.2   NA       0.0000   UP       BR    3200  330  
2019/08/21  04:47:00  BASE  1.47588  215  2.81064  210  -2.8  100   -2.8  0     0     1014.2   NA       0.0000   UP       BR    3800  360  
2019/08/21  04:48:00  BASE  1.2054   213  2.81064  210  -2.8  100   -2.8  0     0     1014.2   NA       0.0000   UP       BR    6000  430  
2019/08/21  04:49:00  BASE  1.4112   210  2.81064  210  -2.8  100   -2.8  0     0     1014.2   NA       0.0000   UP       BR    6000  790  
2019/08/21  04:50:00  BASE  1.5288   208  2.81064  210  -2.8  100   -2.8  0     0     1014.2   NA       0.0000   UP       BR    6000  390  
2019/08/21  04:51:00  BASE  1.57584  209  2.81064  210  -2.8  100   -2.8  0     0     1014.2   NA       0.0000   UP       BR    6000  390  
2019/08/21  04:52:00  BASE  1.84632  205  2.51076  191  -2.8  100   -2.8  0     0     1014.2   NA       0.0000   UP       BR    6000  360  
2019/08/21  04:53:00  BASE  1.74048  208  2.1756   198  -2.7  100   -2.7  0     0     1014.2   NA       0.0000   UP       BR    6000  390  
2019/08/21  04:54:00  BASE  1.40532  216  2.1756   198  -2.8  100   -2.8  0     0     1014.2   NA       0.0000   UP       BR    6000  1150 
2019/08/21  04:55:00  BASE  1.40532  220  2.1756   198  -2.8  100   -2.8  0     0     1014.2   NA       0.0000   UP       BR    6000  1080 
2019/08/21  04:56:00  BASE  1.47588  226  2.1756   198  -2.8  100   -2.8  0     0     1014.2   NA       0.0000   UP       BR    7000  1080 
2019/08/21  04:57:00  BASE  1.323    233  2.1756   198  -2.8  100   -2.8  0     0     1014.2   NA       0.0000   UP       BR    9999  790  
2019/08/21  04:58:00  BASE  1.45236  233  2.1756   198  -2.8  100   -2.8  0     0     1014.2   NA       0.0000   BR       9999  1350  0    
2019/08/21  04:59:00  BASE  1.48764  232  2.1756   198  -2.8  100   -2.8  0     0     1014.2   NA       0.0000   BR       9999  1150  0    
2019/08/21  05:00:00  BASE  1.1466   236  2.1756   198  -2.8  100   -2.8  0     0     1014.2   NA       0.0000   BR       9999  1020  0    
2019/08/21  05:01:00  BASE  1.02312  232  2.1756   198  -2.8  100   -2.8  0     0     1014.2   NA       0.0000   BR       9999  1080  0    
2019/08/21  05:02:00  BASE  0.90552  229  2.1462   219  -2.8  100   -2.8  0     0     1014.2   NA       0.0000   BR       9999  980   0    
2019/08/21  05:03:00  BASE  0.9114   235  2.1462   219  -2.8  100   -2.8  0     0     1014.2   NA       0.0000   9999     390   0     0    
2019/08/21  05:04:00  BASE  1.21716  241  2.1462   219  -2.8  100   -2.8  0     0     1014.2   NA       0.0000   9999     330   0     0    
2019/08/21  05:05:00  BASE  1.42884  244  2.1462   219  -2.8  100   -2.8  0     0     1014.2   NA       0.0000   9000     260   1150  0    
2019/08/21  05:06:00  BASE  1.3524   247  2.1462   219  -2.8  100   -2.8  0     0     1014.2   NA       0.0000   UP       5000  330   0    
2019/08/21  05:07:00  BASE  1.323    253  2.1462   219  -2.8  100   -2.8  0     0     1014.2   NA       0.0000   UP       5000  1210  0    
2019/08/21  05:08:00  BASE  1.43472  256  1.72284  227  -2.8  100   -2.8  0     0     1014.2   NA       0.0000   UP       BR    7000  1250 
2019/08/21  05:09:00  BASE  1.56408  254  1.90512  262  -2.8  100   -2.8  0     0     1014.2   NA       0.0000   UP       BR    9999  1120 
2019/08/21  05:10:00  BASE  1.66992  255  1.93452  250  -2.8  100   -2.8  0     0     1014.2   NA       0.0000   UP       BR    9999  1150 
2019/08/21  05:11:00  BASE  1.49352  258  1.93452  250  -2.8  100   -2.8  0     0     1014.2   NA       0.0000   UP       BR    9999  390  
2019/08/21  05:12:00  BASE  1.39944  256  1.93452  250  -2.8  100   -2.8  0     0     1014.2   NA       0.0000   UP       BR    9999  1120 
2019/08/21  05:13:00  BASE  1.34652  255  1.93452  250  -2.8  100   -2.8  0     0     1014.2   NA       0.0000   UP       BR    9999  1180 
2019/08/21  05:14:00  BASE  1.0584   261  1.93452  250  -2.8  100   -2.8  0     0     1014.2   NA       0.0000   UP       BR    9999  1120 
2019/08/21  05:15:00  BASE  0.54096  271  1.93452  250  -2.8  100   -2.8  0     0     1014.2   NA       0.0000   9999     1310  0     0    
2019/08/21  05:16:00  BASE  0.0588   285  1.93452  250  -2.8  100   -2.8  0     0     1014.2   NA       0.0000   9999     1150  0     0    
2019/08/21  05:17:00  BASE  0        289  1.93452  250  -2.8  100   -2.8  0     0     1014.1   NA       0.0000   9999     1180  0     0    
2019/08/21  05:18:00  BASE  0        285  1.93452  250  -2.8  100   -2.8  0     0     1014.1   NA       0.0000   9999     1150  0     0    
2019/08/21  05:19:00  BASE  0        278  1.93452  250  -2.8  100   -2.8  0     0     1014.1   NA       0.0000   9999     1210  0     0    
2019/08/21  05:20:01  BASE  0        266  1.72284  253  -2.8  100   -2.8  0     0     1014.1   NA       0.0000   9999     1150  1610  0    
2019/08/21  05:21:00  BASE  0        257  1.72284  253  -2.8  100   -2.8  0     0     1014.1   NA       0.0000   9999     1120  0     0    
2019/08/21  05:22:00  BASE  0        250  1.35828  254  -2.8  100   -2.8  0     0     1014.1   NA       0.0000   9999     980   0     0    
2019/08/21  05:23:00  BASE  0        246  1.27008  252  -2.8  100   -2.8  0     0     1014.1   NA       0.0000   9999     590   0     0    
2019/08/21  05:24:00  BASE  0        247  0.78792  276  -2.8  100   -2.8  0     0     1014.0   NA       0.0000   9999     1020  0     0    
2019/08/21  05:25:00  BASE  0        253  0        M    -2.8  100   -2.8  0     0     1014.0   NA       0.0000   9999     1080  0     0    
2019/08/21  05:26:00  BASE  0        272  0        M    -2.8  100   -2.8  0     0     1014.0   NA       0.0000   9999     1120  0     0    
2019/08/21  05:27:00  BASE  0        289  0        M    -2.8  100   -2.8  0     0     1014.0   NA       0.0000   9999     1080  0     0    
2019/08/21  05:28:00  BASE  0        312  0        M    -2.8  100   -2.8  0     0     1014.1   NA       0.0000   9999     1050  0     0    
2019/08/21  05:29:00  BASE  0        342  0        M    -2.8  100   -2.8  0     0     1014.1   NA       0.0000   9999     820   0     0    
2019/08/21  05:30:00  BASE  0        347  0        M    -2.8  100   -2.8  0     0     1014.1   NA       0.0000   9999     660   0     0    
2019/08/21  05:31:00  BASE  0        344  0        M    -2.9  100   -2.9  0     0     1014.1   NA       0.0000   9999     390   0     0    
2019/08/21  05:32:00  BASE  0        360  0        M    -2.9  100   -2.9  0     0     1014.1   NA       0.0000   9999     390   0     0    
2019/08/21  05:33:00  BASE  0        12   0        M    -2.9  100   -2.9  0     0     1014.1   NA       0.0000   9999     390   0     0    
2019/08/21  05:34:00  BASE  0        6    0        M    -2.9  100   -2.9  0     0     1014.1   NA       0.0000   9999     360   1570  0    
2019/08/21  05:35:00  BASE  0        0    0        M    -2.9  100   -2.9  0     0     1014.1   NA       0.0000   UP       9999  360   0    
2019/08/21  05:36:00  BASE  0        356  0        M    -2.9  100   -2.9  0     0     1014.1   NA       0.0000   UP       9999  360   1670 
2019/08/21  05:37:00  BASE  0        352  0        M    -2.9  100   -2.9  0     0     1014.1   NA       0.0000   UP       9999  330   0    
2019/08/21  05:38:00  BASE  0        356  0        M    -3.0  100   -3.0  0     0     1014.1   NA       0.0000   UP       9999  300   0    
2019/08/21  05:39:00  BASE  0        7    0        M    -3.0  100   -3.0  0     0     1014.0   NA       0.0000   UP       7000  230   0    
2019/08/21  05:40:00  BASE  0        19   0        M    -2.9  100   -2.9  0     0     1014.0   NA       0.0000   UP       BR    4200  0    
2019/08/21  05:41:00  BASE  0        21   0        M    -3.0  100   -3.0  0     0     1014.0   NA       0.0000   UP       BR    3500  0    
2019/08/21  05:42:01  BASE  0        26   0        M    -3.0  100   -3.0  0     0     1014.0   NA       0.0000   -SN      BR    3600  0    
2019/08/21  05:43:01  BASE  0        39   0        M    -3.0  100   -3.0  0     0     1014.0   NA       0.0000   -SN      BR    4000  0    
2019/08/21  05:44:00  BASE  0        52   0        M    -3.0  100   -3.0  0     0     1014.0   NA       0.0000   -SN      BR    5000  0    
2019/08/21  05:45:00  BASE  0        68   0        M    -3.0  100   -3.0  0     0     1014.0   NA       0.0000   -SN      BR    5000  0    
2019/08/21  05:46:00  BASE  0        91   0        M    -3.0  100   -3.0  0     0     1014.0   NA       0.0000   -SN      BR    6000  0    
2019/08/21  05:47:00  BASE  0        108  0        M    -3.0  100   -3.0  0     0     1014.0   NA       0.0000   -SN      BR    7000  260  
2019/08/21  05:48:01  BASE  0        110  0        M    -3.0  100   -3.0  0     0     1014.0   NA       0.0000   -SN      BR    6000  260  
2019/08/21  05:49:00  BASE  0        98   0        M    -3.0  100   -3.0  0     0     1014.0   NA       0.0000   -SN      BR    6000  300  
2019/08/21  05:50:00  BASE  0        98   0        M    -3.0  100   -3.0  0     0     1014.1   NA       0.0000   -SN      BR    7000  300  
2019/08/21  05:51:00  BASE  0        114  0        M    -3.0  100   -3.0  0     0     1014.1   NA       0.0000   -SN      BR    9999  300  
2019/08/21  05:52:00  BASE  0        122  0        M    -3.0  100   -3.0  0     0     1014.1   NA       0.0000   -SN      BR    9999  260  
2019/08/21  05:53:00  BASE  0        120  0        M    -3.0  100   -3.0  0     0     1014.1   NA       0.0000   -SN      BR    9999  300  
2019/08/21  05:54:00  BASE  0        113  0        M    -3.0  100   -3.0  0     0     1014.1   NA       0.0000   -SN      BR    9999  390  
2019/08/21  05:55:00  BASE  0        119  0        M    -3.0  100   -3.0  0     0     1014.1   NA       0.0000   -SN      BR    9999  520  
2019/08/21  05:56:00  BASE  0        140  0        M    -3.0  100   -3.0  0     0     1014.1   NA       0.0000   -SN      BR    9999  560  
2019/08/21  05:57:00  BASE  0.63504  168  1.93452  182  -2.9  100   -2.9  0     0     1014.1   NA       0.0000   -SN      BR    9999  1020 
2019/08/21  05:58:00  BASE  1.06428  188  1.93452  182  -2.9  100   -2.9  0     0     1014.1   NA       0.0000   -SN      9999  1150  0    
2019/08/21  05:59:00  BASE  1.09368  187  1.93452  182  -2.9  100   -2.9  0     0     1014.1   NA       0.0000   -SN      9999  1150  0    
2019/08/21  06:00:00  BASE  1.53468  175  1.96392  174  -2.9  100   -2.9  0     0     1014.1   NA       0.0000   -SN      9999  1120  0    
2019/08/21  06:01:01  BASE  1.81104  169  2.38728  175  -2.9  100   -2.9  0     0     1014.1   NA       0.0000   -SN      9999  890   0    
2019/08/21  06:02:01  BASE  1.9698   170  2.38728  175  -3.0  100   -3.0  0     0     1014.1   NA       0.0000   -SN      9999  980   0    
2019/08/21  06:03:01  BASE  2.05212  170  2.38728  175  -3.0  100   -3.0  0     0     1014.0   NA       0.0000   -SN      9999  1080  0    
2019/08/21  06:04:01  BASE  2.0286   171  2.38728  175  -3.0  100   -3.0  0     0     1014.0   NA       0.0000   -SN      9999  1150  0    
2019/08/21  06:05:00  BASE  1.95804  167  2.38728  175  -3.0  100   -3.0  0     0     1014.0   NA       0.0000   9999     1280  0     0    
2019/08/21  06:06:00  BASE  1.91688  160  2.38728  175  -3.1  100   -3.1  0     0     1014.0   NA       0.0000   9999     1150  0     0    
2019/08/21  06:07:00  BASE  1.98156  158  2.38728  175  -3.1  100   -3.1  0     0     1014.0   NA       0.0000   9999     1120  0     0    
2019/08/21  06:08:00  BASE  1.7934   157  2.38728  175  -3.1  100   -3.1  0     0     1014.0   NA       0.0000   9999     1050  0     0    
2019/08/21  06:09:00  BASE  1.4406   150  2.38728  175  -3.1  100   -3.1  0     0     1014.0   NA       0.0000   9999     1020  0     0    
2019/08/21  06:10:00  BASE  1.42884  149  2.38728  175  -3.1  100   -3.1  0     0     1014.0   NA       0.0000   9999     1080  0     0    
2019/08/21  06:11:00  BASE  1.69932  167  2.1756   156  -3.1  100   -3.1  0     0     1014.0   NA       0.0000   9999     1080  0     0    
2019/08/21  06:12:00  BASE  1.92276  183  2.1756   156  -3.1  100   -3.1  0     0     1014.0   NA       0.0000   9999     1120  0     0    
2019/08/21  06:13:00  BASE  2.19912  192  2.75184  202  -3.1  100   -3.1  0     0     1013.9   NA       0.0000   9999     1080  0     0    
2019/08/21  06:14:00  BASE  2.61072  197  3.087    199  -3.2  100   -3.2  0     0     1013.9   NA       0.0000   9999     1020  0     0    
2019/08/21  06:15:00  BASE  2.85768  199  3.087    203  -3.2  100   -3.2  0     0     1013.9   NA       0.0000   9999     1150  0     0    
2019/08/21  06:16:00  BASE  2.75772  200  3.087    203  -3.2  100   -3.2  0     0     1013.8   NA       0.0000   9999     1080  0     0    
2019/08/21  06:17:00  BASE  2.51076  197  3.087    203  -3.2  100   -3.2  0     0     1013.8   NA       0.0000   9999     1020  0     0    
2019/08/21  06:18:00  BASE  2.56368  192  3.087    203  -3.2  100   -3.2  0     0     1013.8   NA       0.0000   9999     1180  0     0    
2019/08/21  06:19:00  BASE  2.72832  191  3.087    203  -3.2  100   -3.2  0     0     1013.8   NA       0.0000   9999     1310  0     0    
2019/08/21  06:20:00  BASE  2.646    188  3.29868  187  -3.2  100   -3.2  0     0     1013.8   NA       0.0000   9999     1250  0     0    
2019/08/21  06:21:00  BASE  2.64012  186  3.29868  187  -3.2  100   -3.2  0     0     1013.8   NA       0.0000   9999     1380  0     0    
2019/08/21  06:22:00  BASE  3.15756  188  3.96312  186  -3.2  100   -3.2  0     0     1013.8   NA       0.0000   9999     1280  0     0    
2019/08/21  06:23:00  BASE  3.77496  188  4.2042   190  -3.3  100   -3.3  0     0     1013.8   NA       0.0000   9999     1150  0     0    
2019/08/21  06:24:00  BASE  3.97488  189  4.2042   190  -3.3  100   -3.3  0     0     1013.8   NA       0.0000   9999     1150  0     0    
2019/08/21  06:25:00  BASE  3.81612  190  4.50996  193  -3.3  100   -3.3  0     0     1013.8   NA       0.0000   9999     1180  0     0    
2019/08/21  06:26:00  BASE  3.65736  191  4.50996  193  -3.3  100   -3.3  0     0     1013.8   NA       0.0000   9999     1120  1640  0    
2019/08/21  06:27:00  BASE  3.52212  188  4.50996  193  -3.3  100   -3.3  0     0     1013.8   NA       0.0000   9999     980   1440  0    
2019/08/21  06:28:00  BASE  3.28104  186  4.50996  193  -3.3  100   -3.3  0     0     1013.8   NA       0.0000   9999     1150  0     0    
2019/08/21  06:29:00  BASE  3.19872  186  4.50996  193  -3.2  100   -3.2  0     0     1013.8   NA       0.0000   9999     1350  0     0    
2019/08/21  06:30:00  BASE  3.27516  185  4.50996  193  -3.2  100   -3.2  0     0     1013.8   NA       0.0000   9999     430   1540  0    
2019/08/21  06:31:00  BASE  3.10464  184  4.50996  193  -3.2  100   -3.2  0     0     1013.8   NA       0.0000   9999     430   0     0    
2019/08/21  06:32:00  BASE  2.74596  185  4.50996  193  -3.2  100   -3.2  0     0     1013.8   NA       0.0000   9999     460   0     0    
2019/08/21  06:33:00  BASE  2.84592  186  4.50996  193  -3.2  100   -3.2  0     0     1013.8   NA       0.0000   9999     490   0     0    
2019/08/21  06:34:00  BASE  3.07524  185  4.50996  193  -3.2  100   -3.2  0     0     1013.8   NA       0.0000   9999     560   0     0    
2019/08/21  06:35:00  BASE  2.94588  185  3.93372  192  -3.2  100   -3.2  0     0     1013.8   NA       0.0000   9999     590   1080  0    
2019/08/21  06:36:00  BASE  2.62836  187  3.62796  184  -3.2  100   -3.2  0     0     1013.8   NA       0.0000   9999     660   0     0    
2019/08/21  06:37:00  BASE  2.56956  187  3.51036  185  -3.2  100   -3.2  0     0     1013.8   NA       0.0000   9999     820   1410  0    
2019/08/21  06:38:00  BASE  2.8518   182  3.51036  185  -3.2  100   -3.2  0     0     1013.8   NA       0.0000   9999     790   0     0    
2019/08/21  06:39:00  BASE  2.90472  180  3.51036  185  -3.2  100   -3.2  0     0     1013.8   NA       0.0000   9999     790   1350  0    
2019/08/21  06:40:00  BASE  2.66364  181  3.38688  186  -3.2  100   -3.2  0     0     1013.8   NA       0.0000   9999     620   0     0    
2019/08/21  06:41:00  BASE  2.5872   181  3.38688  186  -3.2  100   -3.2  0     0     1013.8   NA       0.0000   9999     460   0     0    
2019/08/21  06:42:00  BASE  2.7342   180  3.38688  186  -3.2  100   -3.2  0     0     1013.8   NA       0.0000   9999     490   0     0    
2019/08/21  06:43:00  BASE  2.74596  182  3.234    183  -3.2  100   -3.2  0     0     1013.8   NA       0.0000   9999     750   0     0    
2019/08/21  06:44:00  BASE  2.71068  191  3.234    183  -3.2  100   -3.2  0     0     1013.8   NA       0.0000   9999     790   0     0    
2019/08/21  06:45:00  BASE  2.80476  195  3.234    183  -3.2  100   -3.2  0     0     1013.8   NA       0.0000   9999     750   0     0    
2019/08/21  06:46:00  BASE  2.62248  196  3.234    183  -3.3  100   -3.3  0     0     1013.8   NA       0.0000   9999     820   0     0    
2019/08/21  06:47:00  BASE  2.25204  199  3.234    183  -3.3  100   -3.3  0     0     1013.9   NA       0.0000   9999     660   0     0    
2019/08/21  06:48:00  BASE  2.16384  203  3.234    183  -3.3  100   -3.3  0     0     1013.9   NA       0.0000   9999     950   0     0    
2019/08/21  06:49:00  BASE  2.15796  206  3.1458   171  -3.3  100   -3.3  0     0     1013.9   NA       0.0000   9999     950   0     0    
2019/08/21  06:50:00  BASE  2.03448  209  3.1458   171  -3.3  100   -3.3  0     0     1013.9   NA       0.0000   9999     850   0     0    
2019/08/21  06:51:00  BASE  2.07564  207  3.1458   171  -3.3  100   -3.3  0     0     1013.9   NA       0.0000   9999     890   0     0    
2019/08/21  06:52:00  BASE  2.22852  205  3.087    196  -3.3  100   -3.3  0     0     1013.9   NA       0.0000   9999     820   0     0    
2019/08/21  06:53:00  BASE  2.09916  214  3.087    196  -3.3  100   -3.3  0     0     1013.9   NA       0.0000   9999     790   0     0    
2019/08/21  06:54:00  BASE  1.9992   222  3.087    196  -3.3  100   -3.3  0     0     1013.9   NA       0.0000   9999     720   0     0    
2019/08/21  06:55:00  BASE  1.9992   218  2.69304  201  -3.3  100   -3.3  0     0     1013.9   NA       0.0000   9999     790   0     0    
2019/08/21  06:56:00  BASE  1.94628  211  2.54016  211  -3.3  100   -3.3  0     0     1014.0   NA       0.0000   9999     790   0     0    
2019/08/21  06:57:00  BASE  1.911    211  2.54016  211  -3.3  100   -3.3  0     0     1014.0   NA       0.0000   9999     720   0     0    
2019/08/21  06:58:00  BASE  1.69344  207  2.54016  211  -3.3  100   -3.3  0     0     1014.0   NA       0.0000   9999     720   0     0    
2019/08/21  06:59:01  BASE  1.38768  201  2.54016  211  -3.3  100   -3.3  0     0     1014.0   NA       0.0000   9999     890   0     0    
2019/08/21  07:00:01  BASE  1.19364  200  2.54016  211  -3.3  100   -3.3  0     0     1014.0   NA       0.0000   9999     790   0     0    
2019/08/21  07:01:01  BASE  1.07604  198  2.54016  211  -3.3  100   -3.3  0     0     1014.0   NA       0.0000   9999     720   0     0    
2019/08/21  07:02:01  BASE  0.94668  193  2.26968  223  -3.3  100   -3.3  0     0     1014.0   NA       0.0000   9999     660   0     0    
2019/08/21  07:03:01  BASE  0.80556  179  2.26968  223  -3.3  100   -3.3  0     0     1014.0   NA       0.0000   9999     750   0     0    
2019/08/21  07:04:01  BASE  0.71148  173  2.0874   212  -3.3  100   -3.3  0     0     1014.0   NA       0.0000   9999     690   0     0    
2019/08/21  07:05:01  BASE  0.37632  191  2.0874   212  -3.3  100   -3.3  0     0     1014.0   NA       0.0000   9999     750   0     0    
2019/08/21  07:06:01  BASE  0.0294   208  1.9992   212  -3.3  100   -3.3  0     0     1014.0   NA       0.0000   9999     820   1310  0    
2019/08/21  07:07:01  BASE  0        215  1.75224  210  -3.3  100   -3.3  0     0     1014.0   NA       0.0000   9999     920   0     0    
2019/08/21  07:08:00  BASE  0        220  1.45236  197  -3.3  100   -3.3  0     0     1014.0   NA       0.0000   9999     750   0     0    
2019/08/21  07:09:00  BASE  0        221  1.27008  201  -3.3  100   -3.3  0     0     1014.0   NA       0.0000   9999     790   0     0    
2019/08/21  07:10:00  BASE  0        221  1.24068  196  -3.3  100   -3.3  0     0     1014.0   NA       0.0000   9999     890   0     0    
2019/08/21  07:11:00  BASE  0        221  0.9996   186  -3.3  100   -3.3  0     0     1014.0   NA       0.0000   9999     850   0     0    
2019/08/21  07:12:00  BASE  0        230  0.84672  170  -3.3  100   -3.3  0     0     1014.0   NA       0.0000   9999     820   0     0    
2019/08/21  07:13:01  BASE  0        232  0.81732  176  -3.3  100   -3.3  0     0     1014.1   NA       0.0000   9999     790   0     0    
2019/08/21  07:14:01  BASE  0        219  0.63504  191  -3.3  100   -3.3  0     0     1014.1   NA       0.0000   9999     690   0     0    
2019/08/21  07:15:01  BASE  0        215  0        M    -3.3  100   -3.3  0     0     1014.1   NA       0.0000   9999     390   0     0    
2019/08/21  07:16:00  BASE  0        217  0        M    -3.3  100   -3.3  0     0     1014.1   NA       0.0000   9999     1050  1480  0    
2019/08/21  07:17:00  BASE  0        208  0        M    -3.3  100   -3.3  0     0     1014.0   NA       0.0000   UP       9999  1080  0    
2019/08/21  07:18:00  BASE  0        196  0        M    -3.3  100   -3.3  0     0     1014.0   NA       0.0000   UP       9999  950   1940 
2019/08/21  07:19:00  BASE  0        184  0        M    -3.3  100   -3.3  0     0     1014.0   NA       0.0000   UP       9999  820   0    
2019/08/21  07:20:00  BASE  0        169  0        M    -3.3  100   -3.3  0     0     1014.0   NA       0.0000   UP       9999  750   0    
2019/08/21  07:21:00  BASE  0        171  0        M    -3.3  100   -3.3  0     0     1014.0   NA       0.0000   UP       9999  750   0    
2019/08/21  07:22:00  BASE  0        182  0        M    -3.3  100   -3.3  0     0     1014.0   NA       0.0000   UP       9999  790   0    
2019/08/21  07:23:00  BASE  0        180  0        M    -3.3  100   -3.3  0     0     1014.0   NA       0.0000   UP       9999  690   0    
2019/08/21  07:24:01  BASE  0        178  0        M    -3.3  100   -3.3  0     0     1014.0   NA       0.0000   UP       9999  520   0    
2019/08/21  07:25:01  BASE  0        183  0        M    -3.3  100   -3.3  0     0     1014.0   NA       0.0000   UP       9999  330   0    
2019/08/21  07:26:01  BASE  0        177  0        M    -3.3  100   -3.3  0     0     1014.0   NA       0.0000   UP       9000  590   0    
2019/08/21  07:27:01  BASE  0        151  0        M    -3.3  100   -3.3  0     0     1014.0   NA       0.0000   UP       9999  490   0    
2019/08/21  07:28:01  BASE  0        133  0        M    -3.3  100   -3.3  0     0     1014.0   NA       0.0000   UP       9999  430   0    
2019/08/21  07:29:01  BASE  0        122  0        M    -3.3  100   -3.3  0     0     1014.0   NA       0.0000   UP       9999  390   0    
2019/08/21  07:30:01  BASE  0        112  0        M    -3.3  100   -3.3  0     0     1014.0   NA       0.0000   UP       9999  720   0    
2019/08/21  07:31:00  BASE  0        111  0        M    -3.4  100   -3.4  0     0     1014.0   NA       0.0000   UP       9999  690   0    
2019/08/21  07:32:00  BASE  0        112  0        M    -3.4  100   -3.4  0     0     1014.0   NA       0.0000   UP       9999  620   0    
2019/08/21  07:33:00  BASE  0        110  0        M    -3.4  100   -3.4  0     0     1014.0   NA       0.0000   UP       9999  490   0    
2019/08/21  07:34:01  BASE  0        117  0        M    -3.4  100   -3.4  0     0     1014.0   NA       0.0000   UP       9999  460   0    
2019/08/21  07:35:00  BASE  0        119  0        M    -3.4  100   -3.4  0     0     1014.0   NA       0.0000   UP       9999  460   0    
2019/08/21  07:36:00  BASE  0        115  0        M    -3.4  100   -3.4  0     0     1014.0   NA       0.0000   UP       9999  430   0    
2019/08/21  07:37:00  BASE  0        114  0        M    -3.4  100   -3.4  0     0     1014.0   NA       0.0000   UP       9999  390   0    
2019/08/21  07:38:00  BASE  0        109  0        M    -3.4  100   -3.4  0     0     1014.0   NA       0.0000   UP       9999  300   0    
2019/08/21  07:39:00  BASE  0        107  0        M    -3.4  100   -3.4  0     0     1014.0   NA       0.0000   UP       8000  330   0    
2019/08/21  07:40:00  BASE  0        105  0        M    -3.3  100   -3.3  0     0     1014.0   NA       0.0000   UP       7000  360   0    
2019/08/21  07:41:00  BASE  0        99   0        M    -3.4  100   -3.4  0     0     1014.0   NA       0.0000   UP       8000  390   0    
2019/08/21  07:42:00  BASE  0.43512  91   1.57584  86   -3.4  100   -3.4  0     0     1014.0   NA       0.0000   UP       BR    9000  390  
2019/08/21  07:43:00  BASE  1.176    87   1.57584  86   -3.4  100   -3.4  0     0     1014.0   NA       0.0000   UP       BR    9000  360  
2019/08/21  07:44:00  BASE  1.41708  88   1.57584  86   -3.4  100   -3.4  0     0     1014.0   NA       0.0000   UP       BR    9000  390  
2019/08/21  07:45:00  BASE  1.27596  88   1.57584  86   -3.4  100   -3.4  0     0     1014.0   NA       0.0000   UP       BR    9999  390  
2019/08/21  07:46:00  BASE  1.22304  88   1.57584  86   -3.4  100   -3.4  0     0     1014.0   NA       0.0000   UP       BR    9999  390  
2019/08/21  07:47:00  BASE  1.36416  85   1.57584  86   -3.4  100   -3.4  0     0     1014.0   NA       0.0000   UP       BR    9999  360  
2019/08/21  07:48:00  BASE  1.45824  80   1.57584  86   -3.4  100   -3.4  0     0     1014.0   NA       0.0000   UP       BR    9999  360  
2019/08/21  07:49:01  BASE  1.44648  76   1.57584  86   -3.4  100   -3.4  0     0     1014.0   NA       0.0000   UP       BR    9999  360  
2019/08/21  07:50:01  BASE  1.47588  74   1.63464  77   -3.4  100   -3.4  0     0     1014.0   NA       0.0000   UP       9999  330   0    
2019/08/21  07:51:01  BASE  1.54056  77   1.66404  82   -3.4  100   -3.4  0     0     1014.0   NA       0.0000   UP       9000  330   0    
2019/08/21  07:52:01  BASE  1.57584  79   1.69344  79   -3.5  100   -3.5  0     0     1014.0   NA       0.0000   UP       8000  360   0    
2019/08/21  07:53:01  BASE  1.47     75   1.69344  79   -3.5  100   -3.5  0     0     1014.0   NA       0.0000   UP       8000  330   0    
2019/08/21  07:54:00  BASE  1.45236  72   1.69344  79   -3.5  100   -3.5  0     0     1014.0   NA       0.0000   UP       BR    7000  300  
2019/08/21  07:55:00  BASE  1.45236  71   1.69344  79   -3.5  100   -3.5  0     0     1014.0   NA       0.0000   UP       BR    6000  260  
2019/08/21  07:56:00  BASE  1.2936   72   1.69344  79   -3.5  100   -3.5  0     0     1014.0   NA       0.0000   UP       BR    5000  200  
2019/08/21  07:57:00  BASE  1.14072  72   1.69344  79   -3.5  100   -3.5  0     0     1013.9   NA       0.0000   UP       BR    4900  200  
2019/08/21  07:58:00  BASE  1.0584   69   1.69344  79   -3.5  100   -3.5  0     0     1013.9   NA       0.0000   UP       BR    5000  260  
2019/08/21  07:59:00  BASE  1.07016  70   1.69344  79   -3.5  100   -3.5  0     0     1013.9   NA       0.0000   UP       BR    5000  300  
2019/08/21  08:00:00  BASE  1.13484  73   1.69344  79   -3.5  100   -3.5  0     0     1013.9   NA       0.0000   UP       BR    5000  300  
2019/08/21  08:01:01  BASE  1.24656  73   1.69344  79   -3.5  100   -3.5  0     0     1013.9   NA       0.0000   UP       BR    6000  330  
2019/08/21  08:02:01  BASE  1.28772  75   1.63464  70   -3.5  100   -3.5  0     0     1013.9   NA       0.0000   UP       BR    6000  300  
2019/08/21  08:03:01  BASE  1.34652  81   1.63464  70   -3.5  100   -3.5  0     0     1013.9   NA       0.0000   UP       BR    6000  260  
2019/08/21  08:04:01  BASE  1.37592  87   1.54056  69   -3.5  100   -3.5  0     0     1014.0   NA       0.0000   UP       BR    5000  300  
2019/08/21  08:05:01  BASE  1.42884  92   1.96392  93   -3.5  100   -3.5  0     0     1014.0   NA       0.0000   UP       BR    6000  300  
2019/08/21  08:06:01  BASE  1.68168  93   1.96392  94   -3.5  100   -3.5  0     0     1014.0   NA       0.0000   UP       BR    6000  330  
2019/08/21  08:07:01  BASE  1.79928  93   1.96392  94   -3.5  100   -3.5  0     0     1014.0   NA       0.0000   UP       BR    6000  330  
2019/08/21  08:08:01  BASE  1.88748  93   2.1462   92   -3.5  100   -3.5  0     0     1014.0   NA       0.0000   UP       BR    5000  300  
2019/08/21  08:09:01  BASE  2.04624  92   2.21088  88   -3.5  100   -3.5  0     0     1014.0   NA       0.0000   UP       BR    4800  300  
2019/08/21  08:10:00  BASE  2.05212  91   2.21088  88   -3.5  100   -3.5  0     0     1014.0   NA       0.0000   UP       BR    4500  330  
2019/08/21  08:11:00  BASE  1.99332  91   2.21088  88   -3.5  100   -3.5  0     0     1014.0   NA       0.0000   UP       BR    4500  330  
2019/08/21  08:12:01  BASE  1.95216  92   2.21088  88   -3.5  100   -3.5  0     0     1014.0   NA       0.0000   UP       BR    4500  330  
2019/08/21  08:13:00  BASE  1.92276  93   2.21088  88   -3.5  100   -3.5  0     0     1014.0   NA       0.0000   UP       BR    5000  390  
2019/08/21  08:14:00  BASE  1.617    95   2.21088  88   -3.5  100   -3.5  0     0     1014.1   NA       0.0000   UP       BR    8000  360  
2019/08/21  08:15:00  BASE  1.02312  98   2.21088  88   -3.5  100   -3.5  0     0     1014.1   NA       0.0000   UP       BR    9000  330  
2019/08/21  08:16:00  BASE  0.39396  104  2.21088  88   -3.5  100   -3.5  0     0     1014.1   NA       0.0000   UP       BR    9999  360  
2019/08/21  08:17:00  BASE  0.45864  122  2.21088  88   -3.5  100   -3.5  0     0     1014.1   NA       0.0000   UP       BR    9999  330  
2019/08/21  08:18:00  BASE  0.87024  128  2.21088  88   -3.5  100   -3.5  0     0     1014.1   NA       0.0000   UP       BR    9999  360  
2019/08/21  08:19:00  BASE  0.9408   120  2.1168   90   -3.5  100   -3.5  0     0     1014.0   NA       0.0000   UP       BR    9999  750  
2019/08/21  08:20:00  BASE  1.01724  113  2.0874   102  -3.4  100   -3.4  0     0     1014.0   NA       0.0000   BR       9999  390   0    
2019/08/21  08:21:00  BASE  1.07604  111  2.0874   102  -3.4  100   -3.4  0     0     1014.0   NA       0.0000   BR       9999  890   0    
2019/08/21  08:22:01  BASE  1.15836  112  2.0874   102  -3.4  100   -3.4  0     0     1014.0   NA       0.0000   BR       9999  790   0    
2019/08/21  08:23:01  BASE  1.28772  109  1.66404  89   -3.4  100   -3.4  0     0     1014.1   NA       0.0000   9999     590   0     0    
2019/08/21  08:24:01  BASE  1.34064  103  1.57584  98   -3.4  100   -3.4  0     0     1014.1   NA       0.0000   9999     1020  0     0    
2019/08/21  08:25:00  BASE  1.18188  95   1.72284  85   -3.4  100   -3.4  0     0     1014.1   NA       0.0000   9999     890   0     0    
2019/08/21  08:26:00  BASE  1.46412  96   2.1168   126  -3.5  100   -3.5  0     0     1014.1   NA       0.0000   9999     750   0     0    
2019/08/21  08:27:00  BASE  1.90512  92   2.1168   126  -3.5  100   -3.5  0     0     1014.0   NA       0.0000   9999     750   0     0    
2019/08/21  08:28:00  BASE  1.82868  90   2.1168   126  -3.5  100   -3.5  0     0     1014.0   NA       0.0000   9999     750   0     0    
2019/08/21  08:29:00  BASE  1.51704  104  2.1168   126  -3.5  100   -3.5  0     0     1014.0   NA       0.0000   9999     790   0     0    
2019/08/21  08:30:00  BASE  1.22304  112  2.1168   126  -3.5  100   -3.5  0     0     1014.0   NA       0.0000   9999     750   0     0    
2019/08/21  08:31:00  BASE  1.01724  106  2.1168   126  -3.5  100   -3.5  0     0     1014.0   NA       0.0000   9999     790   0     0    
2019/08/21  08:32:00  BASE  0.84084  92   2.1168   126  -3.4  100   -3.4  0     0     1013.9   NA       0.0000   9999     750   0     0    
2019/08/21  08:33:00  BASE  0.74676  78   2.1168   126  -3.4  100   -3.4  0     0     1013.9   NA       0.0000   9999     660   0     0    
2019/08/21  08:34:00  BASE  0.71736  72   2.1168   126  -3.4  100   -3.4  0     0     1013.9   NA       0.0000   9999     820   0     0    
2019/08/21  08:35:00  BASE  0.65268  81   2.1168   126  -3.4  100   -3.4  0     0     1013.9   NA       0.0000   9999     790   0     0    
2019/08/21  08:36:00  BASE  0.67032  91   2.0874   77   -3.4  100   -3.4  0     0     1013.9   NA       0.0000   9999     820   0     0    
2019/08/21  08:37:00  BASE  0.88788  97   1.9992   89   -3.4  100   -3.4  0     0     1013.9   NA       0.0000   9999     560   0     0    
2019/08/21  08:38:00  BASE  1.16424  99   1.57584  104  -3.4  100   -3.4  0     0     1013.9   NA       0.0000   9999     620   0     0    
2019/08/21  08:39:00  BASE  0.9702   98   1.42296  94   -3.4  100   -3.4  0     0     1013.9   NA       0.0000   9999     520   0     0    
2019/08/21  08:40:00  BASE  0.68796  102  1.42296  94   -3.4  100   -3.4  0     0     1013.9   NA       0.0000   9999     430   0     0    
2019/08/21  08:41:01  BASE  0.96432  111  1.48176  113  -3.4  100   -3.4  0     0     1013.9   NA       0.0000   9999     360   0     0    
2019/08/21  08:42:01  BASE  1.18776  116  1.48176  113  -3.5  100   -3.5  0     0     1013.9   NA       0.0000   8000     260   0     0    
2019/08/21  08:43:01  BASE  1.07016  120  1.48176  113  -3.4  100   -3.4  0     0     1013.9   NA       0.0000   -SN      6000  0     0    
2019/08/21  08:44:01  BASE  0.94668  121  1.48176  138  -3.4  100   -3.4  0     0     1013.9   NA       0.0000   -SN      BR    4300  0    
2019/08/21  08:45:01  BASE  0.4704   143  1.48176  138  -3.4  100   -3.4  0     0     1013.9   NA       0.0000   -SN      BR    4400  200  
2019/08/21  08:46:01  BASE  0        176  1.48176  138  -3.4  100   -3.4  0     0     1014.0   NA       0.0000   -SN      BR    4600  200  
2019/08/21  08:47:01  BASE  0        179  1.48176  138  -3.4  100   -3.4  0     0     1014.0   NA       0.0000   -SN      BR    3900  0    
2019/08/21  08:48:01  BASE  0        182  1.48176  138  -3.4  100   -3.4  0     0     1014.0   NA       0.0000   -SN      BR    3100  0    
2019/08/21  08:49:01  BASE  0        194  1.48176  138  -3.4  100   -3.4  0     0     1014.0   NA       0.0000   -SN      BR    2900  0    
2019/08/21  08:50:01  BASE  0.59388  193  2.63424  160  -3.5  100   -3.5  0     0     1014.0   NA       0.0000   -SN      BR    2600  0    
2019/08/21  08:51:01  BASE  2.05212  188  3.29868  193  -3.5  100   -3.5  0     0     1014.0   NA       0.0000   -SN      BR    2400  0    
2019/08/21  08:52:00  BASE  3.04584  188  3.51036  190  -3.5  100   -3.5  0     0     1014.0   NA       0.0000   -SN      BR    3200  0    
2019/08/21  08:53:01  BASE  3.37512  195  4.2042   199  -3.5  100   -3.5  0     0     1014.0   NA       0.0000   -SN      BR    6000  360  
2019/08/21  08:54:00  BASE  3.50448  204  4.2042   199  -3.6  100   -3.6  0     0     1014.1   NA       0.0000   -SN      BR    9999  390  
2019/08/21  08:55:01  BASE  3.16932  204  4.2042   199  -3.6  100   -3.6  0     0     1014.1   NA       0.0000   -SN      BR    9999  360  
2019/08/21  08:56:01  BASE  2.8518   205  4.2042   199  -3.6  100   -3.6  0     0     1014.1   NA       0.0000   -SN      BR    9999  360  
2019/08/21  08:57:01  BASE  2.54016  205  4.2042   199  -3.6  100   -3.6  0     0     1014.1   NA       0.0000   -SN      BR    9999  360  
2019/08/21  08:58:00  BASE  2.16384  199  4.2042   199  -3.6  100   -3.6  0     0     1014.1   NA       0.0000   -SN      BR    9999  390  
2019/08/21  08:59:00  BASE  2.28144  196  4.2042   199  -3.6  100   -3.6  0     0     1014.1   NA       0.0000   -SN      BR    9999  520  
2019/08/21  09:00:00  BASE  2.87532  199  4.32768  210  -3.6  100   -3.6  0     0     1014.1   NA       0.0000   -SN      BR    9999  460  
2019/08/21  09:01:00  BASE  3.71028  204  4.32768  210  -3.7  100   -3.7  0     0     1014.1   NA       0.0000   -SN      BR    9999  430  
2019/08/21  09:02:00  BASE  4.03956  206  4.32768  210  -3.7  100   -3.7  0     0     1014.2   NA       0.0000   -SN      9999  430   0    
2019/08/21  09:03:00  BASE  3.72792  204  4.32768  210  -3.7  100   -3.7  0     0     1014.2   NA       0.0000   -SN      9999  490   0    
2019/08/21  09:04:00  BASE  3.51036  204  4.32768  210  -3.7  100   -3.7  0     0     1014.2   NA       0.0000   -SN      9999  560   0    
2019/08/21  09:05:00  BASE  3.39276  207  4.32768  210  -3.7  100   -3.7  0     0     1014.2   NA       0.0000   -SN      9999  660   0    
2019/08/21  09:06:00  BASE  3.39276  209  4.32768  210  -3.7  100   -3.7  0     0     1014.2   NA       0.0000   -SN      9999  490   0    
2019/08/21  09:07:00  BASE  3.29868  210  4.32768  210  -3.7  100   -3.7  0     0     1014.2   NA       0.0000   -SN      9999  520   0    
2019/08/21  09:08:00  BASE  3.13992  204  4.32768  210  -3.7  100   -3.7  0     0     1014.2   NA       0.0000   -SN      9999  590   0    
2019/08/21  09:09:00  BASE  3.22812  199  4.32768  210  -3.7  100   -3.7  0     0     1014.2   NA       0.0000   9999     620   0     0    
2019/08/21  09:10:00  BASE  3.29868  197  4.32768  210  -3.7  100   -3.7  0     0     1014.2   NA       0.0000   9999     590   0     0    
2019/08/21  09:11:00  BASE  3.1458   193  4.2336   204  -3.7  100   -3.7  0     0     1014.2   NA       0.0000   9999     560   0     0    
2019/08/21  09:12:00  BASE  3.12816  188  4.08072  210  -3.7  100   -3.7  0     0     1014.2   NA       0.0000   9999     590   0     0    
2019/08/21  09:13:00  BASE  3.19872  190  3.75144  192  -3.7  100   -3.7  0     0     1014.2   NA       0.0000   9999     690   0     0    
2019/08/21  09:14:00  BASE  3.19284  195  3.75144  192  -3.7  100   -3.7  0     0     1014.2   NA       0.0000   9999     720   0     0    
2019/08/21  09:15:00  BASE  3.22224  195  3.75144  192  -3.7  100   -3.7  0     0     1014.2   NA       0.0000   9999     660   0     0    
2019/08/21  09:16:00  BASE  3.26928  195  3.93372  203  -3.7  100   -3.7  0     0     1014.1   NA       0.0000   9999     590   0     0    
2019/08/21  09:17:00  BASE  3.3222   197  3.93372  203  -3.7  100   -3.7  0     0     1014.2   NA       0.0000   9999     660   0     0    
2019/08/21  09:18:00  BASE  3.16932  196  3.93372  203  -3.7  100   -3.7  0     0     1014.2   NA       0.0000   9999     750   0     0    
2019/08/21  09:19:00  BASE  2.81064  195  3.93372  203  -3.7  100   -3.7  0     0     1014.2   NA       0.0000   9999     750   0     0    
2019/08/21  09:20:01  BASE  2.66952  197  3.93372  203  -3.7  100   -3.7  0     0     1014.2   NA       0.0000   9999     690   0     0    
2019/08/21  09:21:01  BASE  2.78124  202  3.93372  203  -3.8  100   -3.8  0     0     1014.2   NA       0.0000   9999     660   0     0    
2019/08/21  09:22:01  BASE  2.77536  209  3.93372  203  -3.8  100   -3.8  0     0     1014.2   NA       0.0000   9999     460   0     0    
2019/08/21  09:23:01  BASE  2.71068  208  3.93372  203  -3.8  100   -3.8  0     0     1014.2   NA       0.0000   9999     590   0     0    
2019/08/21  09:24:01  BASE  2.71068  204  3.93372  203  -3.8  100   -3.8  0     0     1014.2   NA       0.0000   9999     720   0     0    
2019/08/21  09:25:01  BASE  2.59896  202  3.93372  203  -3.8  100   -3.8  0     0     1014.2   NA       0.0000   9999     750   0     0    
2019/08/21  09:26:01  BASE  2.35788  202  3.93372  203  -3.8  100   -3.8  0     0     1014.2   NA       0.0000   9999     490   0     0    
2019/08/21  09:27:01  BASE  2.18736  204  3.48096  197  -3.8  100   -3.8  0     0     1014.2   NA       0.0000   9999     560   0     0    
2019/08/21  09:28:01  BASE  2.08152  201  3.234    214  -3.8  100   -3.8  0     0     1014.2   NA       0.0000   9999     590   1080  0    
2019/08/21  09:29:01  BASE  1.911    191  3.234    214  -3.8  100   -3.8  0     0     1014.2   NA       0.0000   9999     390   0     0    
2019/08/21  09:30:00  BASE  1.77576  189  3.234    214  -3.8  100   -3.8  0     0     1014.2   NA       0.0000   9999     390   0     0    
2019/08/21  09:31:00  BASE  1.74048  195  3.087    214  -3.8  100   -3.8  0     0     1014.2   NA       0.0000   9999     620   0     0    
2019/08/21  09:32:00  BASE  2.01096  199  3.02232  204  -3.8  100   -3.8  0     0     1014.2   NA       0.0000   9999     490   0     0    
2019/08/21  09:33:00  BASE  2.21676  199  2.93412  202  -3.8  100   -3.8  0     0     1014.2   NA       0.0000   9999     520   0     0    
2019/08/21  09:34:00  BASE  2.13444  195  2.75184  202  -3.8  100   -3.8  0     0     1014.2   NA       0.0000   9999     560   0     0    
2019/08/21  09:35:00  BASE  2.0874   195  2.59896  196  -3.7  100   -3.7  0     0     1014.2   NA       0.0000   9999     460   0     0    
2019/08/21  09:36:00  BASE  2.25204  197  2.75184  196  -3.7  100   -3.7  0     0     1014.2   NA       0.0000   9999     330   0     0    
2019/08/21  09:37:00  BASE  2.63424  197  2.96352  198  -3.7  100   -3.7  0     0     1014.2   NA       0.0000   -SN      6000  260   0    
2019/08/21  09:38:00  BASE  2.77536  197  2.96352  198  -3.7  100   -3.7  0     0     1014.2   NA       0.0000   -SN      5000  230   0    
2019/08/21  09:39:00  BASE  2.72244  195  2.96352  198  -3.7  100   -3.7  0     0     1014.2   NA       0.0000   -SN      8000  330   0    
2019/08/21  09:40:00  BASE  2.50488  192  2.96352  198  -3.8  100   -3.8  0     0     1014.2   NA       0.0000   -SN      BR    9000  360  
2019/08/21  09:41:00  BASE  2.18148  194  2.96352  198  -3.8  100   -3.8  0     0     1014.2   NA       0.0000   -SN      BR    9000  330  
2019/08/21  09:42:00  BASE  2.04036  198  2.96352  198  -3.8  100   -3.8  0     0     1014.2   NA       0.0000   -SN      BR    9999  360  
2019/08/21  09:43:00  BASE  2.01684  201  2.96352  198  -3.8  100   -3.8  0     0     1014.2   NA       0.0000   -SN      BR    9999  360  
2019/08/21  09:44:00  BASE  1.97568  202  2.96352  198  -3.8  100   -3.8  0     0     1014.2   NA       0.0000   -SN      BR    9999  390  
2019/08/21  09:45:00  BASE  1.9404   201  2.96352  198  -3.8  100   -3.8  0     0     1014.2   NA       0.0000   -SN      BR    9999  390  
2019/08/21  09:46:00  BASE  1.89336  200  2.96352  198  -3.8  100   -3.8  0     0     1014.2   NA       0.0000   -SN      BR    9999  360  
2019/08/21  09:47:00  BASE  1.86396  207  2.90472  195  -3.8  100   -3.8  0     0     1014.2   NA       0.0000   -SN      9999  560   0    
2019/08/21  09:48:00  BASE  1.99332  211  2.87532  196  -3.8  100   -3.8  0     0     1014.2   NA       0.0000   -SN      9999  620   0    
2019/08/21  09:49:00  BASE  2.04036  209  2.56956  189  -3.8  100   -3.8  0     0     1014.2   NA       0.0000   -SN      9999  660   0    
2019/08/21  09:50:00  BASE  1.91688  204  2.1756   209  -3.8  100   -3.8  0     0     1014.2   NA       0.0000   -SN      9999  750   0    
2019/08/21  09:51:00  BASE  1.75224  200  2.1756   209  -3.8  100   -3.8  0     0     1014.2   NA       0.0000   9999     790   0     0    
2019/08/21  09:52:00  BASE  1.68168  201  2.1756   209  -3.8  100   -3.8  0     0     1014.2   NA       0.0000   9999     490   0     0    
2019/08/21  09:53:00  BASE  1.77576  205  2.1756   209  -3.8  100   -3.8  0     0     1014.2   NA       0.0000   9999     490   0     0    
2019/08/21  09:54:00  BASE  1.71696  208  2.1756   209  -3.8  100   -3.8  0     0     1014.2   NA       0.0000   9999     460   0     0    
2019/08/21  09:55:00  BASE  1.68756  205  2.1756   209  -3.8  100   -3.8  0     0     1014.2   NA       0.0000   9999     330   0     0    
2019/08/21  09:56:00  BASE  1.84632  194  2.1756   209  -3.8  100   -3.8  0     0     1014.2   NA       0.0000   9999     360   0     0    
2019/08/21  09:57:00  BASE  1.77576  183  2.1756   209  -3.8  100   -3.8  0     0     1014.2   NA       0.0000   9999     330   0     0    
2019/08/21  09:58:01  BASE  1.81104  183  2.56956  175  -3.9  100   -3.9  0     0     1014.2   NA       0.0000   9999     300   0     0    
2019/08/21  09:59:01  BASE  2.32848  183  3.087    179  -3.9  100   -3.9  0     0     1014.2   NA       0.0000   6000     200   0     0    
2019/08/21  10:00:01  BASE  2.57544  184  3.087    179  -3.9  100   -3.9  0     0     1014.2   NA       0.0000   4400     0     0     0    
2019/08/21  10:01:01  BASE  2.42256  189  3.087    179  -3.9  100   -3.9  0     0     1014.2   NA       0.0000   -SN      BR    4900  260  
2019/08/21  10:02:01  BASE  2.54604  190  3.087    179  -3.9  100   -3.9  0     0     1014.2   NA       0.0000   -SN      BR    6000  300  
2019/08/21  10:03:00  BASE  2.71656  187  3.087    179  -3.9  100   -3.9  0     0     1014.2   NA       0.0000   -SN      BR    7000  330  
2019/08/21  10:04:00  BASE  2.71656  183  3.087    179  -3.9  100   -3.9  0     0     1014.2   NA       0.0000   -SN      BR    8000  330  
2019/08/21  10:05:00  BASE  2.646    180  3.087    179  -4.0  100   -4.0  0     0     1014.2   NA       0.0000   -SN      BR    9999  360  
2019/08/21  10:06:00  BASE  2.39316  181  3.087    179  -4.0  100   -4.0  0     0     1014.2   NA       0.0000   -SN      BR    9999  890  
2019/08/21  10:07:00  BASE  2.22264  183  3.087    179  -4.0  100   -4.0  0     0     1014.2   NA       0.0000   -SN      BR    9999  820  
2019/08/21  10:08:00  BASE  2.22852  185  3.087    179  -4.0  100   -4.0  0     0     1014.2   NA       0.0000   -SN      BR    9999  360  
2019/08/21  10:09:00  BASE  2.2344   186  2.90472  173  -4.0  100   -4.0  0     0     1014.2   NA       0.0000   -SN      BR    9999  300  
2019/08/21  10:10:00  BASE  2.15796  187  2.87532  191  -4.0  100   -4.0  0     0     1014.2   NA       0.0000   -SN      BR    9999  260  
2019/08/21  10:11:00  BASE  1.92864  188  2.87532  191  -4.1  100   -4.1  0     0     1014.2   NA       0.0000   -SN      9999  260   750  
2019/08/21  10:12:00  BASE  1.90512  187  2.84592  187  -4.1  100   -4.1  0     0     1014.2   NA       0.0000   -SN      9999  260   850  
2019/08/21  10:13:00  BASE  2.05212  184  2.81064  180  -4.1  100   -4.1  0     0     1014.2   NA       0.0000   9999     260   690   0    
2019/08/21  10:14:00  BASE  2.01096  183  2.69304  182  -4.1  100   -4.1  0     0     1014.2   NA       0.0000   9999     590   0     0    
2019/08/21  10:15:00  BASE  1.9404   184  2.66364  185  -4.1  100   -4.1  0     0     1014.2   NA       0.0000   9999     260   720   0    
2019/08/21  10:16:00  BASE  1.911    184  2.66364  185  -4.1  100   -4.1  0     0     1014.2   NA       0.0000   9999     230   890   0    
2019/08/21  10:17:00  BASE  1.78752  185  2.66364  185  -4.1  100   -4.1  0     0     1014.2   NA       0.0000   9999     300   0     0    
2019/08/21  10:18:00  BASE  1.61112  186  2.48136  188  -4.1  100   -4.1  0     0     1014.2   NA       0.0000   9999     430   0     0    
2019/08/21  10:19:00  BASE  1.60524  183  2.35788  187  -4.1  100   -4.1  0     0     1014.2   NA       0.0000   9999     260   0     0    
2019/08/21  10:20:00  BASE  1.55232  180  2.1462   185  -4.1  100   -4.1  0     0     1014.2   NA       0.0000   9999     330   0     0    
2019/08/21  10:21:00  BASE  1.3818   177  2.1462   185  -4.1  100   -4.1  0     0     1014.2   NA       0.0000   9999     330   0     0    
2019/08/21  10:22:00  BASE  1.34652  177  2.1462   185  -4.1  100   -4.1  0     0     1014.2   NA       0.0000   9999     300   0     0    
2019/08/21  10:23:00  BASE  1.21128  178  2.0874   189  -4.1  100   -4.1  0     0     1014.2   NA       0.0000   9999     330   0     0    
2019/08/21  10:24:00  BASE  0.89376  173  2.0286   184  -4.1  100   -4.1  0     0     1014.2   NA       0.0000   9999     260   0     0    
2019/08/21  10:25:00  BASE  0.81144  161  2.0286   184  -4.1  100   -4.1  0     0     1014.2   NA       0.0000   9999     360   0     0    
2019/08/21  10:26:00  BASE  0.94668  150  1.87572  181  -4.1  100   -4.1  0     0     1014.2   NA       0.0000   9999     360   0     0    
2019/08/21  10:27:00  BASE  1.0584   139  1.87572  181  -4.1  100   -4.1  0     0     1014.2   NA       0.0000   9999     360   0     0    
2019/08/21  10:28:00  BASE  1.176    131  1.87572  181  -4.1  100   -4.1  0     0     1014.2   NA       0.0000   9999     330   0     0    
2019/08/21  10:29:00  BASE  1.19952  136  1.60524  183  -4.2  100   -4.2  0     0     1014.2   NA       0.0000   9999     430   0     0    
2019/08/21  10:30:00  BASE  1.12308  137  1.51116  178  -4.2  100   -4.2  0     0     1014.2   NA       0.0000   9999     430   0     0    
2019/08/21  10:31:00  BASE  1.13484  135  1.51116  178  -4.2  100   -4.2  0     0     1014.2   NA       0.0000   9999     460   0     0    
2019/08/21  10:32:00  BASE  1.18188  134  1.35828  134  -4.2  100   -4.2  0     0     1014.2   NA       0.0000   9999     390   0     0    
2019/08/21  10:33:00  BASE  1.2348   135  1.51116  138  -4.2  100   -4.2  0     0     1014.2   NA       0.0000   9999     360   0     0    
2019/08/21  10:34:00  BASE  1.24656  138  1.51116  138  -4.2  100   -4.2  0     0     1014.2   NA       0.0000   9000     330   0     0    
2019/08/21  10:35:00  BASE  1.38768  149  1.69344  161  -4.2  100   -4.2  0     0     1014.2   NA       0.0000   7000     330   0     0    
2019/08/21  10:36:00  BASE  1.50528  158  1.69344  161  -4.2  100   -4.2  0     0     1014.2   NA       0.0000   9000     260   0     0    
2019/08/21  10:37:00  BASE  1.25244  163  1.69344  161  -4.3  100   -4.3  0     0     1014.2   NA       0.0000   9999     260   0     0    
2019/08/21  10:38:00  BASE  0.92904  169  1.69344  161  -4.3  100   -4.3  0     0     1014.2   NA       0.0000   9999     330   0     0    
2019/08/21  10:39:00  BASE  0.79968  173  1.69344  161  -4.3  100   -4.3  0     0     1014.2   NA       0.0000   BR       9999  330   0    
2019/08/21  10:40:00  BASE  0.84084  174  1.69344  161  -4.3  100   -4.3  0     0     1014.2   NA       0.0000   BR       9999  330   0    
2019/08/21  10:41:00  BASE  0.9996   165  1.69344  161  -4.3  100   -4.3  0     0     1014.2   NA       0.0000   BR       9999  360   0    
2019/08/21  10:42:00  BASE  1.22892  162  1.69344  161  -4.3  100   -4.3  0     0     1014.2   NA       0.0000   9999     330   0     0    
2019/08/21  10:43:00  BASE  1.25244  167  1.69344  161  -4.3  100   -4.3  0     0     1014.2   NA       0.0000   9999     330   0     0    
2019/08/21  10:44:01  BASE  1.09368  165  1.69344  161  -4.3  100   -4.3  0     0     1014.2   NA       0.0000   9999     360   0     0    
2019/08/21  10:45:00  BASE  0.87024  162  1.57584  159  -4.3  100   -4.3  0     0     1014.2   NA       0.0000   9999     330   0     0    
2019/08/21  10:46:00  BASE  0.92316  150  1.48176  170  -4.3  100   -4.3  0     0     1014.2   NA       0.0000   9000     330   0     0    
2019/08/21  10:47:00  BASE  0.98784  143  1.48176  170  -4.3  100   -4.3  0     0     1014.2   NA       0.0000   8000     300   0     0    
2019/08/21  10:48:00  BASE  0.72324  147  1.48176  170  -4.3  100   -4.3  0     0     1014.2   NA       0.0000   7000     300   0     0    
2019/08/21  10:49:00  BASE  0.51744  154  1.48176  170  -4.3  100   -4.3  0     0     1014.2   NA       0.0000   BR       6000  300   0    
2019/08/21  10:50:00  BASE  0.52332  162  1.48176  170  -4.3  100   -4.3  0     0     1014.2   NA       0.0000   BR       7000  330   0    
2019/08/21  10:51:00  BASE  0.6174   163  1.48176  170  -4.3  100   -4.3  0     0     1014.2   NA       0.0000   BR       7000  330   0    
2019/08/21  10:52:00  BASE  0.74088  163  1.29948  163  -4.3  100   -4.3  0     0     1014.2   NA       0.0000   BR       8000  360   0    
2019/08/21  10:53:00  BASE  0.882    168  1.18188  143  -4.3  100   -4.3  0     0     1014.1   NA       0.0000   BR       9000  300   0    
2019/08/21  10:54:00  BASE  1.08192  169  1.27008  170  -4.3  100   -4.3  0     0     1014.1   NA       0.0000   BR       8000  260   0    
2019/08/21  10:55:00  BASE  1.19364  166  1.27008  170  -4.3  100   -4.3  0     0     1014.2   NA       0.0000   BR       7000  300   0    
2019/08/21  10:56:00  BASE  1.07604  155  1.27008  170  -4.3  100   -4.3  0     0     1014.2   NA       0.0000   BR       7000  260   0    
2019/08/21  10:57:00  BASE  0.71736  141  1.27008  170  -4.3  100   -4.3  0     0     1014.2   NA       0.0000   BR       6000  260   0    
2019/08/21  10:58:00  BASE  0.27636  130  1.27008  170  -4.3  100   -4.3  0     0     1014.2   NA       0.0000   BR       6000  300   0    
2019/08/21  10:59:00  BASE  0.02352  130  1.27008  170  -4.3  100   -4.3  0     0     1014.2   NA       0.0000   BR       7000  260   0    
2019/08/21  11:00:00  BASE  0        139  1.27008  170  -4.3  100   -4.3  0     0     1014.2   NA       0.0000   BR       8000  360   0    
2019/08/21  11:01:00  BASE  0        142  1.27008  170  -4.3  100   -4.3  0     0     1014.2   NA       0.0000   BR       8000  360   850  
2019/08/21  11:02:00  BASE  0        133  1.27008  170  -4.3  100   -4.3  0     0     1014.2   NA       0.0000   BR       9999  750   0    
2019/08/21  11:03:00  BASE  0        119  1.27008  170  -4.3  100   -4.3  0     0     1014.2   NA       0.0000   BR       9999  690   0    
2019/08/21  11:04:00  BASE  0        107  1.24068  163  -4.4  100   -4.4  0     0     1014.2   NA       0.0000   BR       9999  560   0    
2019/08/21  11:05:00  BASE  0        94   1.21128  157  -4.4  100   -4.4  0     0     1014.2   NA       0.0000   BR       9999  460   0    
2019/08/21  11:06:00  BASE  0        92   0.81732  134  -4.4  100   -4.4  1     0     1014.1   NA       0.0000   BR       9999  490   0    
2019/08/21  11:07:00  BASE  0        102  0.60564  126  -4.4  100   -4.4  1     0     1014.1   NA       0.0000   BR       9999  460   0    
2019/08/21  11:08:00  BASE  0        111  0        M    -4.4  100   -4.4  1     0     1014.1   NA       0.0000   9999     390   0     0    
2019/08/21  11:09:00  BASE  0.3234   116  1.57584  117  -4.4  100   -4.4  1     0     1014.1   NA       0.0000   9999     390   0     0    
2019/08/21  11:10:00  BASE  1.1172   119  1.75224  126  -4.4  100   -4.4  1     0     1014.1   NA       0.0000   8000     390   0     0    
2019/08/21  11:11:00  BASE  1.66404  124  1.90512  131  -4.4  100   -4.4  1     0     1014.1   NA       0.0000   5000     330   0     0    
2019/08/21  11:12:00  BASE  1.5876   128  1.90512  131  -4.4  100   -4.4  1     0     1014.1   NA       0.0000   BR       4600  330   0    
2019/08/21  11:13:00  BASE  1.32888  126  1.90512  131  -4.4  100   -4.4  1     0     1014.1   NA       0.0000   BR       4200  330   0    
2019/08/21  11:14:00  BASE  1.19364  121  1.90512  131  -4.4  100   -4.4  1     0     1014.1   NA       0.0000   BR       4400  330   0    
2019/08/21  11:15:00  BASE  1.07604  115  1.90512  131  -4.4  100   -4.4  1     0     1014.1   NA       0.0000   BR       5000  300   0    
2019/08/21  11:16:00  BASE  0.95844  110  1.90512  131  -4.4  100   -4.4  1     0     1014.1   NA       0.0000   BR       6000  330   0    
2019/08/21  11:17:00  BASE  0.9408   113  1.90512  131  -4.4  100   -4.4  2     0     1014.1   NA       0.0000   BR       6000  330   0    
2019/08/21  11:18:00  BASE  0.6468   132  1.90512  131  -4.4  100   -4.4  2     0     1014.1   NA       0.0000   BR       6000  260   0    
2019/08/21  11:19:00  BASE  0.16464  163  1.90512  131  -4.4  100   -4.4  2     0     1014.1   NA       0.0000   BR       6000  260   0    
2019/08/21  11:20:00  BASE  0        149  1.90512  131  -4.3  100   -4.3  2     0     1014.1   NA       0.0000   BR       6000  330   0    
2019/08/21  11:21:01  BASE  0        123  1.69344  125  -4.3  100   -4.3  2     0     1014.1   NA       0.0000   BR       5000  330   0    
2019/08/21  11:22:01  BASE  0        124  1.32888  123  -4.3  100   -4.3  2     0     1014.1   NA       0.0000   BR       4800  260   0    
2019/08/21  11:23:01  BASE  0        125  1.29948  117  -4.3  100   -4.3  2     0     1014.1   NA       0.0000   BR       4500  260   0    
2019/08/21  11:24:01  BASE  0        121  1.18188  113  -4.3  100   -4.3  2     0     1014.1   NA       0.0000   BR       4300  260   0    
2019/08/21  11:25:01  BASE  0        114  1.0878   103  -4.3  100   -4.3  2     0     1014.1   NA       0.0000   BR       3900  260   0    
2019/08/21  11:26:01  BASE  0        109  1.0878   103  -4.3  100   -4.3  2     0     1014.1   NA       0.0000   BR       4100  260   0    
2019/08/21  11:27:01  BASE  0        106  0.9702   132  -4.3  100   -4.3  3     0     1014.1   NA       0.0000   BR       4400  260   0    
2019/08/21  11:28:01  BASE  0        104  0        M    -4.3  100   -4.3  3     0     1014.1   NA       0.0000   BR       3700  230   0    
2019/08/21  11:29:01  BASE  0        98   0        M    -4.3  100   -4.3  3     0     1014.1   NA       0.0000   BR       3400  230   0    
2019/08/21  11:30:01  BASE  0.50568  91   1.63464  94   -4.3  100   -4.3  3     0     1014.1   NA       0.0000   BR       3800  260   0    
2019/08/21  11:31:01  BASE  1.22304  91   1.63464  94   -4.4  100   -4.4  3     0     1014.2   NA       0.0000   BR       3900  300   0    
2019/08/21  11:32:01  BASE  1.57584  89   2.0286   82   -4.4  100   -4.4  3     0     1014.1   NA       0.0000   BR       3800  260   0    
2019/08/21  11:33:01  BASE  1.76988  84   2.0286   82   -4.5  100   -4.5  3     0     1014.1   NA       0.0000   BR       3700  260   0    
2019/08/21  11:34:01  BASE  1.764    81   2.0286   82   -4.5  100   -4.5  3     0     1014.1   NA       0.0000   BR       4700  300   0    
2019/08/21  11:35:01  BASE  1.5876   78   2.0286   82   -4.5  100   -4.5  3     0     1014.2   NA       0.0000   BR       4900  330   0    
2019/08/21  11:36:01  BASE  1.43472  77   2.0286   82   -4.5  100   -4.5  3     0     1014.2   NA       0.0000   BR       5000  390   0    
2019/08/21  11:37:01  BASE  1.48176  82   2.0286   82   -4.5  100   -4.5  3     0     1014.2   NA       0.0000   BR       6000  430   0    
2019/08/21  11:38:01  BASE  1.65816  90   2.0286   82   -4.5  100   -4.5  3     0     1014.2   NA       0.0000   BR       5000  300   0    
2019/08/21  11:39:01  BASE  1.75224  94   2.0286   82   -4.5  100   -4.5  2     0     1014.2   NA       0.0000   BR       3700  300   0    
2019/08/21  11:40:01  BASE  1.8228   91   2.1462   88   -4.5  100   -4.5  2     0     1014.2   NA       0.0000   BR       2900  260   0    
2019/08/21  11:41:01  BASE  1.98744  85   2.26968  77   -4.5  100   -4.5  2     0     1014.2   NA       0.0000   BR       3200  300   0    
2019/08/21  11:42:01  BASE  2.12268  81   2.35788  84   -4.5  100   -4.5  2     0     1014.2   NA       0.0000   BR       4000  260   0    
2019/08/21  11:43:01  BASE  2.16384  86   2.35788  84   -4.5  100   -4.5  2     0     1014.2   NA       0.0000   BR       4400  260   0    
2019/08/21  11:44:01  BASE  2.07564  89   2.35788  84   -4.5  100   -4.5  2     0     1014.2   NA       0.0000   BR       3400  200   0    
2019/08/21  11:45:01  BASE  2.01096  90   2.35788  84   -4.5  100   -4.5  2     0     1014.2   NA       0.0000   BR       2600  230   0    
2019/08/21  11:46:01  BASE  2.07564  94   2.35788  84   -4.6  100   -4.6  2     0     1014.2   NA       0.0000   BR       2700  260   0    
2019/08/21  11:47:01  BASE  2.04036  98   2.35788  84   -4.6  100   -4.6  2     0     1014.2   NA       0.0000   BR       3900  260   0    
2019/08/21  11:48:00  BASE  1.80516  98   2.35788  84   -4.6  100   -4.6  2     0     1014.2   NA       0.0000   BR       4500  300   0    
2019/08/21  11:49:00  BASE  1.5582   97   2.35788  84   -4.6  100   -4.6  3     0     1014.1   NA       0.0000   BR       4800  260   0    
2019/08/21  11:50:00  BASE  1.45824  93   2.35788  84   -4.6  100   -4.6  3     0     1014.1   NA       0.0000   BR       4800  260   0    
2019/08/21  11:51:00  BASE  1.43472  90   2.35788  84   -4.6  100   -4.6  3     0     1014.1   NA       0.0000   BR       4700  260   0    
2019/08/21  11:52:00  BASE  1.44648  90   2.32848  84   -4.6  100   -4.6  3     0     1014.1   NA       0.0000   BR       3800  260   0    
2019/08/21  11:53:00  BASE  1.55232  92   2.24028  95   -4.6  100   -4.6  3     0     1014.1   NA       0.0000   BR       3900  260   0    
2019/08/21  11:54:00  BASE  1.57584  96   2.24028  95   -4.6  100   -4.6  4     0     1014.1   NA       0.0000   BR       3300  230   0    
2019/08/21  11:55:00  BASE  1.60524  97   2.24028  95   -4.6  100   -4.6  4     0     1014.1   NA       0.0000   BR       3300  230   0    
2019/08/21  11:56:00  BASE  1.64052  102  2.0874   96   -4.6  100   -4.6  4     0     1014.1   NA       0.0000   BR       3600  260   0    
2019/08/21  11:57:00  BASE  1.52292  109  1.81692  97   -4.6  100   -4.6  5     0     1014.1   NA       0.0000   BR       4300  260   0    
2019/08/21  11:58:00  BASE  1.48764  112  1.81692  97   -4.6  100   -4.6  5     0     1014.1   NA       0.0000   BR       4700  260   0    
2019/08/21  11:59:00  BASE  1.4406   111  1.81692  97   -4.6  100   -4.6  6     0     1014.1   NA       0.0000   BR       5000  300   0    
2019/08/21  12:00:00  BASE  1.56408  116  1.87572  127  -4.6  100   -4.6  7     0     1014.1   NA       0.0000   BR       6000  330   0    
2019/08/21  12:01:00  BASE  1.75224  118  1.87572  127  -4.6  100   -4.6  8     0     1014.1   NA       0.0000   BR       7000  360   0    
2019/08/21  12:02:00  BASE  1.65228  120  1.87572  127  -4.6  100   -4.6  8     0     1014.1   NA       0.0000   BR       6000  330   0    
2019/08/21  12:03:00  BASE  1.60524  122  1.90512  122  -4.6  100   -4.6  9     0     1014.0   NA       0.0000   BR       5000  260   0    
2019/08/21  12:04:00  BASE  1.69344  122  1.93452  118  -4.5  100   -4.5  10    0     1014.0   NA       0.0000   BR       4000  300   0    
2019/08/21  12:05:00  BASE  1.66404  128  1.93452  118  -4.5  100   -4.5  12    0     1014.0   NA       0.0000   BR       3300  230   0    
2019/08/21  12:06:00  BASE  1.5288   128  1.93452  118  -4.5  100   -4.5  13    0     1014.1   NA       0.0000   BR       3500  230   0    
2019/08/21  12:07:00  BASE  1.44648  123  1.93452  118  -4.5  100   -4.5  14    0     1014.1   NA       0.0000   -SN      BR    3400  230  
2019/08/21  12:08:00  BASE  1.35828  122  1.93452  118  -4.5  100   -4.5  15    0     1014.1   NA       0.0000   -SN      BR    3500  200  
2019/08/21  12:09:00  BASE  1.27008  121  1.93452  118  -4.5  100   -4.5  16    0     1014.1   NA       0.0000   -SN      BR    3500  200  
2019/08/21  12:10:00  BASE  1.0878   122  1.93452  118  -4.5  100   -4.5  16    0     1014.1   NA       0.0000   -SN      BR    3100  0    
2019/08/21  12:11:00  BASE  1.02312  128  1.93452  118  -4.5  100   -4.5  17    0     1014.1   NA       0.0000   -SN      BR    3900  230  
2019/08/21  12:12:00  BASE  1.24656  131  1.93452  118  -4.5  100   -4.5  18    0     1014.1   NA       0.0000   -SN      BR    4900  260  
2019/08/21  12:13:00  BASE  1.40532  130  1.93452  118  -4.5  100   -4.5  18    0     1014.0   NA       0.0000   -SN      BR    4200  0    
2019/08/21  12:14:00  BASE  1.35828  134  1.69344  134  -4.5  100   -4.5  19    0     1014.1   NA       0.0000   -SN      BR    6000  200  
2019/08/21  12:15:00  BASE  1.31712  142  1.78752  142  -4.6  100   -4.6  19    0     1014.1   NA       0.0000   -SN      BR    8000  200  
2019/08/21  12:16:00  BASE  1.39944  147  1.87572  150  -4.6  100   -4.6  19    0     1014.1   NA       0.0000   -SN      BR    9999  230  
2019/08/21  12:17:00  BASE  1.30536  149  1.87572  150  -4.6  100   -4.6  19    0     1014.1   NA       0.0000   BR       9999  230   1120 
2019/08/21  12:18:00  BASE  1.39944  152  1.87572  150  -4.6  100   -4.6  20    0     1014.1   NA       0.0000   BR       7000  230   1050 
2019/08/21  12:19:00  BASE  1.617    167  1.96392  172  -4.6  100   -4.6  22    0     1014.1   NA       0.0000   BR       5000  300   1120 
2019/08/21  12:20:00  BASE  1.4406   178  1.96392  172  -4.7  100   -4.7  22    0     1014.1   NA       0.0000   BR       5000  230   1120 
2019/08/21  12:21:00  BASE  1.31712  179  1.96392  172  -4.7  100   -4.7  22    0     1014.1   NA       0.0000   BR       5000  200   1210 
2019/08/21  12:22:00  BASE  1.34652  186  1.96392  172  -4.6  100   -4.6  23    0     1014.1   NA       0.0000   BR       4800  200   1180 
2019/08/21  12:23:00  BASE  1.47588  198  1.96392  172  -4.6  100   -4.6  23    0     1014.0   NA       0.0000   BR       4500  160   1180 
2019/08/21  12:24:00  BASE  1.65816  206  1.96392  172  -4.6  100   -4.6  23    0     1014.0   NA       0.0000   BR       5000  200   1280 
2019/08/21  12:25:00  BASE  1.7346   205  1.96392  172  -4.6  100   -4.6  23    0     1014.0   NA       0.0000   BR       6000  200   0    
2019/08/21  12:26:00  BASE  1.77576  206  2.058    203  -4.6  100   -4.6  23    0     1014.0   NA       0.0000   BR       4800  160   1350 
2019/08/21  12:27:00  BASE  1.65228  210  2.058    203  -4.6  100   -4.6  23    0     1014.0   NA       0.0000   BR       3100  1380  0    
2019/08/21  12:28:00  BASE  1.45236  208  2.058    203  -4.6  100   -4.6  24    0     1014.0   NA       0.0000   BR       4400  200   1440 
2019/08/21  12:29:01  BASE  1.37592  202  2.058    203  -4.6  100   -4.6  25    0     1014.0   NA       0.0000   BR       4500  200   1610 
2019/08/21  12:30:01  BASE  1.34652  197  2.058    203  -4.6  100   -4.6  25    0     1014.0   NA       0.0000   BR       3900  200   1540 
2019/08/21  12:31:01  BASE  1.24656  202  2.058    203  -4.7  100   -4.7  25    0     1014.0   NA       0.0000   BR       3200  200   1510 
2019/08/21  12:32:01  BASE  1.10544  218  2.058    203  -4.7  100   -4.7  26    0     1014.0   NA       0.0000   BR       3300  0     0    
2019/08/21  12:33:01  BASE  1.18188  227  2.058    203  -4.7  100   -4.7  27    0     1014.1   NA       0.0000   BR       4100  0     0    
2019/08/21  12:34:01  BASE  1.53468  228  2.058    203  -4.7  100   -4.7  28    0     1014.1   NA       0.0000   BR       4800  0     0    
2019/08/21  12:35:01  BASE  1.8228   229  2.058    203  -4.7  100   -4.7  27    0     1014.1   NA       0.0000   BR       6000  0     0    
2019/08/21  12:36:01  BASE  1.81104  233  2.0286   230  -4.7  100   -4.7  26    0     1014.1   NA       0.0000   BR       8000  230   0    
2019/08/21  12:37:01  BASE  1.69932  235  2.0286   230  -4.7  100   -4.7  26    0     1014.1   NA       0.0000   BR       9999  230   0    
2019/08/21  12:38:01  BASE  1.75812  234  2.0286   230  -4.7  100   -4.7  28    0     1014.1   NA       0.0000   BR       9999  260   0    
2019/08/21  12:39:01  BASE  1.7346   234  2.0286   230  -4.7  100   -4.7  30    0     1014.1   NA       0.0000   BR       9999  230   0    
2019/08/21  12:40:01  BASE  1.57584  234  2.0286   230  -4.7  100   -4.7  30    0     1014.1   NA       0.0000   BR       9999  200   0    
2019/08/21  12:41:01  BASE  1.56408  233  2.0286   230  -4.7  100   -4.7  29    0     1014.1   NA       0.0000   BR       9999  230   0    
2019/08/21  12:42:01  BASE  1.51704  237  2.0286   230  -4.7  100   -4.7  29    0     1014.1   NA       0.0000   BR       9999  300   0    
2019/08/21  12:43:01  BASE  1.17012  248  2.0286   230  -4.7  100   -4.7  32    0     1014.1   NA       0.0000   BR       9999  230   0    
2019/08/21  12:44:01  BASE  1.06428  249  2.0286   230  -4.7  100   -4.7  36    0     1014.1   NA       0.0000   9999     260   0     0    
2019/08/21  12:45:01  BASE  1.22304  247  1.9992   233  -4.7  100   -4.7  36    0     1014.1   NA       0.0000   9999     230   0     0    
2019/08/21  12:46:01  BASE  1.21716  244  1.9992   233  -4.7  100   -4.7  35    0     1014.1   NA       0.0000   9999     230   0     0    
2019/08/21  12:47:01  BASE  1.21128  238  1.9992   233  -4.7  100   -4.7  35    0     1014.1   NA       0.0000   9999     200   0     0    
2019/08/21  12:48:01  BASE  1.17012  235  1.78752  230  -4.7  100   -4.7  34    0     1014.1   NA       0.0000   9999     200   0     0    
2019/08/21  12:49:01  BASE  1.21128  230  1.78752  230  -4.7  100   -4.7  32    0     1014.1   NA       0.0000   9999     200   0     0    
2019/08/21  12:50:01  BASE  1.19364  226  1.78752  230  -4.7  100   -4.7  30    0     1014.1   NA       0.0000   9999     200   0     0    
2019/08/21  12:51:01  BASE  1.0878   225  1.75224  242  -4.7  100   -4.7  30    0     1014.1   NA       0.0000   9999     0     0     0    
2019/08/21  12:52:01  BASE  1.03488  223  1.48176  234  -4.7  100   -4.7  31    0     1014.1   NA       0.0000   9999     0     0     0    
2019/08/21  12:53:01  BASE  0.92316  218  1.48176  234  -4.7  100   -4.7  33    0     1014.1   NA       0.0000   8000     0     0     0    
2019/08/21  12:54:01  BASE  0.8232   214  1.48176  234  -4.7  100   -4.7  35    0     1014.1   NA       0.0000   BR       6000  0     0    
2019/08/21  12:55:01  BASE  0.79968  211  1.48176  234  -4.7  100   -4.7  35    0     1014.1   NA       0.0000   BR       6000  0     0    
2019/08/21  12:56:01  BASE  0.8232   204  1.42296  230  -4.7  100   -4.7  35    0     1014.1   NA       0.0000   BR       5000  0     0    
2019/08/21  12:57:00  BASE  0.81732  198  1.39356  221  -4.7  100   -4.7  34    0     1014.1   NA       0.0000   BR       5000  0     0    
2019/08/21  12:58:00  BASE  0.79968  199  1.35828  230  -4.7  100   -4.7  33    0     1014.1   NA       0.0000   BR       4300  0     0    
2019/08/21  12:59:00  BASE  0.75852  200  1.27008  229  -4.7  100   -4.7  32    0     1014.1   NA       0.0000   BR       2500  0     0    
2019/08/21  13:00:00  BASE  0.43512  199  1.18188  225  -4.7  100   -4.7  32    0     1014.1   NA       0.0000   BR       1300  0     0    
2019/08/21  13:01:00  BASE  0.07644  199  1.1466   225  -4.7  100   -4.7  33    0     1014.1   NA       0.0000   BR       1000  0     0    
2019/08/21  13:02:00  BASE  0        200  0.9996   203  -4.7  100   -4.7  38    0     1014.1   NA       0.0000   BR       1000  0     0    
2019/08/21  13:03:00  BASE  0        170  0.9996   203  -4.7  100   -4.7  44    0     1014.1   NA       0.0000   BR       1200  0     0    
2019/08/21  13:04:00  BASE  0        96   0.9996   203  -4.8  100   -4.8  46    0     1014.1   NA       0.0000   BR       1200  0     0    
2019/08/21  13:05:00  BASE  0        55   0.9996   203  -4.8  100   -4.8  47    0     1014.1   NA       0.0000   BR       1300  0     0    
2019/08/21  13:06:00  BASE  0        43   0.9996   203  -4.9  100   -4.9  49    0     1014.2   NA       0.0000   BR       1800  0     0    
2019/08/21  13:07:00  BASE  0        53   0.9996   203  -5.0  100   -5.0  53    0     1014.1   NA       0.0000   BR       1400  0     0    
2019/08/21  13:08:00  BASE  0        54   0.84672  204  -5.0  100   -5.0  56    0     1014.1   NA       0.0000   BR       1100  0     0    
2019/08/21  13:09:00  BASE  0        46   0.63504  203  -5.0  100   -5.0  58    0     1014.1   NA       0.0000   BR       0900  0     0    
2019/08/21  13:10:00  BASE  0        50   0        M    -5.0  100   -5.0  58    0     1014.1   NA       0.0000   BR       0800  0     0    
2019/08/21  13:11:00  BASE  0        53   0        M    -5.0  100   -5.0  56    0     1014.1   NA       0.0000   BR       1000  0     0    
2019/08/21  13:12:00  BASE  0        47   0        M    -5.0  100   -5.0  53    0     1014.1   NA       0.0000   BR       1000  0     0    
2019/08/21  13:13:00  BASE  0        49   0        M    -4.9  100   -4.9  51    0     1014.1   NA       0.0000   BR       0900  0     0    
2019/08/21  13:14:00  BASE  0        51   0        M    -4.9  100   -4.9  51    0     1014.2   NA       0.0000   BR       0800  0     0    
2019/08/21  13:15:00  BASE  0        43   0        M    -4.9  100   -4.9  53    0     1014.2   NA       0.0000   BR       0750  0     0    
2019/08/21  13:16:00  BASE  0        33   0        M    -4.9  100   -4.9  52    0     1014.2   NA       0.0000   BR       0800  0     0    
2019/08/21  13:17:00  BASE  0        29   0        M    -4.9  100   -4.9  51    0     1014.2   NA       0.0000   BR       0900  0     0    
2019/08/21  13:18:00  BASE  0        36   0        M    -4.9  100   -4.9  51    0     1014.1   NA       0.0000   FZFG     0800  0     0    
2019/08/21  13:19:00  BASE  0        44   0        M    -4.9  100   -4.9  54    0     1014.1   NA       0.0000   FZFG     0700  0     0    
2019/08/21  13:20:01  BASE  M        M    M        M    -4.9  100   -4.9  55    0     M        NA       0.0000   FZFG     M     0     0    
2019/08/21  13:21:00  BASE  M        M    M        M    -4.9  100   -4.9  53    0     1014.1   NA       0.0000   FZFG     0750  0     0    
2019/08/21  13:22:00  BASE  0        79   0        M    -4.9  100   -4.9  50    0     1014.0   NA       0.0000   FZFG     0700  0     0    
2019/08/21  13:23:00  BASE  0        93   0        M    -4.9  100   -4.9  49    0     1014.0   NA       0.0000   FZFG     0600  0     0    
2019/08/21  13:24:00  BASE  0        86   0        M    -4.9  100   -4.9  48    0     1014.0   NA       0.0000   FZFG     0650  0     0    
2019/08/21  13:25:00  BASE  0        83   0        M    -4.9  100   -4.9  48    0     1014.0   NA       0.0000   FZFG     0600  0     0    
2019/08/21  13:26:00  BASE  0        67   0        M    -4.9  100   -4.9  48    0     1013.9   NA       0.0000   FZFG     0600  0     0    
2019/08/21  13:27:00  BASE  0        43   0        M    -4.8  100   -4.8  48    0     1013.9   NA       0.0000   FZFG     0750  0     0    
2019/08/21  13:28:00  BASE  0        27   0        M    -4.8  100   -4.8  48    0     1013.8   NA       0.0000   FZFG     0900  0     0    
2019/08/21  13:29:00  BASE  0        18   0        M    -4.8  100   -4.8  47    0     1013.9   NA       0.0000   FZFG     0700  0     0    
2019/08/21  13:30:00  BASE  0        19   0        M    -4.8  100   -4.8  46    0     1013.9   NA       0.0000   FZFG     0700  0     0    
2019/08/21  13:31:00  BASE  0        37   0        M    -4.8  100   -4.8  45    0     1014.0   NA       0.0000   FZFG     0600  0     0    
2019/08/21  13:32:00  BASE  0        41   0        M    -4.9  100   -4.9  42    0     1014.0   NA       0.0000   FZFG     0500  0     0    
2019/08/21  13:33:00  BASE  0        27   0        M    -4.9  100   -4.9  41    0     1014.0   NA       0.0000   FZFG     0550  0     0    
2019/08/21  13:34:01  BASE  0        23   0        M    -4.9  100   -4.9  40    0     1014.0   NA       0.0000   FZFG     0650  0     0    
2019/08/21  13:35:01  BASE  0        27   0        M    -4.9  100   -4.9  40    0     1014.0   NA       0.0000   FZFG     0650  0     0    
2019/08/21  13:36:01  BASE  0        32   0        M    -4.9  100   -4.9  40    0     1014.1   NA       0.0000   FZFG     0550  0     0    
2019/08/21  13:37:01  BASE  0        38   0        M    -4.9  100   -4.9  40    0     1014.1   NA       0.0000   FZFG     0600  0     0    
2019/08/21  13:38:01  BASE  0        52   0        M    -4.9  100   -4.9  41    0     1014.1   NA       0.0000   FZFG     0600  0     0    
2019/08/21  13:39:01  BASE  0        71   0        M    -4.9  100   -4.9  45    0     1014.1   NA       0.0000   FZFG     0500  0     0    
2019/08/21  13:40:01  BASE  0        66   0        M    -4.9  100   -4.9  48    0     1014.1   NA       0.0000   FZFG     0450  0     0    
2019/08/21  13:41:01  BASE  0        48   0        M    -4.9  100   -4.9  48    0     1014.1   NA       0.0000   FZFG     0500  0     0    
2019/08/21  13:42:01  BASE  0        42   0        M    -5.0  100   -5.0  48    0     1014.1   NA       0.0000   FZFG     0750  0     0    
2019/08/21  13:43:01  BASE  0        42   0        M    -5.0  100   -5.0  49    0     1014.1   NA       0.0000   FZFG     0900  0     0    
2019/08/21  13:44:01  BASE  0        43   0        M    -5.0  100   -5.0  48    0     1014.1   NA       0.0000   FZFG     0800  0     0    
2019/08/21  13:45:01  BASE  0        41   0        M    -5.0  100   -5.0  49    0     1014.1   NA       0.0000   FZFG     0750  0     0    
2019/08/21  13:46:01  BASE  0        42   0        M    -5.0  100   -5.0  49    0     1014.1   NA       0.0000   FZFG     1200  0     0    
2019/08/21  13:47:01  BASE  0        65   0        M    -4.9  100   -4.9  49    0     1014.1   NA       0.0000   FZFG     1300  0     0    
2019/08/21  13:48:01  BASE  0        53   0        M    -4.9  100   -4.9  50    0     1014.1   NA       0.0000   FZFG     1900  0     0    
2019/08/21  13:49:01  BASE  0        334  0        M    -4.9  100   -4.9  53    0     1014.0   NA       0.0000   FZFG     1800  0     0    
2019/08/21  13:50:01  BASE  0        36   0        M    -4.9  100   -4.9  56    0     1014.1   NA       0.0000   BR       1800  0     0    
2019/08/21  13:51:01  BASE  0        103  0        M    -4.9  100   -4.9  58    0     1014.1   NA       0.0000   BR       1700  0     0    
2019/08/21  13:52:01  BASE  0        124  0        M    -4.9  100   -4.9  57    0     1014.1   NA       0.0000   BR       2600  0     0    
2019/08/21  13:53:01  BASE  0        122  0        M    -4.9  100   -4.9  58    0     1014.1   NA       0.0000   BR       3000  0     0    
2019/08/21  13:54:01  BASE  0        117  0        M    -4.9  100   -4.9  60    0     1014.1   NA       0.0000   BR       2700  0     0    
2019/08/21  13:55:01  BASE  0        109  0        M    -4.9  100   -4.9  61    0     1014.0   NA       0.0000   BR       3700  620   0    
2019/08/21  13:56:01  BASE  0        101  0        M    -4.9  100   -4.9  63    0     1014.0   NA       0.0000   BR       4800  660   0    
2019/08/21  13:57:01  BASE  0        107  0        M    -4.9  100   -4.9  65    0     1014.0   NA       0.0000   BR       8000  660   0    
2019/08/21  13:58:01  BASE  0        108  0        M    -4.9  100   -4.9  68    0     1014.0   NA       0.0000   BR       8000  690   0    
2019/08/21  13:59:01  BASE  0        111  0        M    -4.9  100   -4.9  70    0     1014.0   NA       0.0000   BR       7000  660   0    
2019/08/21  14:00:01  BASE  0        101  0        M    -4.9  100   -4.9  71    0     1014.0   NA       0.0000   BR       9000  720   0    
2019/08/21  14:01:01  BASE  0        97   0        M    -4.9  100   -4.9  72    0     1014.0   NA       0.0000   BR       9999  690   0    
2019/08/21  14:02:01  BASE  0        106  0        M    -4.9  100   -4.9  74    0     1014.0   NA       0.0000   BR       9999  620   0    
2019/08/21  14:03:01  BASE  0        105  0        M    -4.9  100   -4.9  77    0     1014.1   NA       0.0000   BR       9999  560   0    
2019/08/21  14:04:01  BASE  0        109  0        M    -4.9  100   -4.9  82    0     1014.1   NA       0.0000   BR       9999  560   0    
2019/08/21  14:05:00  BASE  0        117  0        M    -4.9  100   -4.9  88    0     1014.1   NA       0.0000   BR       9999  460   0    
2019/08/21  14:06:00  BASE  0        139  0        M    -4.9  100   -4.9  94    0     1014.1   NA       0.0000   9999     460   0     0    
2019/08/21  14:07:00  BASE  0        159  0        M    -4.9  100   -4.9  101   0     1014.1   NA       0.0000   9999     460   0     0    
2019/08/21  14:08:00  BASE  0        166  0        M    -4.9  100   -4.9  108   0     1014.1   NA       0.0000   9999     490   0     0    
2019/08/21  14:09:00  BASE  0        169  0        M    -4.9  100   -4.9  112   0     1014.1   NA       0.0000   9999     460   0     0    
2019/08/21  14:10:00  BASE  0        169  0        M    -4.9  100   -4.9  114   0     1014.1   NA       0.0000   9999     390   0     0    
2019/08/21  14:11:00  BASE  0        169  0        M    -4.9  100   -4.9  116   0     1014.1   NA       0.0000   9999     430   0     0    
2019/08/21  14:12:00  BASE  0        169  0        M    -4.9  100   -4.9  116   0     1014.1   NA       0.0000   9999     490   0     0    
2019/08/21  14:13:00  BASE  0        169  0        M    -4.9  100   -4.9  118   0     1014.1   NA       0.0000   9999     460   0     0    
2019/08/21  14:14:00  BASE  0        169  0        M    -4.9  100   -4.9  126   0     1014.1   NA       0.0000   9999     460   1180  0    
2019/08/21  14:15:00  BASE  0        159  0        M    -4.9  100   -4.9  134   0     1014.1   NA       0.0000   9999     460   1180  0    
2019/08/21  14:16:00  BASE  0        135  0        M    -4.9  100   -4.9  137   0     1014.1   NA       0.0000   9999     330   0     0    
2019/08/21  14:17:00  BASE  0        112  0        M    -4.9  100   -4.9  145   0     1014.1   NA       0.0000   9999     430   950   0    
2019/08/21  14:18:00  BASE  0        87   0        M    -4.9  100   -4.9  144   0     1014.1   NA       0.0000   9999     430   1020  0    
2019/08/21  14:19:00  BASE  0        76   0        M    -4.9  100   -4.9  124   0     1014.1   NA       0.0000   9999     460   1020  0    
2019/08/21  14:20:00  BASE  0        80   0        M    -4.9  100   -4.9  114   0     1014.1   NA       0.0000   9999     920   0     0    
2019/08/21  14:21:00  BASE  0        96   0        M    -4.9  100   -4.9  110   0     1014.1   NA       0.0000   9999     980   0     0    
2019/08/21  14:22:00  BASE  0        126  0        M    -5.0  100   -5.0  108   0     1014.1   NA       0.0000   9999     980   0     0    
2019/08/21  14:23:00  BASE  0        145  0        M    -5.0  100   -5.0  107   0     1014.1   NA       0.0000   9999     950   0     0    
2019/08/21  14:24:00  BASE  0        138  0        M    -5.0  100   -5.0  109   0     1014.1   NA       0.0000   9999     850   0     0    
2019/08/21  14:25:00  BASE  0        109  0        M    -4.9  100   -4.9  110   0     1014.1   NA       0.0000   9999     820   0     0    
2019/08/21  14:26:00  BASE  0        94   0        M    -4.9  100   -4.9  110   0     1014.1   NA       0.0000   9999     560   950   0    
2019/08/21  14:27:00  BASE  0        98   0        M    -4.9  100   -4.9  113   0     1014.1   NA       0.0000   8000     520   1050  0    
2019/08/21  14:28:00  BASE  0        98   0        M    -4.9  100   -4.9  118   0     1014.1   NA       0.0000   9999     520   1020  0    
2019/08/21  14:29:00  BASE  0        98   0        M    -4.9  100   -4.9  118   0     1014.1   NA       0.0000   9999     520   920   0    
2019/08/21  14:30:00  BASE  0        98   0        M    -4.9  100   -4.9  114   0     1014.1   NA       0.0000   9999     490   890   0    
2019/08/21  14:31:00  BASE  0        98   0        M    -4.9  100   -4.9  110   0     1014.1   NA       0.0000   9999     520   950   0    
2019/08/21  14:32:00  BASE  0        97   0        M    -4.9  100   -4.9  106   0     1014.1   NA       0.0000   9999     520   0     0    
2019/08/21  14:33:00  BASE  0        97   0        M    -4.9  100   -4.9  99    0     1014.1   NA       0.0000   9999     560   0     0    
2019/08/21  14:34:00  BASE  0        97   0        M    -5.0  100   -5.0  93    0     1014.1   NA       0.0000   9999     820   0     0    
2019/08/21  14:35:00  BASE  0        92   0        M    -5.0  100   -5.0  89    0     1014.1   NA       0.0000   9999     720   0     0    
2019/08/21  14:36:00  BASE  0        77   0        M    -5.0  100   -5.0  88    0     1014.0   NA       0.0000   4500     750   0     0    
2019/08/21  14:37:00  BASE  0        66   0        M    -5.1  100   -5.1  88    0     1014.0   NA       0.0000   BR       1800  820   0    
2019/08/21  14:38:00  BASE  0        63   0        M    -5.2  100   -5.2  91    0     1014.0   NA       0.0000   BR       1500  490   0    
2019/08/21  14:39:00  BASE  0        63   0        M    -5.2  100   -5.2  95    0     1014.0   NA       0.0000   BR       1300  520   0    
2019/08/21  14:40:00  BASE  0        65   0        M    -5.3  100   -5.3  100   0     1014.0   NA       0.0000   BR       1000  460   0    
2019/08/21  14:41:00  BASE  0        68   0        M    -5.3  100   -5.3  105   0     1014.0   NA       0.0000   BR       0900  460   0    
2019/08/21  14:42:00  BASE  0        71   0        M    -5.3  100   -5.3  106   0     1013.9   NA       0.0000   BR       0800  460   0    
2019/08/21  14:43:00  BASE  0        71   0        M    -5.3  100   -5.3  107   0     1013.9   NA       0.0000   BR       0800  490   0    
2019/08/21  14:44:00  BASE  0        74   0        M    -5.3  100   -5.3  103   0     1013.9   NA       0.0000   BR       1000  520   0    
2019/08/21  14:45:01  BASE  0        80   0        M    -5.3  100   -5.3  100   0     1013.9   NA       0.0000   BR       1300  520   0    
2019/08/21  14:46:01  BASE  0        78   0        M    -5.3  100   -5.3  100   0     1013.9   NA       0.0000   BR       1000  460   0    
2019/08/21  14:47:01  BASE  0        78   0        M    -5.3  100   -5.3  101   0     1013.9   NA       0.0000   BR       0900  430   0    
2019/08/21  14:48:01  BASE  0        83   0        M    -5.3  100   -5.3  104   0     1013.9   NA       0.0000   BR       1100  460   0    
2019/08/21  14:49:01  BASE  0        87   0        M    -5.2  100   -5.2  107   0     1013.8   NA       0.0000   BR       1200  560   0    
2019/08/21  14:50:01  BASE  0        83   0        M    -5.2  100   -5.2  109   0     1013.8   NA       0.0000   BR       1200  490   0    
2019/08/21  14:51:01  BASE  0        72   0        M    -5.2  100   -5.2  112   0     1013.8   NA       0.0000   BR       1100  620   0    
2019/08/21  14:52:01  BASE  0        69   0        M    -5.2  100   -5.2  117   0     1013.8   NA       0.0000   BR       1300  430   0    
2019/08/21  14:53:01  BASE  0        69   0        M    -5.2  100   -5.2  121   0     1013.8   NA       0.0000   BR       1900  520   0    
2019/08/21  14:54:01  BASE  0        70   0        M    -5.2  100   -5.2  128   0     1013.8   NA       0.0000   BR       2300  520   0    
2019/08/21  14:55:01  BASE  0        74   0        M    -5.2  100   -5.2  150   0     1013.8   NA       0.0000   BR       2500  390   0    
2019/08/21  14:56:01  BASE  0        77   0        M    -5.2  100   -5.2  159   0     1013.8   NA       0.0000   BR       2800  0     0    
2019/08/21  14:57:01  BASE  0        77   0        M    -5.2  100   -5.2  165   0     1013.8   NA       0.0000   BR       6000  490   0    
2019/08/21  14:58:01  BASE  0        76   0        M    -5.2  100   -5.2  186   0     1013.8   NA       0.0000   BR       9999  200   0    
2019/08/21  14:59:01  BASE  0        85   0        M    -5.2  100   -5.2  221   0     1013.8   NA       0.0000   BR       9999  490   0    
2019/08/21  15:00:01  BASE  0        108  0        M    -5.2  100   -5.2  215   0     1013.8   NA       0.0000   BR       9999  490   21980
2019/08/21  15:01:01  BASE  0        110  0        M    -5.2  100   -5.2  215   0     1013.8   NA       0.0000   BR       9999  490   0    
2019/08/21  15:02:01  BASE  0        96   0        M    -5.2  100   -5.2  223   0     1013.8   NA       0.0000   BR       9999  490   0    
2019/08/21  15:03:01  BASE  0        102  0        M    -5.2  100   -5.2  212   0     1013.8   NA       0.0000   BR       9999  490   0    
2019/08/21  15:04:01  BASE  0        118  0        M    -5.2  100   -5.2  221   0     1013.8   NA       0.0000   BR       9999  460   0    
2019/08/21  15:05:01  BASE  0        141  0        M    -5.2  100   -5.2  239   0     1013.8   NA       0.0000   BR       9999  460   0    
2019/08/21  15:06:01  BASE  0        160  0        M    -5.1  100   -5.1  225   0     1013.8   NA       0.0000   9999     620   0     0    
2019/08/21  15:07:01  BASE  0        155  0        M    -5.1  100   -5.1  202   0     1013.8   NA       0.0000   9999     560   0     0    
2019/08/21  15:08:01  BASE  0        149  0        M    -5.1  100   -5.1  173   0     1013.8   NA       0.0000   9999     620   0     0    
2019/08/21  15:09:01  BASE  0        149  0        M    -5.1  100   -5.1  195   0     1013.8   NA       0.0000   9999     590   0     0    
2019/08/21  15:10:01  BASE  0        140  0        M    -5.1  100   -5.1  188   0     1013.8   NA       0.0000   9999     590   0     0    
2019/08/21  15:11:01  BASE  0        133  0        M    -5.2  100   -5.2  165   0     1013.7   NA       0.0000   9999     560   0     0    
2019/08/21  15:12:01  BASE  0        133  0        M    -5.3  100   -5.3  188   0     1013.7   NA       0.0000   9999     590   0     0    
2019/08/21  15:13:00  BASE  0        131  0        M    -5.4  100   -5.4  217   0     1013.7   NA       0.0000   9999     520   0     0    
2019/08/21  15:14:00  BASE  0        127  0        M    -5.4  100   -5.4  210   0     1013.7   NA       0.0000   9999     460   0     0    
2019/08/21  15:15:00  BASE  0.75852  122  1.75224  120  -5.4  100   -5.4  204   0     1013.7   NA       0.0000   9999     390   0     0    
2019/08/21  15:16:00  BASE  1.51116  116  1.75224  120  -5.4  100   -5.4  207   0     1013.7   NA       0.0000   9999     430   0     0    
2019/08/21  15:17:00  BASE  1.47588  115  1.75224  120  -5.3  100   -5.3  229   0     1013.8   NA       0.0000   9999     360   0     0    
2019/08/21  15:18:00  BASE  1.38768  118  1.75224  120  -5.3  100   -5.3  256   0     1013.8   NA       0.0000   9999     430   0     0    
2019/08/21  15:19:00  BASE  1.37004  120  1.75224  120  -5.3  100   -5.3  260   0     1013.8   NA       0.0000   9999     360   0     0    
2019/08/21  15:20:00  BASE  1.2936   119  1.75224  120  -5.3  100   -5.3  257   0     1013.8   NA       0.0000   9999     390   0     0    
2019/08/21  15:21:00  BASE  1.27008  118  1.75224  120  -5.4  100   -5.4  232   0     1013.8   NA       0.0000   9999     390   0     0    
2019/08/21  15:22:00  BASE  1.35828  117  1.75224  120  -5.4  100   -5.4  253   0     1013.8   NA       0.0000   9999     460   0     0    
2019/08/21  15:23:00  BASE  1.47588  124  1.75224  138  -5.5  100   -5.5  258   0     1013.8   NA       0.0000   9999     260   0     0    
2019/08/21  15:24:00  BASE  1.43472  130  1.75224  138  -5.5  100   -5.5  242   0     1013.8   NA       0.0000   9999     230   0     0    
2019/08/21  15:25:00  BASE  1.31712  130  1.75224  138  -5.5  100   -5.5  200   0     1013.8   NA       0.0000   9999     300   0     0    
2019/08/21  15:26:00  BASE  1.4994   134  1.90512  135  -5.6  100   -5.6  200   0     1013.8   NA       0.0000   9999     390   0     0    
2019/08/21  15:27:00  BASE  1.62876  139  1.90512  135  -5.6  100   -5.6  184   0     1013.8   NA       0.0000   9999     360   0     0    
2019/08/21  15:28:00  BASE  1.7052   144  2.0874   154  -5.6  100   -5.6  210   0     1013.8   NA       0.0000   9999     200   0     0    
2019/08/21  15:29:00  BASE  1.63464  145  2.0874   154  -5.6  100   -5.6  228   0     1013.8   NA       0.0000   9999     230   0     0    
2019/08/21  15:30:00  BASE  1.53468  135  2.0874   154  -5.6  100   -5.6  214   0     1013.8   NA       0.0000   9999     230   0     0    
2019/08/21  15:31:00  BASE  1.66404  129  2.0874   154  -5.6  100   -5.6  209   0     1013.8   NA       0.0000   9999     260   0     0    
2019/08/21  15:32:00  BASE  1.75812  128  2.0874   154  -5.6  100   -5.6  197   0     1013.8   NA       0.0000   9999     200   0     0    
2019/08/21  15:33:00  BASE  1.8522   123  2.24028  117  -5.6  100   -5.6  178   0     1013.7   NA       0.0000   9999     260   0     0    
2019/08/21  15:34:00  BASE  1.93452  119  2.24028  117  -5.7  100   -5.7  191   0     1013.7   NA       0.0000   9999     200   0     0    
2019/08/21  15:35:00  BASE  1.97568  120  2.24028  126  -5.7  100   -5.7  175   0     1013.7   NA       0.0000   9999     230   0     0    
2019/08/21  15:36:00  BASE  1.89336  125  2.24028  126  -5.7  100   -5.7  223   0     1013.8   NA       0.0000   9999     200   0     0    
2019/08/21  15:37:00  BASE  1.7346   125  2.24028  126  -5.7  100   -5.7  225   0     1013.8   NA       0.0000   8000     0     0     0    
2019/08/21  15:38:00  BASE  1.75812  125  2.24028  126  -5.6  100   -5.6  211   0     1013.7   NA       0.0000   9999     200   0     0    
2019/08/21  15:39:01  BASE  1.84044  125  2.24028  126  -5.6  100   -5.6  232   0     1013.8   NA       0.0000   9999     200   0     0    
2019/08/21  15:40:01  BASE  1.86396  126  2.24028  126  -5.5  100   -5.5  203   0     1013.8   NA       0.0000   9000     160   0     0    
2019/08/21  15:41:01  BASE  1.83456  130  2.24028  126  -5.5  100   -5.5  192   0     1013.8   NA       0.0000   9999     160   0     0    
2019/08/21  15:42:01  BASE  1.83456  138  2.24028  126  -5.4  100   -5.4  176   0     1013.8   NA       0.0000   9999     0     0     0    
2019/08/21  15:43:01  BASE  1.764    139  2.24028  126  -5.4  100   -5.4  185   0     1013.8   NA       0.0000   9999     0     0     0    
2019/08/21  15:44:01  BASE  1.65228  133  2.24028  126  -5.5  100   -5.5  208   0     1013.8   NA       0.0000   9999     0     0     0    
2019/08/21  15:45:01  BASE  1.76988  133  2.058    140  -5.5  100   -5.5  190   0     1013.8   NA       0.0000   9999     0     0     0    
2019/08/21  15:46:01  BASE  1.86396  134  2.058    140  -5.5  100   -5.5  173   0     1013.8   NA       0.0000   9999     0     0     0    
2019/08/21  15:47:01  BASE  1.74636  130  2.058    140  -5.6  100   -5.6  186   0     1013.8   NA       0.0000   9999     0     0     0    
2019/08/21  15:48:01  BASE  1.68756  126  2.058    140  -5.6  100   -5.6  198   0     1013.8   NA       0.0000   9999     0     0     0    
2019/08/21  15:49:01  BASE  1.75812  127  2.058    140  -5.6  100   -5.6  184   0     1013.8   NA       0.0000   9999     0     0     0    
2019/08/21  15:50:01  BASE  1.78752  125  2.058    140  -5.7  100   -5.7  214   0     1013.8   NA       0.0000   9999     0     0     0    
2019/08/21  15:51:01  BASE  1.81692  124  2.058    140  -5.7  100   -5.7  194   0     1013.8   NA       0.0000   9999     0     0     0    
2019/08/21  15:52:01  BASE  1.764    127  1.9992   138  -5.7  100   -5.7  198   0     1013.8   NA       0.0000   9999     0     0     0    
2019/08/21  15:53:01  BASE  1.66992  130  1.9992   138  -5.8  100   -5.8  155   0     1013.8   NA       0.0000   9999     0     0     0    
2019/08/21  15:54:01  BASE  1.68756  131  2.058    135  -5.8  100   -5.8  176   0     1013.8   NA       0.0000   9999     0     0     0    
2019/08/21  15:55:01  BASE  1.94628  134  2.29908  137  -5.8  100   -5.8  163   0     1013.8   NA       0.0000   9999     0     0     0    
2019/08/21  15:56:01  BASE  2.15796  138  2.29908  137  -5.8  100   -5.8  178   0     1013.8   NA       0.0000   9999     0     0     0    
2019/08/21  15:57:01  BASE  2.16384  139  2.29908  137  -5.8  100   -5.8  189   0     1013.8   NA       0.0000   9999     0     0     0    
2019/08/21  15:58:01  BASE  2.16972  134  2.29908  137  -5.8  100   -5.8  201   0     1013.8   NA       0.0000   9999     0     0     0    
2019/08/21  15:59:01  BASE  2.18148  131  2.32848  132  -5.8  100   -5.8  186   0     1013.8   NA       0.0000   9999     0     0     0    
2019/08/21  16:00:01  BASE  2.21676  131  2.32848  134  -5.8  100   -5.8  175   0     1013.8   NA       0.0000   9999     0     0     0    
2019/08/21  16:01:01  BASE  2.21088  130  2.32848  134  -5.8  100   -5.8  201   0     1013.8   NA       0.0000   9999     0     0     0    
2019/08/21  16:02:01  BASE  2.21088  131  2.32848  134  -5.8  100   -5.8  194   0     1013.8   NA       0.0000   9999     0     0     0    
2019/08/21  16:03:01  BASE  2.22264  138  2.32848  134  -5.8  100   -5.8  187   0     1013.9   NA       0.0000   9999     0     0     0    
2019/08/21  16:04:01  BASE  2.18148  141  2.32848  134  -5.8  100   -5.8  191   0     1013.9   NA       0.0000   9999     0     0     0    
2019/08/21  16:05:01  BASE  2.22852  137  2.32848  137  -5.9  100   -5.9  196   0     1013.9   NA       0.0000   9999     0     0     0    
2019/08/21  16:06:01  BASE  2.37552  134  2.75184  133  -5.9  100   -5.9  195   0     1013.9   NA       0.0000   6000     0     0     0    
2019/08/21  16:07:01  BASE  2.46372  135  2.75184  133  -5.9  100   -5.9  214   0     1013.9   NA       0.0000   9999     0     0     0    
2019/08/21  16:08:01  BASE  2.3226   137  2.75184  133  -5.9  100   -5.9  193   0     1013.9   NA       0.0000   9999     0     0     0    
2019/08/21  16:09:01  BASE  2.15796  135  2.75184  133  -5.9  100   -5.9  209   0     1013.9   NA       0.0000   9999     0     0     0    
2019/08/21  16:10:01  BASE  2.15796  134  2.75184  133  -5.9  100   -5.9  189   0     1013.9   NA       0.0000   9999     0     0     0    
2019/08/21  16:11:01  BASE  2.19324  134  2.75184  133  -5.8  100   -5.8  172   0     1013.9   NA       0.0000   9999     0     0     0    
2019/08/21  16:12:01  BASE  2.21088  137  2.75184  133  -5.8  100   -5.8  154   0     1013.9   NA       0.0000   9999     0     0     0    
2019/08/21  16:13:01  BASE  2.19912  136  2.75184  133  -5.9  100   -5.9  167   0     1013.9   NA       0.0000   9999     0     0     0    
2019/08/21  16:14:01  BASE  2.24028  134  2.75184  133  -5.9  100   -5.9  183   0     1013.9   NA       0.0000   9999     0     0     0    
2019/08/21  16:15:01  BASE  2.26968  136  2.75184  133  -5.9  100   -5.9  191   0     1013.9   NA       0.0000   9999     0     0     0    
2019/08/21  16:16:01  BASE  2.22264  135  2.63424  138  -5.9  100   -5.9  197   0     1014.0   NA       0.0000   9999     0     0     0    
2019/08/21  16:17:01  BASE  2.14032  136  2.63424  138  -5.9  100   -5.9  217   0     1014.0   NA       0.0000   9999     0     0     0    
2019/08/21  16:18:01  BASE  2.06388  136  2.63424  138  -5.8  100   -5.8  191   0     1014.0   NA       0.0000   9999     0     0     0    
2019/08/21  16:19:01  BASE  2.0286   138  2.63424  138  -5.8  100   -5.8  197   0     1014.0   NA       0.0000   9999     0     0     0    
2019/08/21  16:20:01  BASE  2.04036  139  2.63424  138  -5.8  100   -5.8  199   0     1014.1   NA       0.0000   9999     0     0     0    
2019/08/21  16:21:01  BASE  2.09916  134  2.63424  138  -5.8  100   -5.8  207   0     1014.1   NA       0.0000   9999     0     0     0    
2019/08/21  16:22:01  BASE  2.1462   133  2.63424  138  -5.8  100   -5.8  201   0     1014.0   NA       0.0000   9999     0     0     0    
2019/08/21  16:23:01  BASE  2.11092  131  2.63424  138  -5.9  100   -5.9  213   0     1014.1   NA       0.0000   9999     750   0     0    
2019/08/21  16:24:01  BASE  2.06388  129  2.35788  137  -5.9  100   -5.9  217   0     1014.1   NA       0.0000   9999     720   0     0    
2019/08/21  16:25:01  BASE  2.07564  136  2.29908  136  -5.9  100   -5.9  218   0     1014.0   NA       0.0000   9999     750   0     0    
2019/08/21  16:26:00  BASE  2.10504  139  2.29908  136  -5.9  100   -5.9  213   0     1014.0   NA       0.0000   9999     790   0     0    
2019/08/21  16:27:00  BASE  2.06388  137  2.24028  141  -6.0  100   -6.0  212   0     1014.0   NA       0.0000   9999     750   0     0    
2019/08/21  16:28:00  BASE  1.99332  134  2.24028  141  -6.0  100   -6.0  212   0     1014.0   NA       0.0000   9999     720   0     0    
2019/08/21  16:29:00  BASE  2.00508  132  2.24028  141  -6.0  100   -6.0  205   0     1014.0   NA       0.0000   9999     690   0     0    
2019/08/21  16:30:00  BASE  2.1168   134  2.29908  135  -6.0  100   -6.0  202   0     1014.0   NA       0.0000   9999     660   0     0    
2019/08/21  16:31:01  BASE  2.22852  135  2.29908  138  -6.0  100   -6.0  202   0     1014.0   NA       0.0000   9999     660   0     0    
2019/08/21  16:32:01  BASE  2.24028  136  2.32848  139  -6.0  100   -6.0  198   0     1014.0   NA       0.0000   9999     660   0     0    
2019/08/21  16:33:01  BASE  2.13444  138  2.32848  139  -6.0  100   -6.0  196   0     1014.0   NA       0.0000   9999     0     0     0    
2019/08/21  16:34:01  BASE  2.08152  138  2.32848  139  -6.0  100   -6.0  199   0     1014.0   NA       0.0000   9999     490   0     0    
2019/08/21  16:35:01  BASE  1.9992   137  2.32848  139  -6.0  100   -6.0  196   0     1014.0   NA       0.0000   9999     0     0     0    
2019/08/21  16:36:01  BASE  1.81104  132  2.32848  139  -6.0  100   -6.0  196   0     1014.0   NA       0.0000   9999     0     0     0    
2019/08/21  16:37:01  BASE  1.72872  127  2.32848  139  -5.9  100   -5.9  196   0     1013.9   NA       0.0000   9999     0     0     0    
2019/08/21  16:38:01  BASE  1.81692  126  2.32848  139  -5.9  100   -5.9  195   0     1013.9   NA       0.0000   9999     0     0     0    
2019/08/21  16:39:01  BASE  1.91688  128  2.32848  139  -5.9  100   -5.9  197   0     1013.9   NA       0.0000   9999     0     0     0    
2019/08/21  16:40:01  BASE  1.93452  128  2.32848  139  -5.9  100   -5.9  198   0     1013.9   NA       0.0000   9999     0     0     0    
2019/08/21  16:41:01  BASE  1.93452  126  2.32848  139  -5.9  100   -5.9  197   0     1013.9   NA       0.0000   9999     0     0     0    
2019/08/21  16:42:01  BASE  1.86396  126  2.1462   143  -5.9  100   -5.9  196   0     1013.9   NA       0.0000   9999     0     0     0    
2019/08/21  16:43:01  BASE  1.77576  127  2.1462   143  -5.9  100   -5.9  198   0     1013.9   NA       0.0000   9999     0     0     0    
2019/08/21  16:44:01  BASE  1.81692  126  2.0874   132  -6.0  100   -6.0  196   0     1013.9   NA       0.0000   9999     0     0     0    
2019/08/21  16:45:01  BASE  1.86396  127  2.0874   132  -6.0  100   -6.0  194   0     1013.9   NA       0.0000   9999     0     0     0    
2019/08/21  16:46:01  BASE  1.8228   124  2.0874   132  -5.9  100   -5.9  193   0     1013.9   NA       0.0000   9999     0     0     0    
2019/08/21  16:47:01  BASE  1.80516  123  2.0874   132  -5.9  100   -5.9  190   0     1013.9   NA       0.0000   9999     0     0     0    
2019/08/21  16:48:01  BASE  1.66992  122  2.0874   132  -5.9  100   -5.9  189   0     1013.9   NA       0.0000   9999     0     0     0    
2019/08/21  16:49:01  BASE  1.51116  120  2.0874   132  -6.0  100   -6.0  192   0     1013.9   NA       0.0000   9999     0     0     0    
2019/08/21  16:50:01  BASE  1.47588  122  2.0286   141  -6.0  100   -6.0  194   0     1013.9   NA       0.0000   9999     0     0     0    
2019/08/21  16:51:01  BASE  1.31712  125  2.0286   141  -6.1  100   -6.1  195   0     1014.0   NA       0.0000   9999     0     0     0    
2019/08/21  16:52:01  BASE  1.11132  126  2.0286   141  -6.2  100   -6.2  192   0     1014.0   NA       0.0000   9999     0     0     0    
2019/08/21  16:53:01  BASE  0.882    132  2.0286   141  -6.3  100   -6.3  194   0     1013.9   NA       0.0000   9999     0     0     0    
2019/08/21  16:54:01  BASE  0.68796  126  2.0286   141  -6.3  100   -6.3  193   0     1014.0   NA       0.0000   9999     0     0     0    
2019/08/21  16:55:01  BASE  0.80556  120  1.93452  120  -6.3  100   -6.3  193   0     1013.9   NA       0.0000   9999     0     0     0    
2019/08/21  16:56:01  BASE  0.72912  128  1.93452  120  -6.3  100   -6.3  193   0     1013.9   NA       0.0000   9999     0     0     0    
2019/08/21  16:57:01  BASE  0.55272  127  1.75224  124  -6.3  100   -6.3  192   0     1013.9   NA       0.0000   9999     0     0     0    
2019/08/21  16:58:01  BASE  0.46452  122  1.63464  125  -6.3  100   -6.3  193   0     1013.9   NA       0.0000   9999     0     0     0    
2019/08/21  16:59:01  BASE  0.17052  128  1.54056  127  -6.3  100   -6.3  193   0     1013.9   NA       0.0000   9999     0     0     0    
2019/08/21  17:00:01  BASE  0        135  1.51116  123  -6.3  100   -6.3  191   0     1013.8   NA       0.0000   9999     0     0     0    
2019/08/21  17:01:01  BASE  0        135  1.24068  117  -6.2  100   -6.2  189   0     1013.8   NA       0.0000   9999     0     0     0    
2019/08/21  17:02:01  BASE  0        135  1.24068  117  -6.1  100   -6.1  186   0     1013.8   NA       0.0000   9999     0     0     0    
2019/08/21  17:03:01  BASE  0        133  1.24068  117  -6.1  100   -6.1  186   0     1013.8   NA       0.0000   9999     0     0     0    
2019/08/21  17:04:01  BASE  0        125  1.24068  117  -6.1  100   -6.1  190   0     1013.8   NA       0.0000   9999     0     0     0    
2019/08/21  17:05:01  BASE  0        121  0.87612  106  -6.1  100   -6.1  191   0     1013.7   NA       0.0000   9999     0     0     0    
2019/08/21  17:06:01  BASE  0        129  0.87612  106  -6.1  100   -6.1  194   0     1013.7   NA       0.0000   9999     0     0     0    
2019/08/21  17:07:01  BASE  0        144  0.75852  119  -6.1  100   -6.1  194   0     1013.8   NA       0.0000   9999     0     0     0    
2019/08/21  17:08:01  BASE  0        149  0        M    -6.1  100   -6.1  194   0     1013.8   NA       0.0000   9999     0     0     0    
2019/08/21  17:09:01  BASE  0        146  0        M    -6.1  100   -6.1  194   0     1013.8   NA       0.0000   9999     0     0     0    
2019/08/21  17:10:01  BASE  0        146  0        M    -6.1  100   -6.1  193   0     1013.7   NA       0.0000   9999     0     0     0    
2019/08/21  17:11:01  BASE  0        154  0        M    -6.0  100   -6.0  194   0     1013.7   NA       0.0000   9999     0     0     0    
2019/08/21  17:12:01  BASE  0        157  0        M    -6.0  100   -6.0  193   0     1013.7   NA       0.0000   9999     0     0     0    
2019/08/21  17:13:01  BASE  0        151  0        M    -6.0  100   -6.0  193   0     1013.7   NA       0.0000   9999     0     0     0    
2019/08/21  17:14:01  BASE  0        152  0        M    -6.0  100   -6.0  194   0     1013.8   NA       0.0000   9999     0     0     0    
2019/08/21  17:15:01  BASE  0        158  0        M    -6.0  100   -6.1  193   0     1013.7   NA       0.0000   9999     0     0     0    
2019/08/21  17:16:01  BASE  0        154  0        M    -6.1  100   -6.1  192   0     1013.8   NA       0.0000   9999     0     0     0    
2019/08/21  17:17:01  BASE  0        152  0        M    -6.1  100   -6.1  191   0     1013.8   NA       0.0000   9999     0     0     0    
2019/08/21  17:18:01  BASE  0        150  0        M    -6.1  100   -6.1  189   0     1013.8   NA       0.0000   9999     0     0     0    
2019/08/21  17:19:01  BASE  0        151  0        M    -6.1  100   -6.1  187   0     1013.8   NA       0.0000   9999     0     0     0    
2019/08/21  17:20:01  BASE  0        163  0        M    -6.1  100   -6.1  186   0     1013.8   NA       0.0000   9999     0     0     0    
2019/08/21  17:21:01  BASE  0        169  0        M    -6.1  100   -6.1  186   0     1013.8   NA       0.0000   9999     0     0     0    
2019/08/21  17:22:01  BASE  0        168  0        M    -6.1  100   -6.1  185   0     1013.8   NA       0.0000   9999     0     0     0    
2019/08/21  17:23:01  BASE  0        174  0        M    -6.1  100   -6.1  185   0     1013.8   NA       0.0000   9999     0     0     0    
2019/08/21  17:24:01  BASE  0        177  0        M    -6.2  100   -6.2  185   0     1013.8   NA       0.0000   9999     0     0     0    
2019/08/21  17:25:01  BASE  0        173  0        M    -6.2  100   -6.2  184   0     1013.8   NA       0.0000   9999     0     0     0    
2019/08/21  17:26:01  BASE  0        168  0        M    -6.2  100   -6.2  183   0     1013.8   NA       0.0000   9999     0     0     0    
2019/08/21  17:27:01  BASE  0        162  0        M    -6.2  100   -6.2  182   0     1013.8   NA       0.0000   9999     0     0     0    
2019/08/21  17:28:01  BASE  0        160  0        M    -6.1  100   -6.1  183   0     1013.8   NA       0.0000   9999     0     0     0    
2019/08/21  17:29:01  BASE  0        157  0        M    -6.1  100   -6.1  182   0     1013.8   NA       0.0000   9999     0     0     0    
2019/08/21  17:30:01  BASE  0        153  0        M    -6.0  100   -6.0  182   0     1013.8   NA       0.0000   9999     0     0     0    
2019/08/21  17:31:01  BASE  0        152  0        M    -6.0  100   -6.0  181   0     1013.8   NA       0.0000   9999     0     0     0    
2019/08/21  17:32:01  BASE  0        152  0        M    -6.0  100   -6.0  180   0     1013.8   NA       0.0000   9999     0     0     0    
2019/08/21  17:33:01  BASE  0        152  0        M    -6.0  100   -6.0  179   0     1013.8   NA       0.0000   9999     0     0     0    
2019/08/21  17:34:01  BASE  0        149  0        M    -6.0  100   -6.0  178   0     1013.8   NA       0.0000   9999     0     0     0    
2019/08/21  17:35:01  BASE  0        144  0        M    -6.0  100   -6.0  177   0     1013.8   NA       0.0000   9999     0     0     0    
2019/08/21  17:36:01  BASE  0        137  0        M    -6.1  100   -6.1  177   1     1013.8   NA       0.0000   9999     0     0     0    
2019/08/21  17:37:01  BASE  0        130  0        M    -6.1  100   -6.1  176   0     1013.8   NA       0.0000   9999     0     0     0    
2019/08/21  17:38:01  BASE  0        118  0        M    -6.1  100   -6.1  176   0     1013.8   NA       0.0000   9999     0     0     0    
2019/08/21  17:39:01  BASE  0        101  0        M    -6.1  100   -6.1  176   0     1013.8   NA       0.0000   9999     0     0     0    
2019/08/21  17:40:01  BASE  0        85   0        M    -6.1  100   -6.1  175   0     1013.8   NA       0.0000   9999     0     0     0    
2019/08/21  17:41:01  BASE  0        78   0        M    -6.2  100   -6.2  175   0     1013.8   NA       0.0000   9999     0     0     0    
2019/08/21  17:42:01  BASE  0        69   0        M    -6.2  100   -6.2  174   0     1013.8   NA       0.0000   9999     0     0     0    
2019/08/21  17:43:01  BASE  0        63   0        M    -6.2  100   -6.2  173   0     1013.7   NA       0.0000   9999     0     0     0    
2019/08/21  17:44:01  BASE  0        64   0        M    -6.3  100   -6.3  171   1     1013.8   NA       0.0000   9999     0     0     0    
2019/08/21  17:45:01  BASE  0        67   0        M    -6.2  100   -6.2  170   0     1013.8   NA       0.0000   9999     0     0     0    
2019/08/21  17:46:01  BASE  0        68   0        M    -6.3  100   -6.3  170   0     1013.8   NA       0.0000   9999     0     0     0    
2019/08/21  17:47:01  BASE  0        70   0        M    -6.3  100   -6.3  169   0     1013.7   NA       0.0000   9999     0     0     0    
2019/08/21  17:48:01  BASE  0        69   0        M    -6.2  100   -6.2  167   1     1013.7   NA       0.0000   9999     0     0     0    
2019/08/21  17:49:01  BASE  0        69   0        M    -6.3  100   -6.3  167   1     1013.7   NA       0.0000   9999     0     0     0    
2019/08/21  17:50:01  BASE  0        70   0        M    -6.3  100   -6.3  166   0     1013.7   NA       0.0000   9999     0     0     0    
2019/08/21  17:51:01  BASE  0        70   0        M    -6.3  100   -6.3  165   0     1013.7   NA       0.0000   9999     0     0     0    
2019/08/21  17:52:01  BASE  0        67   0        M    -6.2  100   -6.2  164   0     1013.7   NA       0.0000   9999     0     0     0    
2019/08/21  17:53:01  BASE  0        67   0        M    -6.2  100   -6.2  164   0     1013.7   NA       0.0000   9999     0     0     0    
2019/08/21  17:54:01  BASE  0        73   0        M    -6.1  100   -6.1  163   0     1013.7   NA       0.0000   9999     0     0     0    
2019/08/21  17:55:01  BASE  0        80   0        M    -6.1  100   -6.1  163   0     1013.7   NA       0.0000   9999     0     0     0    
2019/08/21  17:56:01  BASE  0        78   0        M    -6.1  100   -6.1  162   0     1013.7   NA       0.0000   9999     0     0     0    
2019/08/21  17:57:01  BASE  0        79   0        M    -6.0  100   -6.0  161   0     1013.7   NA       0.0000   9999     0     0     0    
2019/08/21  17:58:01  BASE  0        92   0        M    -6.0  100   -6.0  160   0     1013.7   NA       0.0000   9999     0     0     0    
2019/08/21  17:59:01  BASE  0        97   0        M    -6.0  100   -6.0  159   0     1013.7   NA       0.0000   9999     0     0     0    
2019/08/21  18:00:01  BASE  0        104  0        M    -6.0  100   -6.0  158   1     1013.7   NA       0.0000   9999     0     0     0    
2019/08/21  18:01:01  BASE  0        122  0        M    -5.9  100   -5.9  156   0     1013.7   NA       0.0000   9999     0     0     0    
2019/08/21  18:02:01  BASE  0        134  0        M    -5.9  100   -5.9  156   0     1013.7   NA       0.0000   9999     0     0     0    
2019/08/21  18:03:01  BASE  0        137  0        M    -5.9  100   -5.9  156   0     1013.7   NA       0.0000   9999     0     0     0    
2019/08/21  18:04:01  BASE  0        138  0        M    -5.9  100   -5.9  155   1     1013.7   NA       0.0000   9999     0     0     0    
2019/08/21  18:05:01  BASE  0        133  0        M    -5.9  100   -5.9  154   0     1013.7   NA       0.0000   9999     0     0     0    
2019/08/21  18:06:01  BASE  0        128  0        M    -6.0  100   -6.0  153   1     1013.7   NA       0.0000   9999     0     0     0    
2019/08/21  18:07:01  BASE  0        126  0        M    -6.0  100   -6.0  152   0     1013.7   NA       0.0000   9999     0     0     0    
2019/08/21  18:08:01  BASE  0        126  0        M    -5.9  100   -5.9  151   0     1013.7   NA       0.0000   9999     0     0     0    
2019/08/21  18:09:01  BASE  0        126  0        M    -5.9  100   -5.9  151   0     1013.7   NA       0.0000   9999     0     0     0    
2019/08/21  18:10:01  BASE  0        126  0        M    -5.9  100   -5.9  150   2     1013.7   NA       0.0000   9999     0     0     0    
2019/08/21  18:11:01  BASE  0        126  0        M    -5.8  100   -5.8  150   0     1013.7   NA       0.0000   9999     0     0     0    
2019/08/21  18:12:01  BASE  0        126  0        M    -5.8  100   -5.8  149   0     1013.8   NA       0.0000   9999     0     0     0    
2019/08/21  18:13:01  BASE  0        126  0        M    -5.8  100   -5.8  148   0     1013.7   NA       0.0000   9999     0     0     0    
2019/08/21  18:14:01  BASE  0        131  0        M    -5.7  100   -5.7  147   0     1013.7   NA       0.0000   9999     0     0     0    
2019/08/21  18:15:01  BASE  0        140  0        M    -5.7  100   -5.7  146   0     1013.7   NA       0.0000   9999     0     0     0    
2019/08/21  18:16:01  BASE  0        145  0        M    -5.7  100   -5.7  145   2     1013.7   NA       0.0000   9999     0     0     0    
2019/08/21  18:17:00  BASE  0        145  0        M    -5.7  100   -5.7  144   0     1013.7   NA       0.0000   9999     0     0     0    
2019/08/21  18:18:01  BASE  0        145  0        M    -5.8  100   -5.8  142   0     1013.7   NA       0.0000   9999     0     0     0    
2019/08/21  18:19:01  BASE  0        145  0        M    -5.9  100   -5.9  139   0     1013.7   NA       0.0000   9999     0     0     0    
2019/08/21  18:20:01  BASE  0        145  0        M    -6.0  100   -6.0  136   1     1013.7   NA       0.0000   9999     0     0     0    
2019/08/21  18:21:01  BASE  0        145  0        M    -6.0  100   -6.0  135   0     1013.7   NA       0.0000   9999     0     0     0    
2019/08/21  18:22:01  BASE  0        145  0        M    -5.9  100   -5.9  134   0     1013.7   NA       0.0000   9999     0     0     0    
2019/08/21  18:23:00  BASE  0        126  0        M    -5.9  100   -5.9  134   0     1013.7   NA       0.0000   9999     0     0     0    
2019/08/21  18:24:01  BASE  0.18816  62   0.72324  37   -5.9  100   -5.9  133   0     1013.7   NA       0.0000   9999     0     0     0    
2019/08/21  18:25:01  BASE  0.4704   35   0.75852  30   -6.1  100   -6.1  133   0     1013.7   NA       0.0000   9999     0     0     0    
2019/08/21  18:26:00  BASE  0.44688  26   0.75852  30   -6.2  100   -6.2  132   0     1013.7   NA       0.0000   9999     0     0     0    
2019/08/21  18:27:00  BASE  0.16464  18   0.75852  30   -6.4  100   -6.4  132   0     1013.7   NA       0.0000   9999     0     0     0    
2019/08/21  18:28:00  BASE  0        21   0.75852  30   -6.6  100   -6.6  130   0     1013.7   NA       0.0000   9999     0     0     0    
2019/08/21  18:29:00  BASE  0.0294   40   0.75852  30   -6.6  100   -6.6  129   3     1013.8   NA       0.0000   9999     0     0     0    
2019/08/21  18:30:01  BASE  0.0294   55   0.75852  30   -6.6  100   -6.6  128   4     1013.7   NA       0.0000   9999     0     0     0    
2019/08/21  18:31:00  BASE  0        54   0.75852  30   -6.6  100   -6.6  125   4     1013.7   NA       0.0000   9999     0     0     0    
2019/08/21  18:32:00  BASE  0.05292  54   0.75852  30   -6.6  100   -6.6  123   0     1013.7   NA       0.0000   9999     0     0     0    
2019/08/21  18:33:00  BASE  0.08232  54   0.75852  30   -6.7  100   -6.7  121   4     1013.8   NA       0.0000   9999     0     0     0    
2019/08/21  18:34:00  BASE  0.0294   54   0.75852  30   -6.8  100   -6.8  120   0     1013.8   NA       0.0000   9999     0     0     0    
2019/08/21  18:35:01  BASE  0        61   0.72324  14   -6.8  100   -6.8  118   4     1013.8   NA       0.0000   9999     0     0     0    
2019/08/21  18:36:00  BASE  0        76   0.69384  54   -6.8  100   -6.8  117   0     1013.8   NA       0.0000   9999     0     0     0    
2019/08/21  18:37:00  BASE  0.0294   85   0.69384  54   -6.8  100   -6.8  116   0     1013.8   NA       0.0000   9999     0     0     0    
2019/08/21  18:38:00  BASE  0.0294   92   0.69384  54   -6.6  100   -6.6  115   0     1013.8   NA       0.0000   9999     0     0     0    
2019/08/21  18:39:00  BASE  0        98   0.69384  54   -6.6  100   -6.6  113   4     1013.7   NA       0.0000   9999     0     0     0    
2019/08/21  18:40:00  BASE  0        99   0.69384  54   -6.5  100   -6.5  112   2     1013.7   NA       0.0000   9999     0     0     0    
2019/08/21  18:41:00  BASE  0        99   0.69384  54   -6.4  100   -6.4  111   4     1013.7   NA       0.0000   9999     0     0     0    
2019/08/21  18:42:00  BASE  0        99   0.69384  54   -6.4  100   -6.4  109   0     1013.7   NA       0.0000   9999     0     0     0    
2019/08/21  18:43:00  BASE  0        99   0.63504  84   -6.3  100   -6.3  108   0     1013.7   NA       0.0000   9999     0     0     0    
2019/08/21  18:44:00  BASE  0.0588   86   0.69384  58   -6.3  100   -6.3  106   0     1013.7   NA       0.0000   9999     0     0     0    
2019/08/21  18:45:00  BASE  0.4116   65   0.87612  53   -6.4  100   -6.4  105   4     1013.7   NA       0.0000   9999     0     0     0    
2019/08/21  18:46:00  BASE  0.81144  55   1.029    52   -6.5  100   -6.5  103   2     1013.7   NA       0.0000   9999     0     0     0    
2019/08/21  18:47:00  BASE  0.77028  51   1.029    52   -6.6  100   -6.6  100   1     1013.7   NA       0.0000   9999     0     0     0    
2019/08/21  18:48:00  BASE  0.6174   51   1.029    52   -6.8  100   -6.8  100   0     1013.7   NA       0.0000   9999     0     0     0    
2019/08/21  18:49:00  BASE  0.75852  55   1.1466   53   -6.8  100   -6.8  100   1     1013.7   NA       0.0000   9999     0     0     0    
2019/08/21  18:50:00  BASE  1.04076  54   1.21128  53   -6.8  100   -6.8  101   0     1013.7   NA       0.0000   9999     0     0     0    
2019/08/21  18:51:00  BASE  1.16424  53   1.21128  53   -6.8  100   -6.8  100   1     1013.7   NA       0.0000   9999     0     0     0    
2019/08/21  18:52:00  BASE  1.0878   53   1.21128  53   -6.8  100   -6.8  98    3     1013.7   NA       0.0000   9999     0     0     0    
2019/08/21  18:53:00  BASE  0.99372  54   1.21128  53   -6.8  100   -6.8  97    0     1013.7   NA       0.0000   9999     0     0     0    
2019/08/21  18:54:00  BASE  0.91728  56   1.21128  53   -6.8  100   -6.8  96    0     1013.7   NA       0.0000   9999     0     0     0    
2019/08/21  18:55:00  BASE  0.84084  53   1.21128  53   -6.8  100   -6.8  95    0     1013.7   NA       0.0000   9999     0     0     0    
2019/08/21  18:56:00  BASE  0.75852  53   1.21128  53   -6.8  100   -6.8  93    3     1013.7   NA       0.0000   9999     0     0     0    
2019/08/21  18:57:00  BASE  0.43512  56   1.21128  53   -6.8  100   -6.8  93    0     1013.7   NA       0.0000   9999     0     0     0    
2019/08/21  18:58:00  BASE  0.10584  64   1.21128  53   -6.8  100   -6.8  92    0     1013.7   NA       0.0000   9999     0     0     0    
2019/08/21  18:59:00  BASE  0.0294   70   1.21128  53   -6.8  100   -6.8  88    0     1013.7   NA       0.0000   9999     0     0     0    
2019/08/21  19:00:00  BASE  0        60   1.21128  53   -6.7  100   -6.7  86    3     1013.7   NA       0.0000   9999     0     0     0    
2019/08/21  19:01:00  BASE  0        45   1.1466   54   -6.7  100   -6.7  84    0     1013.7   NA       0.0000   9999     0     0     0    
2019/08/21  19:02:00  BASE  0.21168  33   1.0878   54   -6.7  100   -6.7  82    0     1013.7   NA       0.0000   9999     0     0     0    
2019/08/21  19:03:00  BASE  0.59388  34   1.029    58   -6.7  100   -6.7  80    0     1013.7   NA       0.0000   9999     0     0     0    
2019/08/21  19:04:00  BASE  0.63504  42   0.84672  41   -6.7  100   -6.7  78    3     1013.7   NA       0.0000   9999     0     0     0    
2019/08/21  19:05:00  BASE  0.32928  51   0.84672  41   -6.6  100   -6.6  76    0     1013.7   NA       0.0000   9999     0     0     0    
2019/08/21  19:06:00  BASE  0.07644  53   0.84672  41   -6.6  100   -6.6  76    3     1013.7   NA       0.0000   9999     0     0     0    
2019/08/21  19:07:00  BASE  0.13524  50   0.84672  41   -6.6  100   -6.6  76    0     1013.7   NA       0.0000   9999     0     0     0    
2019/08/21  19:08:00  BASE  0.45276  47   0.84672  41   -6.6  100   -6.6  76    1     1013.7   NA       0.0000   9999     0     0     0    
2019/08/21  19:09:00  BASE  0.78204  47   1.029    47   -6.6  100   -6.6  75    0     1013.7   NA       0.0000   9999     0     0     0    
2019/08/21  19:10:00  BASE  0.89964  47   1.029    47   -6.7  100   -6.7  73    0     1013.7   NA       0.0000   9999     0     0     0    
2019/08/21  19:11:00  BASE  0.81732  47   1.029    47   -6.7  100   -6.7  72    2     1013.7   NA       0.0000   9999     0     0     0    
2019/08/21  19:12:00  BASE  0.87612  47   1.0878   47   -6.7  100   -6.7  72    0     1013.7   NA       0.0000   9999     0     0     0    
2019/08/21  19:13:00  BASE  0.98196  47   1.0878   47   -6.8  100   -6.8  70    0     1013.7   NA       0.0000   9999     0     0     0    
2019/08/21  19:14:00  BASE  1.00548  47   1.0878   54   -6.8  100   -6.8  69    2     1013.7   NA       0.0000   9999     0     0     0    
2019/08/21  19:15:00  BASE  1.1172   54   1.29948  60   -6.8  100   -6.8  69    0     1013.7   NA       0.0000   9999     0     0     0    
2019/08/21  19:16:00  BASE  1.2054   59   1.35828  58   -6.8  100   -6.8  68    0     1013.7   NA       0.0000   9999     0     0     0    
2019/08/21  19:17:00  BASE  1.13484  57   1.35828  58   -6.8  100   -6.8  68    0     1013.7   NA       0.0000   9999     0     0     0    
2019/08/21  19:18:00  BASE  0.98784  54   1.35828  58   -6.8  100   -6.8  67    0     1013.7   NA       0.0000   9999     0     0     0    
2019/08/21  19:19:00  BASE  0.88788  48   1.35828  58   -6.8  100   -6.8  65    3     1013.6   NA       0.0000   9999     0     0     0    
2019/08/21  19:20:00  BASE  0.86436  44   1.35828  58   -6.8  100   -6.8  64    0     1013.6   NA       0.0000   9999     0     0     0    
2019/08/21  19:21:00  BASE  0.83496  45   1.35828  58   -6.8  100   -6.8  62    1     1013.6   NA       0.0000   9999     0     0     0    
2019/08/21  19:22:00  BASE  0.77028  47   1.35828  58   -6.7  100   -6.7  61    0     1013.6   NA       0.0000   9999     0     0     0    
2019/08/21  19:23:00  BASE  0.68208  49   1.35828  58   -6.7  100   -6.7  60    3     1013.6   NA       0.0000   9999     0     0     0    
2019/08/21  19:24:00  BASE  0.6174   58   1.35828  58   -6.6  100   -6.6  59    0     1013.6   NA       0.0000   9999     0     0     0    
2019/08/21  19:25:00  BASE  0.69384  66   1.35828  58   -6.5  100   -6.5  58    3     1013.6   NA       0.0000   9999     0     0     0    
2019/08/21  19:26:00  BASE  0.79968  60   1.1466   56   -6.5  100   -6.5  58    1     1013.6   NA       0.0000   9999     0     0     0    
2019/08/21  19:27:00  BASE  0.84084  49   1.1172   56   -6.5  100   -6.5  57    0     1013.6   NA       0.0000   9999     0     0     0    
2019/08/21  19:28:00  BASE  0.86436  45   0.9702   61   -6.5  100   -6.5  56    1     1013.6   NA       0.0000   9999     0     0     0    
2019/08/21  19:29:00  BASE  0.81144  44   0.9702   61   -6.5  100   -6.5  55    0     1013.6   NA       0.0000   9999     0     0     0    
2019/08/21  19:30:00  BASE  0.5586   44   0.9702   61   -6.6  100   -6.6  55    3     1013.6   NA       0.0000   9999     0     0     0    
2019/08/21  19:31:00  BASE  0.3822   44   0.9702   61   -6.6  100   -6.6  54    3     1013.6   NA       0.0000   9999     0     0     0    
2019/08/21  19:32:00  BASE  0.57036  45   0.9702   61   -6.6  100   -6.6  54    3     1013.6   NA       0.0000   9999     0     0     0    
2019/08/21  19:33:00  BASE  0.75852  48   0.9702   61   -6.6  100   -6.6  53    0     1013.6   NA       0.0000   9999     0     0     0    
2019/08/21  19:34:00  BASE  0.74088  52   0.9702   61   -6.5  100   -6.5  52    0     1013.6   NA       0.0000   9999     0     0     0    
2019/08/21  19:35:00  BASE  0.6174   55   0.9702   61   -6.5  100   -6.5  51    0     1013.6   NA       0.0000   9999     0     0     0    
2019/08/21  19:36:00  BASE  0.34104  58   0.93492  44   -6.4  100   -6.4  50    4     1013.6   NA       0.0000   9999     0     0     0    
2019/08/21  19:37:00  BASE  0.07644  59   0.93492  44   -6.3  100   -6.3  49    3     1013.6   NA       0.0000   9999     0     0     0    
2019/08/21  19:38:00  BASE  0        57   0.84672  47   -6.3  100   -6.3  49    0     1013.6   NA       0.0000   9999     0     0     0    
2019/08/21  19:39:00  BASE  0.0294   55   0.84672  47   -6.3  100   -6.3  48    4     1013.6   NA       0.0000   9999     0     0     0    
2019/08/21  19:40:00  BASE  0.441    48   0.90552  37   -6.3  100   -6.3  47    4     1013.6   NA       0.0000   9999     0     0     0    
2019/08/21  19:41:00  BASE  0.79968  36   0.90552  37   -6.4  100   -6.4  47    4     1013.6   NA       0.0000   9999     0     0     0    
2019/08/21  19:42:00  BASE  0.8232   32   0.93492  34   -6.5  100   -6.5  46    0     1013.6   NA       0.0000   9999     0     0     0    
2019/08/21  19:43:00  BASE  0.89964  34   0.9702   37   -6.5  100   -6.5  45    1     1013.6   NA       0.0000   9999     0     0     0    
2019/08/21  19:44:00  BASE  0.91728  37   0.9702   37   -6.5  100   -6.5  45    0     1013.6   NA       0.0000   9999     0     0     0    
2019/08/21  19:45:00  BASE  0.92316  35   0.9702   32   -6.6  100   -6.6  44    2     1013.6   NA       0.0000   9999     0     0     0    
2019/08/21  19:46:00  BASE  0.92904  30   0.9702   26   -6.6  100   -6.6  43    0     1013.6   NA       0.0000   9999     0     0     0    
2019/08/21  19:47:00  BASE  0.89376  27   0.9702   26   -6.7  100   -6.7  42    3     1013.6   NA       0.0000   9999     0     0     0    
2019/08/21  19:48:00  BASE  0.8232   24   0.9702   26   -6.7  100   -6.7  41    3     1013.6   NA       0.0000   9999     0     0     0    
2019/08/21  19:49:00  BASE  0.74676  21   0.9702   26   -6.8  100   -6.8  41    0     1013.6   NA       0.0000   9999     0     0     0    
2019/08/21  19:50:00  BASE  0.6762   7    0.9702   26   -6.9  100   -6.9  40    3     1013.6   NA       0.0000   9999     0     0     0    
2019/08/21  19:51:00  BASE  0.6762   353  0.9702   26   -6.9  100   -6.9  39    2     1013.6   NA       0.0000   9999     0     0     0    
2019/08/21  19:52:01  BASE  0.71148  351  0.9702   26   -7.0  100   -7.0  38    4     1013.6   NA       0.0000   9999     0     0     0    
2019/08/21  19:53:01  BASE  0.79968  352  0.9702   26   -7.0  100   -7.0  37    2     1013.6   NA       0.0000   9999     0     0     0    
2019/08/21  19:54:01  BASE  0.86436  352  0.9702   26   -7.0  100   -7.0  36    4     1013.6   NA       0.0000   9999     0     0     0    
2019/08/21  19:55:01  BASE  0.84084  352  0.9702   26   -7.0  100   -7.0  36    1     1013.6   NA       0.0000   9999     0     0     0    
2019/08/21  19:56:01  BASE  0.85848  354  0.9702   1    -7.0  100   -7.0  35    3     1013.6   NA       0.0000   9999     0     0     0    
2019/08/21  19:57:01  BASE  0.92316  358  0.9702   360  -7.1  100   -7.1  34    0     1013.6   NA       0.0000   9999     0     0     0    
2019/08/21  19:58:01  BASE  0.94668  0    0.9702   1    -7.2  100   -7.2  34    3     1013.6   NA       0.0000   9999     0     0     0    
2019/08/21  19:59:01  BASE  0.94668  1    0.9702   1    -7.3  100   -7.3  33    0     1013.6   NA       0.0000   9999     0     0     0    
2019/08/21  20:00:01  BASE  0.94668  1    0.9996   360  -7.3  100   -7.3  32    4     1013.6   NA       0.0000   9999     0     0     0    
2019/08/21  20:01:01  BASE  0.92904  1    0.9996   360  -7.3  100   -7.3  31    0     1013.6   NA       0.0000   9999     0     0     0    
2019/08/21  20:02:01  BASE  0.87024  0    0.9996   360  -7.3  100   -7.3  30    3     1013.6   NA       0.0000   9999     0     0     0    
2019/08/21  20:03:01  BASE  0.87024  356  0.9996   360  -7.3  100   -7.3  30    0     1013.6   NA       0.0000   9999     0     0     0    
2019/08/21  20:04:01  BASE  0.86436  352  0.9996   360  -7.2  100   -7.2  29    4     1013.6   NA       0.0000   9999     0     0     0    
2019/08/21  20:05:00  BASE  0.84084  349  0.9996   360  -7.2  100   -7.2  28    0     1013.6   NA       0.0000   9999     0     0     0    
2019/08/21  20:06:01  BASE  0.92316  346  1.029    346  -7.1  100   -7.1  27    2     1013.6   NA       0.0000   9999     0     0     0    
2019/08/21  20:07:01  BASE  1.01724  347  1.0878   350  -7.1  100   -7.1  27    1     1013.6   NA       0.0000   9999     0     0     0    
2019/08/21  20:08:01  BASE  1.0878   353  1.1466   1    -7.1  100   -7.1  26    3     1013.6   NA       0.0000   9999     0     0     0    
2019/08/21  20:09:00  BASE  1.13484  358  1.21128  354  -7.1  100   -7.1  25    0     1013.6   NA       0.0000   9999     0     0     0    
2019/08/21  20:10:01  BASE  1.12896  356  1.21128  354  -7.1  100   -7.1  25    3     1013.6   NA       0.0000   9999     0     0     0    
2019/08/21  20:11:00  BASE  1.07604  355  1.21128  354  -7.1  100   -7.1  24    0     1013.6   NA       0.0000   9999     0     0     0    
2019/08/21  20:12:01  BASE  1.09368  357  1.27008  360  -7.1  100   -7.1  23    3     1013.6   NA       0.0000   9999     0     0     0    
2019/08/21  20:13:00  BASE  1.21716  2    1.35828  9    -7.1  100   -7.1  22    2     1013.6   NA       0.0000   9999     0     0     0    
2019/08/21  20:14:00  BASE  1.29948  3    1.35828  1    -7.1  100   -7.1  21    3     1013.6   NA       0.0000   9999     0     0     0    
2019/08/21  20:15:00  BASE  1.28772  3    1.35828  1    -7.1  100   -7.1  21    0     1013.6   NA       0.0000   9999     0     0     0    
2019/08/21  20:16:00  BASE  1.2054   5    1.35828  1    -7.1  100   -7.1  20    3     1013.6   NA       0.0000   9999     0     0     0    
2019/08/21  20:17:00  BASE  1.09956  8    1.35828  1    -7.1  100   -7.1  19    0     1013.6   NA       0.0000   9999     0     0     0    
2019/08/21  20:18:00  BASE  1.07604  11   1.35828  1    -7.1  100   -7.1  18    3     1013.6   NA       0.0000   9999     0     0     0    
2019/08/21  20:19:00  BASE  1.1172   17   1.35828  1    -7.1  100   -7.1  18    0     1013.6   NA       0.0000   9999     0     0     0    
2019/08/21  20:20:00  BASE  1.09956  21   1.35828  1    -7.1  100   -7.1  17    3     1013.6   NA       0.0000   9999     0     0     0    
2019/08/21  20:21:00  BASE  0.98784  24   1.35828  1    -7.1  100   -7.1  16    0     1013.6   NA       0.0000   9999     0     0     0    
2019/08/21  20:22:00  BASE  0.92316  24   1.35828  1    -7.1  100   -7.1  15    3     1013.6   NA       0.0000   9999     0     0     0    
2019/08/21  20:23:00  BASE  0.87024  23   1.35828  1    -7.1  100   -7.1  15    0     1013.6   NA       0.0000   9999     0     0     0    
2019/08/21  20:24:00  BASE  0.78792  25   1.35828  1    -7.1  100   -7.1  14    3     1013.6   NA       0.0000   9999     0     0     0    
2019/08/21  20:25:00  BASE  0.75264  25   1.29948  10   -7.1  100   -7.1  13    2     1013.6   NA       0.0000   9999     0     0     0    
2019/08/21  20:26:00  BASE  0.71736  22   1.18188  19   -7.1  100   -7.1  12    3     1013.6   NA       0.0000   9999     0     0     0    
2019/08/21  20:27:00  BASE  0.72324  21   1.18188  19   -7.0  100   -7.0  12    0     1013.6   NA       0.0000   9999     0     0     0    
2019/08/21  20:28:00  BASE  0.75264  19   1.18188  19   -7.0  100   -7.0  11    3     1013.6   NA       0.0000   9999     0     0     0    
2019/08/21  20:29:00  BASE  0.72912  19   1.1466   22   -6.9  100   -6.9  10    0     1013.6   NA       0.0000   9999     0     0     0    
2019/08/21  20:30:00  BASE  0.75264  25   1.029    20   -6.9  100   -6.9  10    0     1013.6   NA       0.0000   9999     0     0     0    
2019/08/21  20:31:00  BASE  0.80556  34   1.029    20   -6.9  100   -6.9  9     0     1013.6   NA       0.0000   9999     0     0     0    
2019/08/21  20:32:00  BASE  0.79968  39   0.90552  40   -6.8  100   -6.8  8     0     1013.6   NA       0.0000   9999     0     0     0    
2019/08/21  20:33:00  BASE  0.75852  39   0.90552  40   -6.8  100   -6.8  8     0     1013.6   NA       0.0000   9999     0     0     0    
2019/08/21  20:34:00  BASE  0.5586   39   0.90552  40   -6.8  100   -6.8  7     0     1013.6   NA       0.0000   9999     0     0     0    
2019/08/21  20:35:00  BASE  0.19404  39   0.90552  40   -6.7  100   -6.7  7     3     1013.6   NA       0.0000   9999     0     0     0    
2019/08/21  20:36:00  BASE  0.02352  39   0.90552  40   -6.7  100   -6.7  6     1     1013.6   NA       0.0000   9999     0     0     0    
2019/08/21  20:37:00  BASE  0.09996  39   0.90552  40   -6.7  100   -6.7  6     0     1013.6   NA       0.0000   9999     0     0     0    
2019/08/21  20:38:00  BASE  0.28812  35   0.90552  40   -6.7  100   -6.7  5     0     1013.6   NA       0.0000   9999     0     0     0    
2019/08/21  20:39:00  BASE  0.56448  35   0.90552  40   -6.7  100   -6.7  5     0     1013.6   NA       0.0000   9999     0     0     0    
2019/08/21  20:40:00  BASE  0.72324  38   0.90552  40   -6.7  100   -6.7  4     0     1013.6   NA       0.0000   9999     0     0     0    
2019/08/21  20:41:00  BASE  0.77028  40   0.90552  40   -6.7  100   -6.7  4     3     1013.6   NA       0.0000   9999     0     0     0    
2019/08/21  20:42:00  BASE  0.78204  40   0.87612  40   -6.7  100   -6.7  3     0     1013.5   NA       0.0000   9999     0     0     0    
2019/08/21  20:43:00  BASE  0.75852  40   0.87612  40   -6.7  100   -6.7  3     3     1013.4   NA       0.0000   9999     0     0     0    
2019/08/21  20:44:00  BASE  0.7056   40   0.87612  40   -6.7  100   -6.7  3     0     1013.4   NA       0.0000   9999     0     0     0    
2019/08/21  20:45:00  BASE  0.69384  40   0.87612  40   -6.7  100   -6.7  3     0     1013.4   NA       0.0000   9999     0     0     0    
2019/08/21  20:46:00  BASE  0.74088  40   0.87612  40   -6.7  100   -6.7  2     0     1013.4   NA       0.0000   9999     0     0     0    
2019/08/21  20:47:00  BASE  0.75264  41   0.87612  40   -6.7  100   -6.7  2     3     1013.4   NA       0.0000   9999     0     0     0    
2019/08/21  20:48:00  BASE  0.69972  40   0.87612  40   -6.7  100   -6.7  2     0     1013.4   NA       0.0000   9999     0     0     0    
2019/08/21  20:49:00  BASE  0.61152  40   0.87612  40   -6.7  100   -6.7  2     3     1013.4   NA       0.0000   9999     0     0     0    
2019/08/21  20:50:00  BASE  0.35868  39   0.87612  40   -6.7  100   -6.7  2     3     1013.4   NA       0.0000   9999     0     0     0    
2019/08/21  20:51:00  BASE  0.07644  35   0.81732  41   -6.7  100   -6.7  2     0     1013.4   NA       0.0000   9999     0     0     0    
2019/08/21  20:52:00  BASE  0        33   0.81732  41   -6.8  100   -6.8  2     0     1013.4   NA       0.0000   9999     0     0     0    
2019/08/21  20:53:00  BASE  0        31   0.81732  41   -6.8  100   -6.8  2     2     1013.5   NA       0.0000   9999     0     0     0    
2019/08/21  20:54:00  BASE  0        25   0.81732  41   -6.8  100   -6.8  2     2     1013.6   NA       0.0000   9999     0     0     0    
2019/08/21  20:55:00  BASE  0        22   0.81732  41   -6.9  100   -6.9  2     0     1013.5   NA       0.0000   9999     0     0     0    
2019/08/21  20:56:00  BASE  0        12   0.81732  41   -6.9  100   -6.9  2     2     1013.6   NA       0.0000   9999     460   0     0    
2019/08/21  20:57:00  BASE  0        351  0.72324  40   -6.9  100   -6.9  2     3     1013.6   NA       0.0000   9999     460   0     0    
2019/08/21  20:58:00  BASE  0        345  0.69384  40   -6.9  100   -6.9  2     3     1013.6   NA       0.0000   9999     460   0     0    
2019/08/21  20:59:00  BASE  0        0    0.60564  39   -6.9  100   -6.9  2     0     1013.6   NA       0.0000   9999     300   0     0    
2019/08/21  21:00:00  BASE  0        10   0        M    -6.9  100   -6.9  2     3     1013.6   NA       0.0000   9999     300   0     0    
2019/08/21  21:01:00  BASE  0        9    0        M    -6.9  100   -6.9  2     0     1013.6   NA       0.0000   9999     300   0     0    
2019/08/21  21:02:00  BASE  0        2    0        M    -6.9  100   -6.9  2     0     1013.6   NA       0.0000   9999     0     0     0    
2019/08/21  21:03:00  BASE  0        354  0        M    -6.9  100   -6.9  2     0     1013.6   NA       0.0000   9999     390   0     0    
2019/08/21  21:04:00  BASE  0        348  0        M    -6.9  100   -6.9  2     3     1013.6   NA       0.0000   9999     390   0     0    
2019/08/21  21:05:00  BASE  0        344  0        M    -6.9  100   -6.9  1     0     1013.6   NA       0.0000   9999     430   0     0    
2019/08/21  21:06:00  BASE  0        346  0        M    -6.9  100   -6.9  1     0     1013.7   NA       0.0000   9999     0     0     0    
2019/08/21  21:07:00  BASE  0        350  0        M    -6.9  100   -6.9  1     0     1013.7   NA       0.0000   9999     360   0     0    
2019/08/21  21:08:00  BASE  0        353  0        M    -6.9  100   -6.9  1     3     1013.7   NA       0.0000   9999     390   0     0    
2019/08/21  21:09:00  BASE  0        359  0        M    -6.9  100   -6.9  1     0     1013.7   NA       0.0000   9999     360   0     0    
2019/08/21  21:10:00  BASE  0        0    0        M    -6.9  100   -6.9  1     3     1013.7   NA       0.0000   9999     360   0     0    
2019/08/21  21:11:00  BASE  0        6    0        M    -6.9  100   -6.9  1     3     1013.7   NA       0.0000   9999     360   0     0    
2019/08/21  21:12:00  BASE  0        22   0        M    -6.9  100   -6.9  1     2     1013.7   NA       0.0000   9999     300   0     0    
2019/08/21  21:13:00  BASE  0        23   0        M    -6.9  100   -6.9  1     1     1013.7   NA       0.0000   9999     330   0     0    
2019/08/21  21:14:00  BASE  0.02352  22   0.60564  42   -6.9  100   -6.9  1     0     1013.7   NA       0.0000   9999     300   0     0    
2019/08/21  21:15:00  BASE  0.19992  38   0.81732  43   -7.0  100   -7.0  1     0     1013.7   NA       0.0000   9999     300   0     0    
2019/08/21  21:16:00  BASE  0.1764   46   0.81732  43   -7.0  100   -7.0  1     0     1013.7   NA       0.0000   9999     300   0     0    
2019/08/21  21:17:00  BASE  0        42   0.81732  43   -6.9  100   -6.9  1     2     1013.7   NA       0.0000   9999     300   0     0    
2019/08/21  21:18:00  BASE  0        32   0.81732  43   -6.9  100   -6.9  1     0     1013.7   NA       0.0000   9000     330   0     0    
2019/08/21  21:19:00  BASE  0        25   0.81732  43   -6.9  100   -6.9  1     2     1013.7   NA       0.0000   9999     430   0     0    
2019/08/21  21:20:00  BASE  0        27   0.81732  43   -6.9  100   -6.9  1     0     1013.7   NA       0.0000   9999     490   0     0    
2019/08/21  21:21:00  BASE  0        37   0.81732  43   -6.9  100   -6.9  1     0     1013.7   NA       0.0000   9999     0     0     0    
2019/08/21  21:22:00  BASE  0        42   0.81732  43   -6.9  100   -6.9  1     2     1013.7   NA       0.0000   9000     0     0     0    
2019/08/21  21:23:00  BASE  0        42   0.81732  43   -6.8  100   -6.8  0     0     1013.7   NA       0.0000   9000     0     0     0    
2019/08/21  21:24:01  BASE  0        42   0.81732  43   -6.8  100   -6.8  1     3     1013.7   NA       0.0000   9999     520   0     0    
2019/08/21  21:25:00  BASE  0        41   0        M    -6.8  100   -6.8  1     0     1013.7   NA       0.0000   9000     0     0     0    
2019/08/21  21:26:00  BASE  0        44   0        M    -6.8  100   -6.8  1     0     1013.7   NA       0.0000   BR       7000  520   0    
2019/08/21  21:27:00  BASE  0        47   0        M    -6.8  100   -6.8  1     1     1013.7   NA       0.0000   BR       8000  360   0    
2019/08/21  21:28:00  BASE  0        49   0        M    -6.8  100   -6.8  0     1     1013.7   NA       0.0000   BR       7000  390   0    
2019/08/21  21:29:00  BASE  0        50   0        M    -6.8  100   -6.8  0     0     1013.7   NA       0.0000   BR       5000  360   0    
2019/08/21  21:30:00  BASE  0        49   0        M    -6.9  100   -6.9  0     0     1013.7   NA       0.0000   BR       6000  390   0    
2019/08/21  21:31:00  BASE  0        46   0        M    -6.9  100   -6.9  0     1     1013.7   NA       0.0000   BR       7000  390   0    
2019/08/21  21:32:00  BASE  0        45   0        M    -6.9  100   -6.9  0     1     1013.7   NA       0.0000   BR       6000  430   0    
2019/08/21  21:33:00  BASE  0        45   0        M    -6.8  100   -6.8  0     0     1013.7   NA       0.0000   BR       6000  430   0    
2019/08/21  21:34:00  BASE  0.18816  45   0.69384  45   -6.8  100   -6.8  0     0     1013.7   NA       0.0000   BR       8000  460   0    
2019/08/21  21:35:00  BASE  0.46452  45   0.72324  45   -6.9  100   -6.9  0     1     1013.7   NA       0.0000   BR       9999  460   0    
2019/08/21  21:36:00  BASE  0.43512  45   0.72324  45   -6.9  100   -6.9  0     1     1013.7   NA       0.0000   BR       9999  490   0    
2019/08/21  21:37:00  BASE  0.15876  45   0.72324  45   -6.9  100   -6.9  0     2     1013.7   NA       0.0000   BR       9999  460   0    
2019/08/21  21:38:00  BASE  0        45   0.72324  45   -6.9  100   -6.9  0     1     1013.7   NA       0.0000   BR       8000  430   0    
2019/08/21  21:39:00  BASE  0.21168  45   0.72324  45   -6.9  100   -6.9  0     0     1013.7   NA       0.0000   BR       9999  330   0    
2019/08/21  21:40:00  BASE  0.51744  45   0.75852  45   -6.9  100   -6.9  0     0     1013.7   NA       0.0000   BR       9999  300   0    
2019/08/21  21:41:00  BASE  0.65856  45   0.75852  45   -6.9  100   -6.9  0     0     1013.7   NA       0.0000   BR       8000  300   0    
2019/08/21  21:42:00  BASE  0.43512  45   0.75852  45   -6.9  100   -6.9  0     2     1013.7   NA       0.0000   BR       7000  0     0    
2019/08/21  21:43:00  BASE  0.07644  46   0.75852  45   -6.9  100   -6.9  0     0     1013.7   NA       0.0000   BR       9999  0     0    
2019/08/21  21:44:00  BASE  0        46   0.75852  45   -6.9  100   -6.9  0     0     1013.7   NA       0.0000   BR       9999  0     0    
2019/08/21  21:45:00  BASE  0        46   0.75852  45   -6.9  100   -6.9  0     0     1013.7   NA       0.0000   BR       9999  0     0    
2019/08/21  21:46:00  BASE  0        45   0.75852  45   -6.9  100   -6.9  0     0     1013.7   NA       0.0000   BR       9999  0     0    
2019/08/21  21:47:00  BASE  0        45   0.75852  45   -6.9  100   -6.9  0     3     1013.7   NA       0.0000   BR       9999  0     0    
2019/08/21  21:48:00  BASE  0        45   0.75852  45   -6.9  100   -6.9  0     0     1013.8   NA       0.0000   BR       9999  0     0    
2019/08/21  21:49:01  BASE  0        45   0.75852  45   -7.0  100   -7.0  0     3     1013.8   NA       0.0000   9999     0     0     0    
2019/08/21  21:50:00  BASE  0        45   0.75852  45   -7.0  100   -7.0  0     2     1013.7   NA       0.0000   BR       9999  0     0    
2019/08/21  21:51:00  BASE  0        45   0.63504  45   -7.0  100   -7.0  0     2     1013.7   NA       0.0000   BR       8000  0     0    
2019/08/21  21:52:00  BASE  0        46   0        M    -7.0  100   -7.0  0     0     1013.7   NA       0.0000   8000     0     0     0    
2019/08/21  21:53:00  BASE  0        46   0        M    -7.0  100   -7.0  0     0     1013.7   NA       0.0000   BR       8000  0     0    
2019/08/21  21:54:00  BASE  0        47   0        M    -7.0  100   -7.0  0     0     1013.7   NA       0.0000   BR       8000  0     0    
2019/08/21  21:55:00  BASE  0        51   0        M    -7.0  100   -7.0  0     0     1013.7   NA       0.0000   BR       9000  0     0    
2019/08/21  21:56:00  BASE  0        54   0        M    -7.0  100   -7.0  0     0     1013.7   NA       0.0000   BR       8000  0     0    
2019/08/21  21:57:00  BASE  0.2352   55   0.81732  54   -7.0  100   -7.0  0     3     1013.7   NA       0.0000   BR       6000  0     0    
2019/08/21  21:58:00  BASE  0.65268  54   0.87612  52   -7.0  100   -7.0  0     1     1013.7   NA       0.0000   BR       6000  0     0    
2019/08/21  21:59:00  BASE  0.81144  53   0.90552  53   -7.0  100   -7.0  0     2     1013.7   NA       0.0000   BR       5000  0     0    
2019/08/21  22:00:00  BASE  0.84672  54   0.9702   56   -7.1  100   -7.1  0     0     1013.7   NA       0.0000   BR       5000  0     0    
2019/08/21  22:01:00  BASE  0.87612  55   0.9702   56   -7.1  100   -7.1  0     2     1013.7   NA       0.0000   BR       4800  0     0    
2019/08/21  22:02:00  BASE  0.75852  56   0.9702   56   -7.1  100   -7.1  0     0     1013.7   NA       0.0000   BR       4100  0     0    
2019/08/21  22:03:00  BASE  0.6762   55   0.9702   56   -7.1  100   -7.1  0     0     1013.7   NA       0.0000   BR       4000  0     0    
2019/08/21  22:04:00  BASE  0.62328  55   0.9702   56   -7.1  100   -7.1  0     0     1013.7   NA       0.0000   BR       4900  0     0    
2019/08/21  22:05:01  BASE  0.28224  57   0.9702   56   -7.0  100   -7.0  0     0     1013.7   NA       0.0000   BR       6000  0     0    
2019/08/21  22:06:01  BASE  0        58   0.9702   56   -7.0  100   -7.0  0     0     1013.7   NA       0.0000   BR       8000  0     0    
2019/08/21  22:10:00  BASE  M        M    M        M    -6.8  100   -6.8  0     1     1013.7   NA       0.0000   9999     0     0     0    
2019/08/21  22:11:00  BASE  0        60   0        M    -6.8  100   -6.8  0     1     1013.7   NA       0.0000   9999     0     0     0    
2019/08/21  22:12:00  BASE  0        61   0        M    -6.7  100   -6.7  0     0     1013.7   NA       0.0000   9999     0     0     0    
2019/08/21  22:13:00  BASE  0        63   0        M    -6.7  100   -6.7  0     1     1013.7   NA       0.0000   9999     0     0     0    
2019/08/21  22:14:00  BASE  0        73   0        M    -6.7  100   -6.7  0     0     1013.7   NA       0.0000   9999     0     0     0    
2019/08/21  22:15:00  BASE  0        85   0        M    -6.7  100   -6.7  0     0     1013.7   NA       0.0000   9999     0     0     0    
2019/08/21  22:16:00  BASE  0        88   0        M    -6.7  100   -6.7  0     0     1013.7   NA       0.0000   9999     0     0     0    
2019/08/21  22:17:00  BASE  0        88   0        M    -6.7  100   -6.7  0     0     1013.7   NA       0.0000   9999     0     0     0    
2019/08/21  22:18:00  BASE  0        88   0        M    -6.7  100   -6.7  0     0     1013.8   NA       0.0000   9999     0     0     0    
2019/08/21  22:19:00  BASE  0        88   0        M    -6.7  100   -6.7  0     2     1013.8   NA       0.0000   9999     0     0     0    
2019/08/21  22:20:01  BASE  0        88   0        M    -6.8  100   -6.8  0     0     1013.8   NA       0.0000   9999     0     0     0    
2019/08/21  22:21:01  BASE  0        88   0        M    -6.8  100   -6.8  0     0     1013.8   NA       0.0000   9999     0     0     0    
2019/08/21  22:22:00  BASE  0        88   0        M    -6.9  100   -6.9  0     0     1013.8   NA       0.0000   6000     0     0     0    
2019/08/21  22:23:00  BASE  0        88   0        M    -6.9  100   -6.9  0     0     1013.9   NA       0.0000   3800     0     0     0    
2019/08/21  22:24:00  BASE  0        88   0        M    -6.9  100   -6.9  0     0     1013.9   NA       0.0000   BR       3800  0     0    
2019/08/21  22:25:01  BASE  0        88   0        M    -6.9  100   -6.9  0     0     1013.9   NA       0.0000   BR       4500  0     0    
2019/08/21  22:26:00  BASE  0        88   0        M    -6.9  100   -6.9  0     0     1013.9   NA       0.0000   BR       4700  0     0    
2019/08/21  22:27:00  BASE  0        88   0        M    -6.9  100   -6.9  0     0     1013.9   NA       0.0000   BR       8000  0     0    
2019/08/21  22:28:00  BASE  0        88   0        M    -6.9  100   -6.9  0     0     1013.9   NA       0.0000   BR       9999  0     0    
2019/08/21  22:29:01  BASE  0        88   0        M    -6.9  100   -6.9  0     0     1013.9   NA       0.0000   BR       9999  0     0    
2019/08/21  22:30:00  BASE  0        88   0        M    -6.9  100   -6.9  0     1     1013.9   NA       0.0000   BR       9000  0     0    
2019/08/21  22:31:00  BASE  0        88   0        M    -6.9  100   -6.9  0     0     1013.9   NA       0.0000   BR       5000  0     0    
2019/08/21  22:32:00  BASE  0        88   0        M    -6.9  100   -6.9  0     0     1013.9   NA       0.0000   BR       3400  0     0    
2019/08/21  22:33:00  BASE  0        88   0        M    -6.9  100   -6.9  0     0     1013.9   NA       0.0000   BR       2600  0     0    
2019/08/21  22:34:00  BASE  0        88   0        M    -6.9  100   -6.9  0     0     1013.9   NA       0.0000   BR       2500  0     0    
2019/08/21  22:35:00  BASE  0        89   0        M    -6.9  100   -6.9  0     0     1013.9   NA       0.0000   BR       2300  0     0    
2019/08/21  22:36:01  BASE  0        95   0        M    -6.9  100   -6.9  0     0     1013.8   NA       0.0000   BR       2400  0     0    
2019/08/21  22:37:01  BASE  0        109  0        M    -6.9  100   -6.9  0     0     1013.8   NA       0.0000   BR       3500  0     0    
2019/08/21  22:38:01  BASE  0        98   0        M    -6.9  100   -6.9  0     0     1013.8   NA       0.0000   BR       6000  0     0    
2019/08/21  22:39:01  BASE  0.27048  70   0.9996   57   -6.9  100   -6.9  0     1     1013.8   NA       0.0000   BR       9999  0     0    
2019/08/21  22:40:00  BASE  0.65856  60   0.9996   57   -6.8  100   -6.8  0     0     1013.8   NA       0.0000   BR       9999  0     0    
2019/08/21  22:41:00  BASE  0.38808  70   0.9996   57   -6.8  100   -6.8  0     0     1013.8   NA       0.0000   BR       9999  0     0    
2019/08/21  22:42:00  BASE  0        77   0.9996   57   -6.7  100   -6.7  0     0     1013.8   NA       0.0000   BR       9999  0     0    
2019/08/21  22:43:00  BASE  0        74   0.9996   57   -6.7  100   -6.7  0     0     1013.8   NA       0.0000   BR       9999  0     0    
2019/08/21  22:44:00  BASE  0        74   0.9996   57   -6.6  100   -6.6  0     0     1013.8   NA       0.0000   BR       9999  0     0    
2019/08/21  22:45:00  BASE  0        74   0.9996   57   -6.6  100   -6.6  0     0     1013.8   NA       0.0000   BR       9999  0     0    
2019/08/21  22:46:00  BASE  0        68   0.9996   57   -6.7  100   -6.7  0     0     1013.8   NA       0.0000   9999     0     0     0    
2019/08/21  22:47:00  BASE  0.05292  55   0.9996   57   -6.7  100   -6.7  0     0     1013.7   NA       0.0000   9999     0     0     0    
2019/08/21  22:48:00  BASE  0.15876  48   0.9996   57   -6.8  100   -6.8  0     0     1013.7   NA       0.0000   9999     0     0     0    
2019/08/21  22:49:00  BASE  0.44688  47   0.87612  54   -6.8  100   -6.8  0     0     1013.7   NA       0.0000   9999     0     0     0    
2019/08/21  22:50:00  BASE  0.59388  47   0.72324  47   -6.9  100   -6.9  0     1     1013.7   NA       0.0000   9999     0     0     0    
2019/08/21  22:51:00  BASE  0.39396  47   0.72324  47   -7.0  100   -7.0  0     0     1013.7   NA       0.0000   9999     0     0     0    
2019/08/21  22:52:00  BASE  0.15288  47   0.72324  47   -7.0  100   -7.0  0     1     1013.7   NA       0.0000   9999     0     0     0    
2019/08/21  22:53:00  BASE  0.12936  45   0.72324  47   -7.1  100   -7.1  0     0     1013.7   NA       0.0000   9999     0     0     0    
2019/08/21  22:54:00  BASE  0.18228  41   0.72324  47   -7.1  100   -7.1  0     0     1013.7   NA       0.0000   9999     0     0     0    
2019/08/21  22:55:00  BASE  0.07644  34   0.72324  47   -7.1  100   -7.1  0     0     1013.7   NA       0.0000   9999     0     0     0    
2019/08/21  22:56:00  BASE  0        31   0.72324  47   -7.1  100   -7.1  0     0     1013.7   NA       0.0000   9999     0     0     0    
2019/08/21  22:57:00  BASE  0        31   0.72324  47   -7.1  100   -7.1  0     0     1013.7   NA       0.0000   9999     0     0     0    
2019/08/21  22:58:00  BASE  0        35   0.72324  47   -7.1  100   -7.1  0     0     1013.7   NA       0.0000   9999     0     0     0    
2019/08/21  22:59:00  BASE  0.02352  47   0.66444  39   -7.1  100   -7.1  0     0     1013.7   NA       0.0000   9999     0     0     0    
2019/08/21  23:00:00  BASE  0.02352  58   0.66444  39   -7.1  100   -7.1  0     0     1013.7   NA       0.0000   9999     0     0     0    
2019/08/21  23:01:00  BASE  0.15876  62   0.69384  61   -7.1  100   -7.1  0     1     1013.7   NA       0.0000   9999     0     0     0    
2019/08/21  23:02:00  BASE  0.46452  60   0.69384  54   -7.1  100   -7.1  0     0     1013.7   NA       0.0000   9999     0     0     0    
2019/08/21  23:03:00  BASE  0.64092  54   0.69384  48   -7.1  100   -7.1  0     0     1013.7   NA       0.0000   9999     0     0     0    
2019/08/21  23:04:00  BASE  0.4998   45   0.69384  47   -7.1  100   -7.1  0     0     1013.7   NA       0.0000   9999     0     0     0    
2019/08/21  23:05:00  BASE  0.49392  40   0.69384  39   -7.1  100   -7.1  0     0     1013.7   NA       0.0000   9999     0     0     0    
2019/08/21  23:06:00  BASE  0.6468   39   0.69384  39   -7.1  100   -7.1  0     0     1013.7   NA       0.0000   9999     0     0     0    
2019/08/21  23:07:00  BASE  0.6174   39   0.69384  39   -7.2  100   -7.2  0     0     1013.7   NA       0.0000   9999     0     0     0    
2019/08/21  23:08:00  BASE  0.43512  39   0.69384  39   -7.2  100   -7.2  0     0     1013.7   NA       0.0000   9999     0     0     0    
2019/08/21  23:09:00  BASE  0.15876  40   0.69384  39   -7.2  100   -7.2  0     0     1013.7   NA       0.0000   9999     0     0     0    
2019/08/21  23:10:00  BASE  0.02352  40   0.69384  39   -7.2  100   -7.2  0     1     1013.7   NA       0.0000   9999     0     0     0    
2019/08/21  23:11:00  BASE  0        39   0.69384  39   -7.2  100   -7.2  0     1     1013.7   NA       0.0000   9999     0     0     0    
2019/08/21  23:12:00  BASE  0        39   0.69384  39   -7.2  100   -7.2  0     1     1013.7   NA       0.0000   9999     0     0     0    
2019/08/21  23:13:00  BASE  0        39   0.69384  39   -7.1  100   -7.1  0     0     1013.7   NA       0.0000   9999     0     0     0    
2019/08/21  23:14:00  BASE  0        39   0.69384  39   -7.1  100   -7.1  0     0     1013.7   NA       0.0000   9999     0     0     0    
2019/08/21  23:15:00  BASE  0        34   0.69384  39   -7.1  100   -7.1  0     0     1013.7   NA       0.0000   9999     0     0     0    
2019/08/21  23:16:00  BASE  0        26   0.69384  39   -7.1  100   -7.1  0     0     1013.7   NA       0.0000   9999     0     0     0    
2019/08/21  23:17:00  BASE  0        23   0.63504  39   -7.1  100   -7.1  0     0     1013.7   NA       0.0000   9999     0     0     0    
2019/08/21  23:18:00  BASE  0        21   0.60564  40   -7.2  100   -7.2  0     0     1013.7   NA       0.0000   9999     0     0     0    
2019/08/21  23:19:00  BASE  0.07644  18   0.63504  18   -7.2  100   -7.2  0     0     1013.7   NA       0.0000   9999     0     0     0    
2019/08/21  23:20:00  BASE  0.07644  18   0.63504  18   -7.2  100   -7.2  0     0     1013.7   NA       0.0000   9999     0     0     0    
2019/08/21  23:21:00  BASE  0.3234   21   0.75852  25   -7.2  100   -7.2  0     1     1013.7   NA       0.0000   9999     0     0     0    
2019/08/21  23:22:00  BASE  0.71736  25   0.84672  33   -7.2  100   -7.2  0     0     1013.7   NA       0.0000   9999     0     0     0    
2019/08/21  23:23:00  BASE  0.79968  32   0.87612  41   -7.2  100   -7.2  0     1     1013.7   NA       0.0000   9999     0     0     0    
2019/08/21  23:24:00  BASE  0.8232   37   0.9702   42   -7.2  100   -7.2  0     0     1013.7   NA       0.0000   9999     0     0     0    
2019/08/21  23:25:00  BASE  0.71148  39   0.9702   42   -7.3  100   -7.3  0     0     1013.7   NA       0.0000   9999     0     0     0    
2019/08/21  23:26:00  BASE  0.65268  40   0.9702   42   -7.3  100   -7.3  0     0     1013.7   NA       0.0000   9999     0     0     0    
2019/08/21  23:27:00  BASE  0.72324  40   0.9702   42   -7.3  100   -7.3  0     0     1013.7   NA       0.0000   9999     0     0     0    
2019/08/21  23:28:00  BASE  0.72912  40   0.9702   42   -7.4  100   -7.4  0     0     1013.7   NA       0.0000   9999     0     0     0    
2019/08/21  23:29:00  BASE  0.69384  41   0.9702   42   -7.4  100   -7.4  0     0     1013.8   NA       0.0000   9999     0     0     0    
2019/08/21  23:30:00  BASE  0.6762   44   0.9702   42   -7.4  100   -7.4  0     1     1013.8   NA       0.0000   9999     0     0     0    
2019/08/21  23:31:00  BASE  0.68208  46   0.9702   42   -7.4  100   -7.4  0     1     1013.8   NA       0.0000   9999     0     0     0    
2019/08/21  23:32:00  BASE  0.5292   48   0.9702   42   -7.4  100   -7.4  0     1     1013.8   NA       0.0000   9999     0     0     0    
2019/08/21  23:33:00  BASE  0.18816  63   0.9702   42   -7.4  100   -7.4  0     0     1013.8   NA       0.0000   9999     0     0     0    
2019/08/21  23:34:00  BASE  0        84   0.84672  40   -7.4  100   -7.4  0     0     1013.8   NA       0.0000   9999     0     0     0    
2019/08/21  23:35:00  BASE  0        92   0.84672  40   -7.4  100   -7.4  0     0     1013.8   NA       0.0000   9999     0     0     0    
2019/08/21  23:36:00  BASE  0        86   0.84672  40   -7.4  100   -7.4  0     0     1013.7   NA       0.0000   9999     0     0     0    
2019/08/21  23:37:00  BASE  0        84   0.78792  40   -7.3  100   -7.3  0     0     1013.7   NA       0.0000   9999     0     0     0    
2019/08/21  23:38:00  BASE  0        89   0.75852  42   -7.3  100   -7.3  0     1     1013.8   NA       0.0000   9999     0     0     0    
2019/08/21  23:39:00  BASE  0        96   0.75852  42   -7.2  100   -7.2  0     0     1013.7   NA       0.0000   9999     0     0     0    
2019/08/21  23:40:00  BASE  0        102  0.75852  42   -7.2  100   -7.2  0     0     1013.7   NA       0.0000   9999     360   0     0    
2019/08/21  23:41:00  BASE  0        102  0.66444  47   -7.1  100   -7.1  0     0     1013.7   NA       0.0000   9999     360   0     0    
2019/08/21  23:42:00  BASE  0        102  0        M    -7.1  100   -7.1  0     0     1013.7   NA       0.0000   9999     360   0     0    
2019/08/21  23:43:00  BASE  0        102  0        M    -7.0  100   -7.0  0     0     1013.7   NA       0.0000   9999     330   0     0    
2019/08/21  23:44:00  BASE  0        102  0        M    -7.0  100   -7.0  0     0     1013.7   NA       0.0000   9999     330   0     0    
2019/08/21  23:45:00  BASE  0        102  0        M    -7.0  100   -7.0  0     0     1013.7   NA       0.0000   9999     300   0     0    
2019/08/21  23:46:00  BASE  0        102  0        M    -7.0  100   -7.0  0     0     1013.7   NA       0.0000   9999     300   0     0    
2019/08/21  23:47:00  BASE  0        102  0        M    -7.0  100   -7.0  0     0     1013.7   NA       0.0000   9999     260   0     0    
2019/08/21  23:48:00  BASE  0        102  0        M    -7.0  100   -7.0  0     0     1013.7   NA       0.0000   9999     300   0     0    
2019/08/21  23:49:00  BASE  0        83   0        M    -7.1  100   -7.1  0     0     1013.7   NA       0.0000   9999     260   0     0    
2019/08/21  23:50:00  BASE  0        50   0        M    -7.1  100   -7.1  0     0     1013.7   NA       0.0000   9999     260   0     0    
2019/08/21  23:51:00  BASE  0        40   0        M    -7.2  100   -7.2  0     0     1013.7   NA       0.0000   9999     260   0     0    
2019/08/21  23:52:00  BASE  0        40   0        M    -7.3  100   -7.3  0     0     1013.7   NA       0.0000   9999     260   0     0    
2019/08/21  23:53:00  BASE  0        39   0        M    -7.4  100   -7.4  0     0     1013.7   NA       0.0000   9999     300   0     0    
2019/08/21  23:54:00  BASE  0        37   0        M    -7.4  100   -7.4  0     0     1013.7   NA       0.0000   9999     300   0     0    
2019/08/21  23:55:00  BASE  0.34104  38   0.90552  41   -7.5  100   -7.5  0     0     1013.7   NA       0.0000   8000     300   0     0    
2019/08/21  23:56:00  BASE  0.51744  42   0.90552  41   -7.6  100   -7.6  0     0     1013.7   NA       0.0000   8000     0     0     0    
2019/08/21  23:57:00  BASE  0.1764   41   0.90552  41   -7.8  100   -7.8  0     1     1013.7   NA       0.0000   7000     0     0     0    
2019/08/21  23:58:00  BASE  0        40   0.90552  41   -7.9  100   -7.9  0     0     1013.7   NA       0.0000   7000     0     0     0    
2019/08/21  23:59:00  BASE  0        40   0.90552  41   -8.0  100   -8.0  0     0     1013.7   NA       0.0000   BR       7000  0     0